Wetterdaten: Sonntag, 11.08.2019
Datum Zeit Temp. A. Pool Temp. Temp. 5cm Feuchte A. Luftdruck Regen Wind Richtung Richtung Sonnenschein ET UV Solar Taupunkt Windchill Windben Empfang
11.08.2019 00:00 18,4 C 25,0 C 18,9 C 96 % 1018,0 hPa 0,0 l/m 0,0 km/h (0 Bft) S-SO 167 0 min 0,000 mm 0,0 UV-I 0 W/m 17,7 C 18,4 C 0,0 km/h (0 Bft) 100,00 %
11.08.2019 00:02 18,4 C 25,0 C 18,9 C 96 % 1017,9 hPa 0,0 l/m 0,0 km/h (0 Bft) S-SO 167 0 min 0,000 mm 0,0 UV-I 0 W/m 17,7 C 18,4 C 0,0 km/h (0 Bft) 9,09 %
11.08.2019 00:04 18,4 C 25,0 C 18,9 C 96 % 1018,0 hPa 0,0 l/m 0,8 km/h (0 Bft) S-SO 167 0 min 0,000 mm 0,0 UV-I 0 W/m 17,7 C 18,4 C 1,6 km/h (1 Bft) 100,00 %
11.08.2019 00:06 18,4 C 25,0 C 18,9 C 96 % 1018,0 hPa 0,0 l/m 1,0 km/h (0 Bft) S-SO 167 0 min 0,000 mm 0,0 UV-I 0 W/m 17,7 C 18,4 C 1,6 km/h (1 Bft) 100,00 %
11.08.2019 00:08 18,4 C 25,0 C 18,9 C 96 % 1017,8 hPa 0,0 l/m 0,5 km/h (0 Bft) S-SO 167 0 min 0,000 mm 0,0 UV-I 0 W/m 17,7 C 18,4 C 1,6 km/h (1 Bft) 100,00 %
11.08.2019 00:10 18,4 C 25,0 C 18,3 C 96 % 1017,8 hPa 0,0 l/m 0,0 km/h (0 Bft) S-SO 167 0 min 0,000 mm 0,0 UV-I 0 W/m 17,7 C 18,4 C 0,0 km/h (0 Bft) 100,00 %
11.08.2019 00:12 18,4 C 25,0 C 18,3 C 96 % 1017,8 hPa 0,0 l/m 2,1 km/h (1 Bft) S-SO 167 0 min 0,000 mm 0,0 UV-I 0 W/m 17,7 C 18,4 C 4,8 km/h (1 Bft) 95,74 %
11.08.2019 00:14 18,3 C 25,0 C 18,3 C 96 % 1017,7 hPa 0,0 l/m 3,8 km/h (1 Bft) S-SO 167 0 min 0,000 mm 0,0 UV-I 0 W/m 17,6 C 18,3 C 4,8 km/h (1 Bft) 100,00 %
11.08.2019 00:16 18,3 C 25,0 C 18,3 C 96 % 1017,7 hPa 0,0 l/m 3,4 km/h (1 Bft) S-SO 167 0 min 0,000 mm 0,0 UV-I 0 W/m 17,6 C 18,3 C 4,8 km/h (1 Bft) 100,00 %
11.08.2019 00:18 18,3 C 25,0 C 18,3 C 96 % 1017,8 hPa 0,0 l/m 2,1 km/h (1 Bft) S-SO 167 0 min 0,000 mm 0,0 UV-I 0 W/m 17,6 C 18,3 C 4,8 km/h (1 Bft) 100,00 %
11.08.2019 00:20 18,3 C 25,0 C 18,3 C 96 % 1017,8 hPa 0,0 l/m 2,9 km/h (1 Bft) S-SO 167 0 min 0,000 mm 0,0 UV-I 0 W/m 17,6 C 18,3 C 4,8 km/h (1 Bft) 97,37 %
11.08.2019 00:22 18,2 C 25,0 C 18,3 C 96 % 1017,8 hPa 0,0 l/m 2,2 km/h (1 Bft) S-SO 167 0 min 0,000 mm 0,0 UV-I 0 W/m 17,6 C 18,2 C 4,8 km/h (1 Bft) 95,74 %
11.08.2019 00:24 18,2 C 25,0 C 18,3 C 96 % 1017,8 hPa 0,0 l/m 2,1 km/h (1 Bft) S-SO 167 0 min 0,000 mm 0,0 UV-I 0 W/m 17,6 C 18,2 C 4,8 km/h (1 Bft) 97,87 %
11.08.2019 00:26 18,2 C 25,0 C 18,3 C 96 % 1017,8 hPa 0,0 l/m 0,3 km/h (0 Bft) S-SO 167 0 min 0,000 mm 0,0 UV-I 0 W/m 17,6 C 18,2 C 1,6 km/h (1 Bft) 97,87 %
11.08.2019 00:28 18,3 C 25,0 C 18,3 C 96 % 1017,7 hPa 0,0 l/m 0,0 km/h (0 Bft) S-SO 167 0 min 0,000 mm 0,0 UV-I 0 W/m 17,6 C 18,3 C 0,0 km/h (0 Bft) 100,00 %
11.08.2019 00:30 18,3 C 25,0 C 18,3 C 96 % 1017,8 hPa 0,0 l/m 0,0 km/h (0 Bft) S-SO 167 0 min 0,000 mm 0,0 UV-I 0 W/m 17,6 C 18,3 C 0,0 km/h (0 Bft) 97,87 %
11.08.2019 00:32 18,3 C 25,0 C 18,3 C 96 % 1017,9 hPa 0,0 l/m 0,0 km/h (0 Bft) S-SO 167 0 min 0,000 mm 0,0 UV-I 0 W/m 17,6 C 18,3 C 0,0 km/h (0 Bft) 100,00 %
11.08.2019 00:34 18,3 C 25,0 C 18,3 C 96 % 1018,0 hPa 0,0 l/m 0,0 km/h (0 Bft) S-SO 167 0 min 0,000 mm 0,0 UV-I 0 W/m 17,6 C 18,3 C 0,0 km/h (0 Bft) 95,74 %
11.08.2019 00:36 18,3 C 25,0 C 18,3 C 96 % 1018,0 hPa 0,0 l/m 0,9 km/h (0 Bft) S-SO 167 0 min 0,000 mm 0,0 UV-I 0 W/m 17,6 C 18,3 C 4,8 km/h (1 Bft) 95,74 %
11.08.2019 00:38 18,4 C 25,0 C 18,3 C 96 % 1018,0 hPa 0,0 l/m 1,2 km/h (1 Bft) S-SO 167 0 min 0,000 mm 0,0 UV-I 0 W/m 17,7 C 18,4 C 4,8 km/h (1 Bft) 90,00 %
11.08.2019 00:40 18,4 C 25,0 C 18,3 C 96 % 1018,0 hPa 0,0 l/m 1,6 km/h (1 Bft) S-SO 167 0 min 0,000 mm 0,0 UV-I 0 W/m 17,7 C 18,4 C 4,8 km/h (1 Bft) 93,75 %
11.08.2019 00:42 18,3 C 25,0 C 18,3 C 96 % 1018,0 hPa 0,0 l/m 1,4 km/h (1 Bft) S-SO 167 0 min 0,000 mm 0,0 UV-I 0 W/m 17,6 C 18,3 C 1,6 km/h (1 Bft) 94,00 %
11.08.2019 00:44 18,4 C 25,0 C 18,3 C 96 % 1018,0 hPa 0,0 l/m 1,4 km/h (1 Bft) S-SO 167 0 min 0,000 mm 0,0 UV-I 0 W/m 17,7 C 18,4 C 1,6 km/h (1 Bft) 91,49 %
11.08.2019 00:46 18,3 C 25,0 C 18,3 C 96 % 1018,0 hPa 0,0 l/m 0,5 km/h (0 Bft) S-SO 167 0 min 0,000 mm 0,0 UV-I 0 W/m 17,6 C 18,3 C 1,6 km/h (1 Bft) 93,62 %
11.08.2019 00:48 18,3 C 25,0 C 18,3 C 96 % 1017,9 hPa 0,0 l/m 0,0 km/h (0 Bft) S-SO 167 0 min 0,000 mm 0,0 UV-I 0 W/m 17,6 C 18,3 C 0,0 km/h (0 Bft) 97,14 %
11.08.2019 00:50 18,3 C 25,0 C 18,3 C 96 % 1017,9 hPa 0,0 l/m 0,0 km/h (0 Bft) S-SO 167 0 min 0,000 mm 0,0 UV-I 0 W/m 17,6 C 18,3 C 0,0 km/h (0 Bft) 90,00 %
11.08.2019 00:52 18,3 C 25,0 C 18,3 C 96 % 1017,9 hPa 0,0 l/m 0,0 km/h (0 Bft) S-SO 167 0 min 0,000 mm 0,0 UV-I 0 W/m 17,6 C 18,3 C 0,0 km/h (0 Bft) 93,62 %
11.08.2019 00:54 18,3 C 25,0 C 18,3 C 96 % 1018,0 hPa 0,0 l/m 0,4 km/h (0 Bft) S-SO 167 0 min 0,000 mm 0,0 UV-I 0 W/m 17,6 C 18,3 C 1,6 km/h (1 Bft) 91,49 %
11.08.2019 00:56 18,3 C 25,0 C 18,3 C 96 % 1018,0 hPa 0,0 l/m 1,5 km/h (1 Bft) S-SO 167 0 min 0,000 mm 0,0 UV-I 0 W/m 17,6 C 18,3 C 4,8 km/h (1 Bft) 93,62 %
11.08.2019 00:58 18,3 C 25,0 C 18,3 C 96 % 1018,0 hPa 0,0 l/m 0,8 km/h (0 Bft) S-SO 167 0 min 0,000 mm 0,0 UV-I 0 W/m 17,6 C 18,3 C 1,6 km/h (1 Bft) 93,62 %
11.08.2019 01:00 18,3 C 25,0 C 18,3 C 96 % 1018,0 hPa 0,0 l/m 0,3 km/h (0 Bft) S-SO 167 0 min 0,000 mm 0,0 UV-I 0 W/m 17,6 C 18,3 C 1,6 km/h (1 Bft) 93,62 %
11.08.2019 01:02 18,3 C 25,0 C 18,3 C 96 % 1018,0 hPa 0,0 l/m 0,6 km/h (0 Bft) S-SO 167 0 min 0,000 mm 0,0 UV-I 0 W/m 17,6 C 18,3 C 1,6 km/h (1 Bft) 94,34 %
11.08.2019 01:04 18,3 C 25,0 C 18,3 C 96 % 1018,0 hPa 0,0 l/m 0,0 km/h (0 Bft) S-SO 167 0 min 0,000 mm 0,0 UV-I 0 W/m 17,6 C 18,3 C 0,0 km/h (0 Bft) 94,74 %
11.08.2019 01:06 18,3 C 25,0 C 18,3 C 96 % 1018,0 hPa 0,0 l/m 0,0 km/h (0 Bft) S-SO 167 0 min 0,000 mm 0,0 UV-I 0 W/m 17,6 C 18,3 C 0,0 km/h (0 Bft) 95,74 %
11.08.2019 01:08 18,4 C 25,0 C 18,3 C 96 % 1017,8 hPa 0,0 l/m 0,8 km/h (0 Bft) S-SO 167 0 min 0,000 mm 0,0 UV-I 0 W/m 17,7 C 18,4 C 4,8 km/h (1 Bft) 95,74 %
11.08.2019 01:10 18,4 C 25,0 C 18,3 C 96 % 1017,9 hPa 0,0 l/m 2,4 km/h (1 Bft) S-SO 167 0 min 0,000 mm 0,0 UV-I 0 W/m 17,7 C 18,4 C 4,8 km/h (1 Bft) 95,74 %
11.08.2019 01:12 18,3 C 25,0 C 18,3 C 96 % 1018,0 hPa 0,0 l/m 0,5 km/h (0 Bft) S-SO 167 0 min 0,000 mm 0,0 UV-I 0 W/m 17,6 C 18,3 C 1,6 km/h (1 Bft) 95,83 %
11.08.2019 01:14 18,3 C 25,0 C 18,3 C 96 % 1018,0 hPa 0,0 l/m 0,0 km/h (0 Bft) S-SO 167 0 min 0,000 mm 0,0 UV-I 0 W/m 17,6 C 18,3 C 0,0 km/h (0 Bft) 97,87 %
11.08.2019 01:16 18,3 C 25,0 C 18,3 C 96 % 1018,1 hPa 0,0 l/m 0,0 km/h (0 Bft) S-SO 167 0 min 0,000 mm 0,0 UV-I 0 W/m 17,6 C 18,3 C 0,0 km/h (0 Bft) 97,87 %
11.08.2019 01:18 18,4 C 25,0 C 18,9 C 96 % 1018,1 hPa 0,0 l/m 0,0 km/h (0 Bft) S-SO 167 0 min 0,000 mm 0,0 UV-I 0 W/m 17,7 C 18,4 C 0,0 km/h (0 Bft) 97,87 %
11.08.2019 01:20 18,4 C 25,0 C 18,9 C 96 % 1018,1 hPa 0,0 l/m 1,2 km/h (1 Bft) S-SO 167 0 min 0,000 mm 0,0 UV-I 0 W/m 17,7 C 18,4 C 1,6 km/h (1 Bft) 97,87 %
11.08.2019 01:22 18,4 C 25,0 C 18,9 C 96 % 1018,1 hPa 0,0 l/m 0,3 km/h (0 Bft) S-SO 167 0 min 0,000 mm 0,0 UV-I 0 W/m 17,7 C 18,4 C 1,6 km/h (1 Bft) 96,00 %
11.08.2019 01:24 18,4 C 25,0 C 18,3 C 96 % 1018,1 hPa 0,0 l/m 0,0 km/h (0 Bft) S-SO 167 0 min 0,000 mm 0,0 UV-I 0 W/m 17,7 C 18,4 C 0,0 km/h (0 Bft) 94,00 %
11.08.2019 01:26 18,3 C 25,0 C 18,3 C 96 % 1018,0 hPa 0,0 l/m 0,0 km/h (0 Bft) S-SO 167 0 min 0,000 mm 0,0 UV-I 0 W/m 17,6 C 18,3 C 1,6 km/h (1 Bft) 97,37 %
11.08.2019 01:28 18,3 C 25,0 C 18,3 C 96 % 1018,0 hPa 0,0 l/m 1,3 km/h (1 Bft) S-SO 167 0 min 0,000 mm 0,0 UV-I 0 W/m 17,6 C 18,3 C 1,6 km/h (1 Bft) 97,87 %
11.08.2019 01:30 18,3 C 25,0 C 18,3 C 96 % 1018,1 hPa 0,0 l/m 2,5 km/h (1 Bft) S-SO 167 0 min 0,000 mm 0,0 UV-I 0 W/m 17,6 C 18,3 C 4,8 km/h (1 Bft) 97,87 %
11.08.2019 01:32 18,3 C 25,0 C 18,3 C 96 % 1018,1 hPa 0,0 l/m 1,3 km/h (1 Bft) S-SO 167 0 min 0,000 mm 0,0 UV-I 0 W/m 17,6 C 18,3 C 4,8 km/h (1 Bft) 97,87 %
11.08.2019 01:34 18,3 C 25,0 C 18,3 C 96 % 1018,0 hPa 0,0 l/m 0,0 km/h (0 Bft) S-SO 167 0 min 0,000 mm 0,0 UV-I 0 W/m 17,6 C 18,3 C 0,0 km/h (0 Bft) 95,74 %
11.08.2019 01:36 18,3 C 25,0 C 18,3 C 96 % 1018,0 hPa 0,0 l/m 0,2 km/h (0 Bft) S-SO 167 0 min 0,000 mm 0,0 UV-I 0 W/m 17,6 C 18,3 C 1,6 km/h (1 Bft) 95,74 %
11.08.2019 01:38 18,3 C 25,0 C 18,3 C 96 % 1018,0 hPa 0,0 l/m 0,9 km/h (0 Bft) S-SO 167 0 min 0,000 mm 0,0 UV-I 0 W/m 17,6 C 18,3 C 1,6 km/h (1 Bft) 97,87 %
11.08.2019 01:40 18,2 C 25,0 C 18,3 C 96 % 1018,0 hPa 0,0 l/m 0,6 km/h (0 Bft) S-SO 167 0 min 0,000 mm 0,0 UV-I 0 W/m 17,6 C 18,2 C 1,6 km/h (1 Bft) 100,00 %
11.08.2019 01:42 18,2 C 24,4 C 18,3 C 96 % 1018,1 hPa 0,0 l/m 0,0 km/h (0 Bft) S-SO 167 0 min 0,000 mm 0,0 UV-I 0 W/m 17,6 C 18,2 C 0,0 km/h (0 Bft) 100,00 %
11.08.2019 01:44 18,2 C 24,4 C 18,3 C 96 % 1018,0 hPa 0,0 l/m 0,0 km/h (0 Bft) S-SO 167 0 min 0,000 mm 0,0 UV-I 0 W/m 17,6 C 18,2 C 0,0 km/h (0 Bft) 97,87 %
11.08.2019 01:46 18,2 C 24,4 C 18,3 C 96 % 1018,0 hPa 0,0 l/m 0,1 km/h (0 Bft) S-SO 167 0 min 0,000 mm 0,0 UV-I 0 W/m 17,6 C 18,2 C 1,6 km/h (1 Bft) 100,00 %
11.08.2019 01:48 18,3 C 24,4 C 18,3 C 96 % 1018,1 hPa 0,0 l/m 1,7 km/h (1 Bft) S-SO 167 0 min 0,000 mm 0,0 UV-I 0 W/m 17,6 C 18,3 C 4,8 km/h (1 Bft) 97,87 %
11.08.2019 01:50 18,3 C 24,4 C 18,3 C 96 % 1018,1 hPa 0,0 l/m 2,3 km/h (1 Bft) S-SO 167 0 min 0,000 mm 0,0 UV-I 0 W/m 17,6 C 18,3 C 4,8 km/h (1 Bft) 96,00 %
11.08.2019 01:52 18,2 C 24,4 C 18,3 C 96 % 1018,2 hPa 0,0 l/m 1,3 km/h (1 Bft) S-SO 167 0 min 0,000 mm 0,0 UV-I 0 W/m 17,6 C 18,2 C 1,6 km/h (1 Bft) 100,00 %
11.08.2019 01:54 18,2 C 24,4 C 18,3 C 96 % 1018,2 hPa 0,0 l/m 0,2 km/h (0 Bft) S-SO 167 0 min 0,000 mm 0,0 UV-I 0 W/m 17,6 C 18,2 C 1,6 km/h (1 Bft) 97,92 %
11.08.2019 01:56 18,2 C 24,4 C 18,3 C 96 % 1018,1 hPa 0,0 l/m 1,0 km/h (0 Bft) S-SO 167 0 min 0,000 mm 0,0 UV-I 0 W/m 17,6 C 18,2 C 1,6 km/h (1 Bft) 100,00 %
11.08.2019 01:58 18,2 C 24,4 C 18,3 C 96 % 1018,0 hPa 0,0 l/m 0,1 km/h (0 Bft) S-SO 167 0 min 0,000 mm 0,0 UV-I 0 W/m 17,6 C 18,2 C 1,6 km/h (1 Bft) 100,00 %
11.08.2019 02:00 18,2 C 24,4 C 18,3 C 96 % 1018,0 hPa 0,0 l/m 0,9 km/h (0 Bft) S-SO 167 0 min 0,000 mm 0,0 UV-I 0 W/m 17,6 C 18,2 C 1,6 km/h (1 Bft) 97,87 %
11.08.2019 02:02 18,2 C 24,4 C 18,3 C 96 % 1018,1 hPa 0,0 l/m 0,4 km/h (0 Bft) S-SO 167 0 min 0,000 mm 0,0 UV-I 0 W/m 17,6 C 18,2 C 1,6 km/h (1 Bft) 100,00 %
11.08.2019 02:04 18,3 C 24,4 C 18,3 C 96 % 1018,1 hPa 0,0 l/m 0,2 km/h (0 Bft) S-SO 167 0 min 0,000 mm 0,0 UV-I 0 W/m 17,6 C 18,3 C 1,6 km/h (1 Bft) 97,87 %
11.08.2019 02:06 18,3 C 24,4 C 18,3 C 96 % 1018,1 hPa 0,0 l/m 0,5 km/h (0 Bft) S-SO 167 0 min 0,000 mm 0,0 UV-I 0 W/m 17,6 C 18,3 C 1,6 km/h (1 Bft) 97,14 %
11.08.2019 02:08 18,3 C 24,4 C 18,3 C 96 % 1018,1 hPa 0,0 l/m 2,2 km/h (1 Bft) S-SO 167 0 min 0,000 mm 0,0 UV-I 0 W/m 17,6 C 18,3 C 4,8 km/h (1 Bft) 96,00 %
11.08.2019 02:10 18,2 C 24,4 C 18,3 C 96 % 1018,2 hPa 0,0 l/m 1,7 km/h (1 Bft) S-SO 167 0 min 0,000 mm 0,0 UV-I 0 W/m 17,6 C 18,2 C 4,8 km/h (1 Bft) 96,00 %
11.08.2019 02:12 18,2 C 24,4 C 18,3 C 96 % 1018,1 hPa 0,0 l/m 0,5 km/h (0 Bft) S-SO 167 0 min 0,000 mm 0,0 UV-I 0 W/m 17,6 C 18,2 C 1,6 km/h (1 Bft) 97,87 %
11.08.2019 02:14 18,2 C 24,4 C 18,3 C 96 % 1018,1 hPa 0,0 l/m 1,8 km/h (1 Bft) S-SO 167 0 min 0,000 mm 0,0 UV-I 0 W/m 17,6 C 18,2 C 4,8 km/h (1 Bft) 97,87 %
11.08.2019 02:16 18,2 C 24,4 C 18,9 C 96 % 1018,2 hPa 0,0 l/m 4,2 km/h (1 Bft) S-SO 167 0 min 0,000 mm 0,0 UV-I 0 W/m 17,6 C 18,2 C 6,4 km/h (2 Bft) 95,74 %
11.08.2019 02:18 18,2 C 24,4 C 18,3 C 96 % 1018,2 hPa 0,0 l/m 1,7 km/h (1 Bft) S-SO 167 0 min 0,000 mm 0,0 UV-I 0 W/m 17,6 C 18,2 C 4,8 km/h (1 Bft) 97,87 %
11.08.2019 02:20 18,2 C 24,4 C 18,3 C 96 % 1018,1 hPa 0,0 l/m 0,2 km/h (0 Bft) S-SO 167 0 min 0,000 mm 0,0 UV-I 0 W/m 17,6 C 18,2 C 1,6 km/h (1 Bft) 97,87 %
11.08.2019 02:22 18,2 C 24,4 C 18,3 C 96 % 1018,0 hPa 0,0 l/m 3,0 km/h (1 Bft) S-SO 167 0 min 0,000 mm 0,0 UV-I 0 W/m 17,6 C 18,2 C 6,4 km/h (2 Bft) 97,87 %
11.08.2019 02:24 18,1 C 24,4 C 18,3 C 96 % 1018,0 hPa 0,0 l/m 6,2 km/h (2 Bft) SO 146 0 min 0,000 mm 0,0 UV-I 0 W/m 17,5 C 18,1 C 8,0 km/h (2 Bft) 95,74 %
11.08.2019 02:26 18,1 C 24,4 C 18,3 C 96 % 1018,0 hPa 0,0 l/m 5,5 km/h (1 Bft) SO 144 0 min 0,000 mm 0,0 UV-I 0 W/m 17,5 C 18,1 C 6,4 km/h (2 Bft) 95,74 %
11.08.2019 02:28 18,2 C 24,4 C 18,3 C 96 % 1018,1 hPa 0,0 l/m 1,9 km/h (1 Bft) SO 144 0 min 0,000 mm 0,0 UV-I 0 W/m 17,6 C 18,2 C 3,2 km/h (1 Bft) 95,74 %
11.08.2019 02:30 18,1 C 24,4 C 18,3 C 96 % 1018,2 hPa 0,0 l/m 2,3 km/h (1 Bft) N-NW 333 0 min 0,000 mm 0,0 UV-I 0 W/m 17,5 C 18,1 C 6,4 km/h (2 Bft) 100,00 %
11.08.2019 02:32 18,1 C 24,4 C 18,3 C 96 % 1018,2 hPa 0,0 l/m 2,9 km/h (1 Bft) N-NW 333 0 min 0,000 mm 0,0 UV-I 0 W/m 17,5 C 18,1 C 4,8 km/h (1 Bft) 100,00 %
11.08.2019 02:34 18,1 C 24,4 C 17,8 C 96 % 1018,2 hPa 0,0 l/m 1,0 km/h (0 Bft) N-NW 333 0 min 0,000 mm 0,0 UV-I 0 W/m 17,5 C 18,1 C 1,6 km/h (1 Bft) 100,00 %
11.08.2019 02:36 18,1 C 24,4 C 17,8 C 96 % 1018,2 hPa 0,0 l/m 1,9 km/h (1 Bft) N-NW 334 0 min 0,000 mm 0,0 UV-I 0 W/m 17,5 C 18,1 C 3,2 km/h (1 Bft) 93,62 %
11.08.2019 02:38 18,1 C 24,4 C 17,8 C 96 % 1018,2 hPa 0,0 l/m 1,1 km/h (1 Bft) N-NW 333 0 min 0,000 mm 0,0 UV-I 0 W/m 17,5 C 18,1 C 1,6 km/h (1 Bft) 96,00 %
11.08.2019 02:40 18,2 C 24,4 C 17,8 C 96 % 1018,2 hPa 0,0 l/m 2,0 km/h (1 Bft) N-NW 333 0 min 0,000 mm 0,0 UV-I 0 W/m 17,6 C 18,2 C 3,2 km/h (1 Bft) 97,87 %
11.08.2019 02:42 18,2 C 24,4 C 17,8 C 96 % 1018,2 hPa 0,0 l/m 2,2 km/h (1 Bft) N-NW 333 0 min 0,000 mm 0,0 UV-I 0 W/m 17,6 C 18,2 C 3,2 km/h (1 Bft) 96,00 %
11.08.2019 02:44 18,1 C 24,4 C 17,8 C 96 % 1018,2 hPa 0,0 l/m 1,9 km/h (1 Bft) N-NW 333 0 min 0,000 mm 0,0 UV-I 0 W/m 17,5 C 18,1 C 3,2 km/h (1 Bft) 94,74 %
11.08.2019 02:46 18,0 C 24,4 C 17,8 C 96 % 1018,0 hPa 0,0 l/m 0,2 km/h (0 Bft) N-NW 333 0 min 0,000 mm 0,0 UV-I 0 W/m 17,4 C 18,0 C 1,6 km/h (1 Bft) 98,11 %
11.08.2019 02:48 17,9 C 24,4 C 17,8 C 96 % 1018,0 hPa 0,0 l/m 0,4 km/h (0 Bft) N-NW 333 0 min 0,000 mm 0,0 UV-I 0 W/m 17,3 C 17,9 C 1,6 km/h (1 Bft) 97,87 %
11.08.2019 02:50 17,9 C 24,4 C 17,8 C 96 % 1018,1 hPa 0,0 l/m 1,3 km/h (1 Bft) N-NW 333 0 min 0,000 mm 0,0 UV-I 0 W/m 17,3 C 17,9 C 3,2 km/h (1 Bft) 95,74 %
11.08.2019 02:52 17,9 C 24,4 C 17,8 C 96 % 1018,2 hPa 0,0 l/m 0,0 km/h (0 Bft) N-NW 333 0 min 0,000 mm 0,0 UV-I 0 W/m 17,3 C 17,9 C 0,0 km/h (0 Bft) 97,87 %
11.08.2019 02:54 17,9 C 24,4 C 17,8 C 96 % 1018,2 hPa 0,0 l/m 0,9 km/h (0 Bft) N-NW 333 0 min 0,000 mm 0,0 UV-I 0 W/m 17,3 C 17,9 C 3,2 km/h (1 Bft) 95,74 %
11.08.2019 02:56 17,9 C 24,4 C 17,8 C 96 % 1018,2 hPa 0,0 l/m 2,1 km/h (1 Bft) N-NW 333 0 min 0,000 mm 0,0 UV-I 0 W/m 17,3 C 17,9 C 3,2 km/h (1 Bft) 97,87 %
11.08.2019 02:58 18,0 C 24,4 C 18,3 C 96 % 1018,2 hPa 0,0 l/m 1,3 km/h (1 Bft) N-NW 333 0 min 0,000 mm 0,0 UV-I 0 W/m 17,4 C 18,0 C 1,6 km/h (1 Bft) 98,00 %
11.08.2019 03:00 18,0 C 24,4 C 18,3 C 96 % 1018,2 hPa 0,0 l/m 0,7 km/h (0 Bft) N-NW 333 0 min 0,000 mm 0,0 UV-I 0 W/m 17,4 C 18,0 C 1,6 km/h (1 Bft) 97,87 %
11.08.2019 03:02 17,9 C 24,4 C 18,3 C 96 % 1018,2 hPa 0,0 l/m 1,0 km/h (0 Bft) N-NW 333 0 min 0,000 mm 0,0 UV-I 0 W/m 17,3 C 17,9 C 1,6 km/h (1 Bft) 97,37 %
11.08.2019 03:04 18,0 C 24,4 C 18,3 C 96 % 1018,2 hPa 0,0 l/m 0,5 km/h (0 Bft) N-NW 333 0 min 0,000 mm 0,0 UV-I 0 W/m 17,4 C 18,0 C 1,6 km/h (1 Bft) 97,87 %
11.08.2019 03:06 17,9 C 24,4 C 18,3 C 96 % 1018,2 hPa 0,0 l/m 1,0 km/h (0 Bft) N-NW 333 0 min 0,000 mm 0,0 UV-I 0 W/m 17,3 C 17,9 C 1,6 km/h (1 Bft) 95,74 %
11.08.2019 03:08 17,9 C 24,4 C 18,3 C 96 % 1018,1 hPa 0,0 l/m 2,1 km/h (1 Bft) N-NW 334 0 min 0,000 mm 0,0 UV-I 0 W/m 17,3 C 17,9 C 3,2 km/h (1 Bft) 97,92 %
11.08.2019 03:10 17,9 C 24,4 C 18,3 C 96 % 1018,1 hPa 0,0 l/m 2,9 km/h (1 Bft) N-NW 334 0 min 0,000 mm 0,0 UV-I 0 W/m 17,3 C 17,9 C 4,8 km/h (1 Bft) 95,74 %
11.08.2019 03:12 17,9 C 24,4 C 18,3 C 96 % 1018,1 hPa 0,0 l/m 1,9 km/h (1 Bft) N-NW 334 0 min 0,000 mm 0,0 UV-I 0 W/m 17,3 C 17,9 C 3,2 km/h (1 Bft) 97,87 %
11.08.2019 03:14 17,8 C 24,4 C 18,3 C 96 % 1018,1 hPa 0,0 l/m 1,6 km/h (1 Bft) N-NW 334 0 min 0,000 mm 0,0 UV-I 0 W/m 17,2 C 17,8 C 3,2 km/h (1 Bft) 95,74 %
11.08.2019 03:16 17,8 C 24,4 C 17,8 C 96 % 1018,1 hPa 0,0 l/m 0,8 km/h (0 Bft) N-NW 334 0 min 0,000 mm 0,0 UV-I 0 W/m 17,2 C 17,8 C 1,6 km/h (1 Bft) 97,87 %
11.08.2019 03:18 17,8 C 24,4 C 17,8 C 96 % 1018,2 hPa 0,0 l/m 0,0 km/h (0 Bft) N-NW 334 0 min 0,000 mm 0,0 UV-I 0 W/m 17,2 C 17,8 C 0,0 km/h (0 Bft) 97,96 %
11.08.2019 03:20 17,9 C 24,4 C 17,8 C 96 % 1018,1 hPa 0,0 l/m 0,0 km/h (0 Bft) N-NW 334 0 min 0,000 mm 0,0 UV-I 0 W/m 17,3 C 17,9 C 0,0 km/h (0 Bft) 100,00 %
11.08.2019 03:22 17,9 C 24,4 C 17,8 C 96 % 1018,1 hPa 0,0 l/m 0,2 km/h (0 Bft) N-NW 334 0 min 0,000 mm 0,0 UV-I 0 W/m 17,3 C 17,9 C 1,6 km/h (1 Bft) 100,00 %
11.08.2019 03:24 17,9 C 24,4 C 17,8 C 96 % 1018,1 hPa 0,0 l/m 0,7 km/h (0 Bft) N-NW 334 0 min 0,000 mm 0,0 UV-I 0 W/m 17,3 C 17,9 C 1,6 km/h (1 Bft) 100,00 %
11.08.2019 03:26 17,9 C 24,4 C 17,2 C 96 % 1018,1 hPa 0,2 l/m 0,3 km/h (0 Bft) N-NW 334 0 min 0,000 mm 0,0 UV-I 0 W/m 17,3 C 17,9 C 1,6 km/h (1 Bft) 95,74 %
11.08.2019 03:28 17,9 C 24,4 C 17,2 C 96 % 1018,2 hPa 0,0 l/m 0,9 km/h (0 Bft) N-NW 334 0 min 0,000 mm 0,0 UV-I 0 W/m 17,3 C 17,9 C 1,6 km/h (1 Bft) 95,74 %
11.08.2019 03:30 17,9 C 24,4 C 17,2 C 96 % 1018,3 hPa 0,0 l/m 1,9 km/h (1 Bft) N-NW 334 0 min 0,000 mm 0,0 UV-I 0 W/m 17,3 C 17,9 C 3,2 km/h (1 Bft) 100,00 %
11.08.2019 03:32 17,8 C 24,4 C 17,2 C 96 % 1018,3 hPa 0,0 l/m 2,5 km/h (1 Bft) N-NW 334 0 min 0,000 mm 0,0 UV-I 0 W/m 17,2 C 17,8 C 3,2 km/h (1 Bft) 100,00 %
11.08.2019 03:34 17,8 C 24,4 C 17,2 C 96 % 1018,2 hPa 0,0 l/m 2,2 km/h (1 Bft) N-NW 334 0 min 0,000 mm 0,0 UV-I 0 W/m 17,2 C 17,8 C 3,2 km/h (1 Bft) 97,87 %
11.08.2019 03:36 17,8 C 24,4 C 17,2 C 96 % 1018,2 hPa 0,0 l/m 1,3 km/h (1 Bft) N-NW 334 0 min 0,000 mm 0,0 UV-I 0 W/m 17,2 C 17,8 C 3,2 km/h (1 Bft) 96,00 %
11.08.2019 03:38 17,8 C 24,4 C 17,2 C 96 % 1018,2 hPa 0,0 l/m 1,5 km/h (1 Bft) N-NW 334 0 min 0,000 mm 0,0 UV-I 0 W/m 17,2 C 17,8 C 1,6 km/h (1 Bft) 98,00 %
11.08.2019 03:40 17,8 C 24,4 C 16,7 C 96 % 1018,3 hPa 0,0 l/m 1,7 km/h (1 Bft) N-NW 334 0 min 0,000 mm 0,0 UV-I 0 W/m 17,2 C 17,8 C 3,2 km/h (1 Bft) 97,87 %
11.08.2019 03:42 17,8 C 24,4 C 16,7 C 96 % 1018,4 hPa 0,0 l/m 2,1 km/h (1 Bft) N-NW 334 0 min 0,000 mm 0,0 UV-I 0 W/m 17,2 C 17,8 C 3,2 km/h (1 Bft) 97,87 %
11.08.2019 03:44 17,7 C 24,4 C 16,7 C 96 % 1018,4 hPa 0,0 l/m 1,7 km/h (1 Bft) N-NW 334 0 min 0,000 mm 0,0 UV-I 0 W/m 17,1 C 17,7 C 3,2 km/h (1 Bft) 97,22 %
11.08.2019 03:46 17,7 C 24,4 C 17,2 C 96 % 1018,4 hPa 0,0 l/m 2,5 km/h (1 Bft) N-NW 334 0 min 0,000 mm 0,0 UV-I 0 W/m 17,1 C 17,7 C 3,2 km/h (1 Bft) 98,00 %
11.08.2019 03:48 17,7 C 24,4 C 17,2 C 96 % 1018,4 hPa 0,0 l/m 2,0 km/h (1 Bft) N-NW 334 0 min 0,000 mm 0,0 UV-I 0 W/m 17,1 C 17,7 C 3,2 km/h (1 Bft) 94,00 %
11.08.2019 03:50 17,7 C 24,4 C 17,2 C 96 % 1018,4 hPa 0,0 l/m 2,1 km/h (1 Bft) N-NW 334 0 min 0,000 mm 0,0 UV-I 0 W/m 17,1 C 17,7 C 3,2 km/h (1 Bft) 95,83 %
11.08.2019 03:52 17,7 C 24,4 C 17,8 C 96 % 1018,4 hPa 0,0 l/m 2,3 km/h (1 Bft) N-NW 333 0 min 0,000 mm 0,0 UV-I 0 W/m 17,1 C 17,7 C 3,2 km/h (1 Bft) 93,62 %
11.08.2019 03:54 17,6 C 24,4 C 17,8 C 96 % 1018,3 hPa 0,0 l/m 1,4 km/h (1 Bft) N-NW 333 0 min 0,000 mm 0,0 UV-I 0 W/m 17,0 C 17,6 C 3,2 km/h (1 Bft) 95,74 %
11.08.2019 03:56 17,6 C 24,4 C 17,8 C 96 % 1018,3 hPa 0,0 l/m 2,0 km/h (1 Bft) SW 226 0 min 0,000 mm 0,0 UV-I 0 W/m 17,0 C 17,6 C 3,2 km/h (1 Bft) 98,00 %
11.08.2019 03:58 17,6 C 24,4 C 17,8 C 96 % 1018,3 hPa 0,0 l/m 0,5 km/h (0 Bft) SW 226 0 min 0,000 mm 0,0 UV-I 0 W/m 17,0 C 17,6 C 1,6 km/h (1 Bft) 100,00 %
11.08.2019 04:00 17,7 C 24,4 C 17,8 C 97 % 1018,3 hPa 0,0 l/m 0,7 km/h (0 Bft) SW 226 0 min 0,000 mm 0,0 UV-I 0 W/m 17,2 C 17,7 C 1,6 km/h (1 Bft) 100,00 %
11.08.2019 04:02 17,7 C 24,4 C 17,8 C 97 % 1018,3 hPa 0,0 l/m 1,9 km/h (1 Bft) SW 226 0 min 0,000 mm 0,0 UV-I 0 W/m 17,2 C 17,7 C 3,2 km/h (1 Bft) 100,00 %
11.08.2019 04:04 17,7 C 24,4 C 17,8 C 97 % 1018,3 hPa 0,0 l/m 1,1 km/h (1 Bft) SW 226 0 min 0,000 mm 0,0 UV-I 0 W/m 17,2 C 17,7 C 3,2 km/h (1 Bft) 97,37 %
11.08.2019 04:06 17,7 C 24,4 C 17,8 C 97 % 1018,3 hPa 0,0 l/m 0,2 km/h (0 Bft) SW 226 0 min 0,000 mm 0,0 UV-I 0 W/m 17,2 C 17,7 C 1,6 km/h (1 Bft) 100,00 %
11.08.2019 04:08 17,7 C 24,4 C 17,8 C 97 % 1018,2 hPa 0,0 l/m 0,0 km/h (0 Bft) SW 226 0 min 0,000 mm 0,0 UV-I 0 W/m 17,2 C 17,7 C 0,0 km/h (0 Bft) 100,00 %
11.08.2019 04:10 17,7 C 24,4 C 17,8 C 97 % 1018,2 hPa 0,0 l/m 0,0 km/h (0 Bft) SW 226 0 min 0,000 mm 0,0 UV-I 0 W/m 17,2 C 17,7 C 0,0 km/h (0 Bft) 100,00 %
11.08.2019 04:12 17,7 C 24,4 C 17,8 C 97 % 1018,2 hPa 0,0 l/m 0,0 km/h (0 Bft) SW 226 0 min 0,000 mm 0,0 UV-I 0 W/m 17,2 C 17,7 C 0,0 km/h (0 Bft) 100,00 %
11.08.2019 04:14 17,7 C 24,4 C 17,8 C 97 % 1018,2 hPa 0,0 l/m 0,0 km/h (0 Bft) SW 226 0 min 0,000 mm 0,0 UV-I 0 W/m 17,2 C 17,7 C 0,0 km/h (0 Bft) 100,00 %
11.08.2019 04:16 17,7 C 24,4 C 17,8 C 97 % 1018,1 hPa 0,0 l/m 0,0 km/h (0 Bft) SW 226 0 min 0,000 mm 0,0 UV-I 0 W/m 17,2 C 17,7 C 0,0 km/h (0 Bft) 100,00 %
11.08.2019 04:18 17,7 C 24,4 C 17,8 C 96 % 1018,2 hPa 0,0 l/m 0,0 km/h (0 Bft) SW 226 0 min 0,000 mm 0,0 UV-I 0 W/m 17,1 C 17,7 C 0,0 km/h (0 Bft) 100,00 %
11.08.2019 04:20 17,7 C 24,4 C 17,8 C 96 % 1018,2 hPa 0,0 l/m 0,0 km/h (0 Bft) SW 226 0 min 0,000 mm 0,0 UV-I 0 W/m 17,1 C 17,7 C 0,0 km/h (0 Bft) 97,87 %
11.08.2019 04:22 17,7 C 24,4 C 17,8 C 96 % 1018,1 hPa 0,0 l/m 0,0 km/h (0 Bft) SW 226 0 min 0,000 mm 0,0 UV-I 0 W/m 17,1 C 17,7 C 0,0 km/h (0 Bft) 95,83 %
11.08.2019 04:24 17,7 C 24,4 C 17,8 C 96 % 1018,1 hPa 0,0 l/m 0,0 km/h (0 Bft) SW 226 0 min 0,000 mm 0,0 UV-I 0 W/m 17,1 C 17,7 C 0,0 km/h (0 Bft) 95,74 %
11.08.2019 04:26 17,7 C 24,4 C 17,8 C 96 % 1018,1 hPa 0,0 l/m 0,0 km/h (0 Bft) SW 226 0 min 0,000 mm 0,0 UV-I 0 W/m 17,1 C 17,7 C 0,0 km/h (0 Bft) 98,00 %
11.08.2019 04:28 17,7 C 24,4 C 17,8 C 96 % 1018,2 hPa 0,0 l/m 0,0 km/h (0 Bft) SW 226 0 min 0,000 mm 0,0 UV-I 0 W/m 17,1 C 17,7 C 0,0 km/h (0 Bft) 95,74 %
11.08.2019 04:30 17,7 C 24,4 C 17,8 C 96 % 1018,2 hPa 0,0 l/m 0,0 km/h (0 Bft) SW 226 0 min 0,000 mm 0,0 UV-I 0 W/m 17,1 C 17,7 C 0,0 km/h (0 Bft) 93,62 %
11.08.2019 04:32 17,6 C 24,4 C 17,8 C 96 % 1018,2 hPa 0,0 l/m 0,0 km/h (0 Bft) SW 226 0 min 0,000 mm 0,0 UV-I 0 W/m 17,0 C 17,6 C 0,0 km/h (0 Bft) 97,87 %
11.08.2019 04:34 17,6 C 24,4 C 17,8 C 96 % 1018,1 hPa 0,0 l/m 0,0 km/h (0 Bft) SW 226 0 min 0,000 mm 0,0 UV-I 0 W/m 17,0 C 17,6 C 0,0 km/h (0 Bft) 95,74 %
11.08.2019 04:36 17,6 C 24,4 C 17,8 C 96 % 1018,0 hPa 0,0 l/m 0,1 km/h (0 Bft) SW 226 0 min 0,000 mm 0,0 UV-I 0 W/m 17,0 C 17,6 C 1,6 km/h (1 Bft) 91,49 %
11.08.2019 04:38 17,6 C 24,4 C 17,8 C 96 % 1018,0 hPa 0,0 l/m 1,7 km/h (1 Bft) SW 226 0 min 0,000 mm 0,0 UV-I 0 W/m 17,0 C 17,6 C 3,2 km/h (1 Bft) 97,14 %
11.08.2019 04:40 17,6 C 24,4 C 17,8 C 96 % 1018,0 hPa 0,0 l/m 1,1 km/h (1 Bft) SW 226 0 min 0,000 mm 0,0 UV-I 0 W/m 17,0 C 17,6 C 3,2 km/h (1 Bft) 92,00 %
11.08.2019 04:42 17,6 C 24,4 C 17,8 C 96 % 1018,0 hPa 0,0 l/m 1,3 km/h (1 Bft) SW 226 0 min 0,000 mm 0,0 UV-I 0 W/m 17,0 C 17,6 C 1,6 km/h (1 Bft) 95,74 %
11.08.2019 04:44 17,6 C 24,4 C 17,8 C 96 % 1018,2 hPa 0,0 l/m 1,6 km/h (1 Bft) SW 226 0 min 0,000 mm 0,0 UV-I 0 W/m 17,0 C 17,6 C 3,2 km/h (1 Bft) 93,62 %
11.08.2019 04:46 17,6 C 24,4 C 17,8 C 96 % 1018,2 hPa 0,0 l/m 2,3 km/h (1 Bft) SW 226 0 min 0,000 mm 0,0 UV-I 0 W/m 17,0 C 17,6 C 3,2 km/h (1 Bft) 94,00 %
11.08.2019 04:48 17,6 C 24,4 C 17,8 C 96 % 1018,2 hPa 0,0 l/m 1,7 km/h (1 Bft) SW 226 0 min 0,000 mm 0,0 UV-I 0 W/m 17,0 C 17,6 C 3,2 km/h (1 Bft) 95,74 %
11.08.2019 04:50 17,5 C 24,4 C 17,8 C 96 % 1018,2 hPa 0,0 l/m 1,6 km/h (1 Bft) SW 226 0 min 0,000 mm 0,0 UV-I 0 W/m 16,9 C 17,5 C 3,2 km/h (1 Bft) 95,74 %
11.08.2019 04:52 17,5 C 24,4 C 17,2 C 96 % 1018,2 hPa 0,0 l/m 2,6 km/h (1 Bft) SW 226 0 min 0,000 mm 0,0 UV-I 0 W/m 16,9 C 17,5 C 3,2 km/h (1 Bft) 95,74 %
11.08.2019 04:54 17,5 C 24,4 C 17,2 C 95 % 1018,3 hPa 0,0 l/m 1,6 km/h (1 Bft) S 189 0 min 0,000 mm 0,0 UV-I 0 W/m 16,7 C 17,5 C 4,8 km/h (1 Bft) 96,00 %
11.08.2019 04:56 17,5 C 24,4 C 17,2 C 95 % 1018,2 hPa 0,0 l/m 1,2 km/h (1 Bft) S 189 0 min 0,000 mm 0,0 UV-I 0 W/m 16,7 C 17,5 C 3,2 km/h (1 Bft) 95,74 %
11.08.2019 04:58 17,5 C 24,4 C 16,7 C 95 % 1018,3 hPa 0,0 l/m 1,6 km/h (1 Bft) S 189 0 min 0,000 mm 0,0 UV-I 0 W/m 16,7 C 17,5 C 3,2 km/h (1 Bft) 95,74 %
11.08.2019 05:00 17,4 C 24,4 C 16,7 C 95 % 1018,2 hPa 0,0 l/m 1,2 km/h (1 Bft) S 189 0 min 0,000 mm 0,0 UV-I 0 W/m 16,6 C 17,4 C 1,6 km/h (1 Bft) 94,44 %
11.08.2019 05:02 17,4 C 24,4 C 16,1 C 95 % 1018,2 hPa 0,0 l/m 0,0 km/h (0 Bft) S 189 0 min 0,000 mm 0,0 UV-I 0 W/m 16,6 C 17,4 C 1,6 km/h (1 Bft) 89,09 %
11.08.2019 05:04 17,4 C 24,4 C 16,1 C 95 % 1018,2 hPa 0,0 l/m 0,0 km/h (0 Bft) S 189 0 min 0,000 mm 0,0 UV-I 0 W/m 16,6 C 17,4 C 0,0 km/h (0 Bft) 89,58 %
11.08.2019 05:06 17,3 C 24,4 C 16,1 C 95 % 1018,2 hPa 0,0 l/m 0,0 km/h (0 Bft) S 189 0 min 0,000 mm 0,0 UV-I 0 W/m 16,5 C 17,3 C 0,0 km/h (0 Bft) 91,49 %
11.08.2019 05:08 17,3 C 24,4 C 16,1 C 95 % 1018,2 hPa 0,0 l/m 0,0 km/h (0 Bft) S 189 0 min 0,000 mm 0,0 UV-I 0 W/m 16,5 C 17,3 C 0,0 km/h (0 Bft) 95,74 %
11.08.2019 05:10 17,3 C 24,4 C 16,1 C 95 % 1018,2 hPa 0,0 l/m 0,3 km/h (0 Bft) S 189 0 min 0,000 mm 0,0 UV-I 0 W/m 16,5 C 17,3 C 1,6 km/h (1 Bft) 93,62 %
11.08.2019 05:12 17,3 C 24,4 C 16,7 C 96 % 1018,2 hPa 0,0 l/m 1,5 km/h (1 Bft) S 189 0 min 0,000 mm 0,0 UV-I 0 W/m 16,7 C 17,3 C 3,2 km/h (1 Bft) 95,74 %
11.08.2019 05:14 17,3 C 24,4 C 16,7 C 96 % 1018,2 hPa 0,0 l/m 1,2 km/h (1 Bft) S 189 0 min 0,000 mm 0,0 UV-I 0 W/m 16,7 C 17,3 C 3,2 km/h (1 Bft) 92,68 %
11.08.2019 05:16 17,2 C 24,4 C 16,7 C 96 % 1018,2 hPa 0,0 l/m 0,7 km/h (0 Bft) S 189 0 min 0,000 mm 0,0 UV-I 0 W/m 16,6 C 17,2 C 1,6 km/h (1 Bft) 96,00 %
11.08.2019 05:18 17,2 C 24,4 C 17,2 C 96 % 1018,1 hPa 0,0 l/m 1,5 km/h (1 Bft) S 189 0 min 0,000 mm 0,0 UV-I 0 W/m 16,6 C 17,2 C 1,6 km/h (1 Bft) 95,74 %
11.08.2019 05:20 17,2 C 24,4 C 17,2 C 95 % 1018,2 hPa 0,0 l/m 1,6 km/h (1 Bft) S 189 0 min 0,000 mm 0,0 UV-I 0 W/m 16,4 C 17,2 C 3,2 km/h (1 Bft) 95,74 %
11.08.2019 05:22 17,2 C 24,4 C 17,2 C 96 % 1018,1 hPa 0,0 l/m 0,9 km/h (0 Bft) S 189 0 min 0,000 mm 0,0 UV-I 0 W/m 16,6 C 17,2 C 1,6 km/h (1 Bft) 95,74 %
11.08.2019 05:24 17,2 C 24,4 C 17,2 C 96 % 1018,2 hPa 0,0 l/m 0,0 km/h (0 Bft) S 189 0 min 0,000 mm 0,0 UV-I 0 W/m 16,6 C 17,2 C 1,6 km/h (1 Bft) 97,87 %
11.08.2019 05:26 17,2 C 24,4 C 17,2 C 96 % 1018,2 hPa 0,0 l/m 0,1 km/h (0 Bft) S 189 0 min 0,000 mm 0,0 UV-I 0 W/m 16,6 C 17,2 C 1,6 km/h (1 Bft) 100,00 %
11.08.2019 05:28 17,2 C 24,4 C 17,2 C 96 % 1018,2 hPa 0,0 l/m 0,2 km/h (0 Bft) S 189 0 min 0,000 mm 0,0 UV-I 0 W/m 16,6 C 17,2 C 1,6 km/h (1 Bft) 100,00 %
11.08.2019 05:30 17,2 C 24,4 C 17,2 C 96 % 1018,2 hPa 0,0 l/m 0,0 km/h (0 Bft) S 189 0 min 0,000 mm 0,0 UV-I 0 W/m 16,6 C 17,2 C 1,6 km/h (1 Bft) 100,00 %
11.08.2019 05:32 17,2 C 24,4 C 17,2 C 96 % 1018,2 hPa 0,0 l/m 0,0 km/h (0 Bft) S 189 0 min 0,000 mm 0,0 UV-I 0 W/m 16,6 C 17,2 C 0,0 km/h (0 Bft) 100,00 %
11.08.2019 05:34 17,3 C 24,4 C 17,2 C 96 % 1018,2 hPa 0,0 l/m 0,0 km/h (0 Bft) S 189 0 min 0,000 mm 0,0 UV-I 0 W/m 16,7 C 17,3 C 0,0 km/h (0 Bft) 100,00 %
11.08.2019 05:36 17,3 C 24,4 C 17,2 C 96 % 1018,2 hPa 0,0 l/m 0,0 km/h (0 Bft) S 189 0 min 0,000 mm 0,0 UV-I 0 W/m 16,7 C 17,3 C 0,0 km/h (0 Bft) 100,00 %
11.08.2019 05:38 17,3 C 24,4 C 17,2 C 96 % 1018,3 hPa 0,0 l/m 0,0 km/h (0 Bft) S 189 0 min 0,000 mm 0,0 UV-I 0 W/m 16,7 C 17,3 C 0,0 km/h (0 Bft) 100,00 %
11.08.2019 05:40 17,3 C 24,4 C 17,2 C 96 % 1018,3 hPa 0,0 l/m 0,0 km/h (0 Bft) S 189 0 min 0,000 mm 0,0 UV-I 0 W/m 16,7 C 17,3 C 0,0 km/h (0 Bft) 100,00 %
11.08.2019 05:42 17,3 C 24,4 C 17,2 C 96 % 1018,4 hPa 0,0 l/m 0,0 km/h (0 Bft) S 189 0 min 0,000 mm 0,0 UV-I 0 W/m 16,7 C 17,3 C 0,0 km/h (0 Bft) 97,92 %
11.08.2019 05:44 17,3 C 24,4 C 17,2 C 96 % 1018,4 hPa 0,0 l/m 0,0 km/h (0 Bft) S 189 0 min 0,000 mm 0,0 UV-I 0 W/m 16,7 C 17,3 C 0,0 km/h (0 Bft) 97,87 %
11.08.2019 05:46 17,3 C 24,4 C 17,8 C 96 % 1018,4 hPa 0,0 l/m 0,0 km/h (0 Bft) S 189 0 min 0,000 mm 0,0 UV-I 0 W/m 16,7 C 17,3 C 0,0 km/h (0 Bft) 97,87 %
11.08.2019 05:48 17,3 C 24,4 C 17,8 C 96 % 1018,4 hPa 0,0 l/m 0,0 km/h (0 Bft) S 189 0 min 0,000 mm 0,0 UV-I 0 W/m 16,7 C 17,3 C 0,0 km/h (0 Bft) 100,00 %
11.08.2019 05:50 17,3 C 24,4 C 17,8 C 96 % 1018,5 hPa 0,0 l/m 0,0 km/h (0 Bft) S 189 0 min 0,000 mm 0,0 UV-I 0 W/m 16,7 C 17,3 C 0,0 km/h (0 Bft) 100,00 %
11.08.2019 05:52 17,4 C 24,4 C 17,8 C 96 % 1018,5 hPa 0,0 l/m 0,9 km/h (0 Bft) S 189 0 min 0,000 mm 0,0 UV-I 0 W/m 16,8 C 17,4 C 1,6 km/h (1 Bft) 100,00 %
11.08.2019 05:54 17,4 C 24,4 C 17,8 C 96 % 1018,5 hPa 0,0 l/m 0,6 km/h (0 Bft) S 189 0 min 0,000 mm 0,0 UV-I 2 W/m 16,8 C 17,4 C 1,6 km/h (1 Bft) 97,87 %
11.08.2019 05:56 17,4 C 24,4 C 17,8 C 96 % 1018,5 hPa 0,0 l/m 1,6 km/h (1 Bft) S 189 0 min 0,000 mm 0,0 UV-I 5 W/m 16,8 C 17,4 C 3,2 km/h (1 Bft) 100,00 %
11.08.2019 05:58 17,4 C 24,4 C 17,8 C 96 % 1018,6 hPa 0,0 l/m 1,5 km/h (1 Bft) S 189 0 min 0,000 mm 0,0 UV-I 5 W/m 16,8 C 17,4 C 3,2 km/h (1 Bft) 100,00 %
11.08.2019 06:00 17,3 C 24,4 C 17,8 C 96 % 1018,6 hPa 0,0 l/m 2,5 km/h (1 Bft) S 189 0 min 0,000 mm 0,0 UV-I 5 W/m 16,7 C 17,3 C 3,2 km/h (1 Bft) 100,00 %
11.08.2019 06:02 17,4 C 24,4 C 17,8 C 96 % 1018,6 hPa 0,0 l/m 2,6 km/h (1 Bft) S 189 0 min 0,000 mm 0,0 UV-I 6 W/m 16,8 C 17,4 C 3,2 km/h (1 Bft) 98,11 %
11.08.2019 06:04 17,4 C 24,4 C 17,8 C 96 % 1018,5 hPa 0,0 l/m 3,5 km/h (1 Bft) S 188 0 min 0,000 mm 0,0 UV-I 7 W/m 16,8 C 17,4 C 4,8 km/h (1 Bft) 100,00 %
11.08.2019 06:06 17,5 C 24,4 C 17,8 C 96 % 1018,6 hPa 0,0 l/m 2,5 km/h (1 Bft) S 188 0 min 0,000 mm 0,0 UV-I 7 W/m 16,9 C 17,5 C 4,8 km/h (1 Bft) 100,00 %
11.08.2019 06:08 17,5 C 24,4 C 17,8 C 96 % 1018,6 hPa 0,0 l/m 3,2 km/h (1 Bft) S 188 0 min 0,000 mm 0,0 UV-I 7 W/m 16,9 C 17,5 C 4,8 km/h (1 Bft) 100,00 %
11.08.2019 06:10 17,4 C 24,4 C 17,8 C 96 % 1018,6 hPa 0,0 l/m 3,4 km/h (1 Bft) S 188 0 min 0,000 mm 0,0 UV-I 9 W/m 16,8 C 17,4 C 4,8 km/h (1 Bft) 100,00 %
11.08.2019 06:12 17,4 C 24,4 C 17,8 C 96 % 1018,6 hPa 0,0 l/m 1,9 km/h (1 Bft) S 188 0 min 0,000 mm 0,0 UV-I 9 W/m 16,8 C 17,4 C 3,2 km/h (1 Bft) 100,00 %
11.08.2019 06:14 17,3 C 24,4 C 17,8 C 96 % 1018,7 hPa 0,0 l/m 0,0 km/h (0 Bft) S 188 0 min 0,000 mm 0,0 UV-I 9 W/m 16,7 C 17,3 C 1,6 km/h (1 Bft) 97,87 %
11.08.2019 06:16 17,4 C 24,4 C 17,8 C 96 % 1018,7 hPa 0,0 l/m 0,8 km/h (0 Bft) S 188 0 min 0,000 mm 0,0 UV-I 9 W/m 16,8 C 17,4 C 1,6 km/h (1 Bft) 97,87 %
11.08.2019 06:18 17,4 C 24,4 C 17,8 C 96 % 1018,6 hPa 0,0 l/m 0,9 km/h (0 Bft) S 188 0 min 0,000 mm 0,0 UV-I 10 W/m 16,8 C 17,4 C 1,6 km/h (1 Bft) 94,87 %
11.08.2019 06:20 17,4 C 24,4 C 17,8 C 96 % 1018,6 hPa 0,0 l/m 1,7 km/h (1 Bft) S 188 0 min 0,000 mm 0,0 UV-I 11 W/m 16,8 C 17,4 C 3,2 km/h (1 Bft) 97,87 %
11.08.2019 06:22 17,6 C 24,4 C 17,8 C 96 % 1018,6 hPa 0,0 l/m 2,6 km/h (1 Bft) S 188 0 min 0,000 mm 0,0 UV-I 11 W/m 17,0 C 17,6 C 4,8 km/h (1 Bft) 97,87 %
11.08.2019 06:24 17,5 C 24,4 C 17,8 C 96 % 1018,6 hPa 0,0 l/m 2,3 km/h (1 Bft) S 188 0 min 0,000 mm 0,0 UV-I 12 W/m 16,9 C 17,5 C 3,2 km/h (1 Bft) 100,00 %
11.08.2019 06:26 17,4 C 24,4 C 17,8 C 96 % 1018,6 hPa 0,0 l/m 1,1 km/h (1 Bft) S 188 0 min 0,000 mm 0,0 UV-I 12 W/m 16,8 C 17,4 C 3,2 km/h (1 Bft) 100,00 %
11.08.2019 06:28 17,4 C 24,4 C 17,8 C 96 % 1018,6 hPa 0,0 l/m 0,0 km/h (0 Bft) S 188 0 min 0,000 mm 0,0 UV-I 12 W/m 16,8 C 17,4 C 0,0 km/h (0 Bft) 97,87 %
11.08.2019 06:30 17,4 C 24,4 C 17,8 C 96 % 1018,6 hPa 0,0 l/m 0,3 km/h (0 Bft) S 188 0 min 0,000 mm 0,0 UV-I 11 W/m 16,8 C 17,4 C 1,6 km/h (1 Bft) 93,62 %
11.08.2019 06:32 17,4 C 24,4 C 17,8 C 96 % 1018,7 hPa 0,0 l/m 0,0 km/h (0 Bft) S 188 0 min 0,000 mm 0,0 UV-I 11 W/m 16,8 C 17,4 C 0,0 km/h (0 Bft) 95,74 %
11.08.2019 06:34 17,5 C 24,4 C 17,8 C 96 % 1018,6 hPa 0,0 l/m 0,5 km/h (0 Bft) S 188 0 min 0,000 mm 0,0 UV-I 11 W/m 16,9 C 17,5 C 1,6 km/h (1 Bft) 95,74 %
11.08.2019 06:36 17,6 C 24,4 C 17,8 C 96 % 1018,7 hPa 0,0 l/m 0,9 km/h (0 Bft) S 188 0 min 0,000 mm 0,0 UV-I 11 W/m 17,0 C 17,6 C 1,6 km/h (1 Bft) 95,74 %
11.08.2019 06:38 17,6 C 24,4 C 17,8 C 96 % 1018,7 hPa 0,0 l/m 0,0 km/h (0 Bft) S 188 0 min 0,000 mm 0,0 UV-I 10 W/m 17,0 C 17,6 C 0,0 km/h (0 Bft) 93,62 %
11.08.2019 06:40 17,6 C 24,4 C 17,8 C 96 % 1018,6 hPa 0,0 l/m 0,0 km/h (0 Bft) S 188 0 min 0,000 mm 0,0 UV-I 9 W/m 17,0 C 17,6 C 0,0 km/h (0 Bft) 91,49 %
11.08.2019 06:42 17,6 C 24,4 C 17,8 C 96 % 1018,7 hPa 0,0 l/m 0,0 km/h (0 Bft) S 188 0 min 0,000 mm 0,0 UV-I 10 W/m 17,0 C 17,6 C 0,0 km/h (0 Bft) 93,62 %
11.08.2019 06:44 17,6 C 24,4 C 17,8 C 96 % 1018,7 hPa 0,0 l/m 0,0 km/h (0 Bft) S 188 0 min 0,000 mm 0,0 UV-I 11 W/m 17,0 C 17,6 C 0,0 km/h (0 Bft) 93,62 %
11.08.2019 06:46 17,6 C 24,4 C 17,8 C 96 % 1018,7 hPa 0,0 l/m 0,0 km/h (0 Bft) S 188 0 min 0,000 mm 0,0 UV-I 13 W/m 17,0 C 17,6 C 1,6 km/h (1 Bft) 96,00 %
11.08.2019 06:48 17,6 C 24,4 C 17,8 C 96 % 1018,7 hPa 0,0 l/m 0,5 km/h (0 Bft) S 188 0 min 0,000 mm 0,0 UV-I 15 W/m 17,0 C 17,6 C 1,6 km/h (1 Bft) 93,62 %
11.08.2019 06:50 17,6 C 24,4 C 17,8 C 96 % 1018,6 hPa 0,0 l/m 0,0 km/h (0 Bft) S 188 0 min 0,000 mm 0,0 UV-I 19 W/m 17,0 C 17,6 C 0,0 km/h (0 Bft) 92,00 %
11.08.2019 06:52 17,6 C 24,4 C 17,8 C 96 % 1018,6 hPa 0,0 l/m 0,0 km/h (0 Bft) S 188 0 min 0,000 mm 0,0 UV-I 22 W/m 17,0 C 17,6 C 0,0 km/h (0 Bft) 95,74 %
11.08.2019 06:54 17,6 C 24,4 C 18,3 C 96 % 1018,6 hPa 0,0 l/m 0,2 km/h (0 Bft) S 188 0 min 0,000 mm 0,0 UV-I 26 W/m 17,0 C 17,6 C 1,6 km/h (1 Bft) 97,37 %
11.08.2019 06:56 17,6 C 24,4 C 18,3 C 97 % 1018,6 hPa 0,0 l/m 1,6 km/h (1 Bft) S 188 0 min 0,000 mm 0,0 UV-I 28 W/m 17,1 C 17,6 C 1,6 km/h (1 Bft) 95,74 %
11.08.2019 06:58 17,6 C 24,4 C 18,3 C 96 % 1018,6 hPa 0,0 l/m 1,0 km/h (0 Bft) S 188 0 min 0,000 mm 0,0 UV-I 30 W/m 17,0 C 17,6 C 1,6 km/h (1 Bft) 95,74 %
11.08.2019 07:00 17,6 C 24,4 C 18,3 C 96 % 1018,6 hPa 0,0 l/m 1,0 km/h (0 Bft) S 188 0 min 0,000 mm 0,0 UV-I 30 W/m 17,0 C 17,6 C 1,6 km/h (1 Bft) 95,74 %
11.08.2019 07:02 17,6 C 24,4 C 18,3 C 96 % 1018,5 hPa 0,0 l/m 1,9 km/h (1 Bft) S 188 0 min 0,000 mm 0,0 UV-I 30 W/m 17,0 C 17,6 C 3,2 km/h (1 Bft) 92,00 %
11.08.2019 07:04 17,6 C 24,4 C 18,3 C 96 % 1018,5 hPa 0,0 l/m 3,4 km/h (1 Bft) SO 140 0 min 0,000 mm 0,0 UV-I 30 W/m 17,0 C 17,6 C 4,8 km/h (1 Bft) 100,00 %
11.08.2019 07:06 17,6 C 24,4 C 18,3 C 96 % 1018,5 hPa 0,0 l/m 3,2 km/h (1 Bft) O-SO 118 0 min 0,000 mm 0,0 UV-I 28 W/m 17,0 C 17,6 C 4,8 km/h (1 Bft) 97,87 %
11.08.2019 07:08 17,6 C 24,4 C 18,3 C 96 % 1018,6 hPa 0,0 l/m 2,8 km/h (1 Bft) O-SO 118 0 min 0,000 mm 0,0 UV-I 30 W/m 17,0 C 17,6 C 4,8 km/h (1 Bft) 100,00 %
11.08.2019 07:10 17,6 C 24,4 C 18,3 C 96 % 1018,7 hPa 0,0 l/m 1,2 km/h (1 Bft) O-SO 118 0 min 0,000 mm 0,0 UV-I 30 W/m 17,0 C 17,6 C 3,2 km/h (1 Bft) 100,00 %
11.08.2019 07:12 17,6 C 24,4 C 18,3 C 96 % 1018,6 hPa 0,0 l/m 1,9 km/h (1 Bft) O-SO 118 0 min 0,000 mm 0,0 UV-I 32 W/m 17,0 C 17,6 C 3,2 km/h (1 Bft) 95,74 %
11.08.2019 07:14 17,7 C 24,4 C 18,3 C 97 % 1018,6 hPa 0,0 l/m 2,0 km/h (1 Bft) O-SO 118 0 min 0,000 mm 0,0 UV-I 34 W/m 17,2 C 17,7 C 3,2 km/h (1 Bft) 100,00 %
11.08.2019 07:16 17,7 C 24,4 C 18,3 C 97 % 1018,6 hPa 0,0 l/m 2,5 km/h (1 Bft) O-SO 118 0 min 0,000 mm 0,0 UV-I 38 W/m 17,2 C 17,7 C 4,8 km/h (1 Bft) 98,00 %
11.08.2019 07:18 17,8 C 24,4 C 18,3 C 97 % 1018,6 hPa 0,0 l/m 1,2 km/h (1 Bft) O-SO 118 0 min 0,000 mm 0,0 UV-I 42 W/m 17,3 C 17,8 C 1,6 km/h (1 Bft) 100,00 %
11.08.2019 07:20 17,7 C 24,4 C 18,3 C 96 % 1018,7 hPa 0,0 l/m 0,8 km/h (0 Bft) O-SO 118 0 min 0,000 mm 0,0 UV-I 45 W/m 17,1 C 17,7 C 1,6 km/h (1 Bft) 100,00 %
11.08.2019 07:22 17,7 C 24,4 C 18,3 C 96 % 1018,7 hPa 0,0 l/m 1,5 km/h (1 Bft) O-SO 118 0 min 0,000 mm 0,0 UV-I 49 W/m 17,1 C 17,7 C 3,2 km/h (1 Bft) 97,87 %
11.08.2019 07:24 17,7 C 24,4 C 18,9 C 96 % 1018,7 hPa 0,0 l/m 0,2 km/h (0 Bft) O-SO 118 0 min 0,000 mm 0,0 UV-I 52 W/m 17,1 C 17,7 C 1,6 km/h (1 Bft) 98,00 %
11.08.2019 07:26 17,7 C 24,4 C 18,9 C 96 % 1018,7 hPa 0,0 l/m 1,6 km/h (1 Bft) O-SO 118 0 min 0,000 mm 0,0 UV-I 54 W/m 17,1 C 17,7 C 3,2 km/h (1 Bft) 100,00 %
11.08.2019 07:28 17,7 C 24,4 C 18,9 C 96 % 1018,7 hPa 0,0 l/m 1,3 km/h (1 Bft) O-SO 118 0 min 0,000 mm 0,0 UV-I 52 W/m 17,1 C 17,7 C 1,6 km/h (1 Bft) 97,87 %
11.08.2019 07:30 17,8 C 24,4 C 18,9 C 96 % 1018,7 hPa 0,0 l/m 2,2 km/h (1 Bft) O-SO 118 0 min 0,000 mm 0,0 UV-I 49 W/m 17,2 C 17,8 C 4,8 km/h (1 Bft) 100,00 %
11.08.2019 07:32 17,7 C 24,4 C 18,9 C 96 % 1018,7 hPa 0,0 l/m 4,4 km/h (1 Bft) SO 136 0 min 0,000 mm 0,0 UV-I 54 W/m 17,1 C 17,7 C 6,4 km/h (2 Bft) 95,74 %
11.08.2019 07:34 17,8 C 24,4 C 18,9 C 95 % 1018,6 hPa 0,0 l/m 2,2 km/h (1 Bft) SO 136 0 min 0,000 mm 0,0 UV-I 65 W/m 17,0 C 17,8 C 4,8 km/h (1 Bft) 100,00 %
11.08.2019 07:36 17,8 C 24,4 C 18,9 C 95 % 1018,6 hPa 0,0 l/m 3,5 km/h (1 Bft) SO 136 0 min 0,000 mm 0,0 UV-I 69 W/m 17,0 C 17,8 C 4,8 km/h (1 Bft) 98,11 %
11.08.2019 07:38 17,8 C 24,4 C 18,9 C 95 % 1018,5 hPa 0,0 l/m 3,4 km/h (1 Bft) SO 136 0 min 0,000 mm 0,0 UV-I 69 W/m 17,0 C 17,8 C 4,8 km/h (1 Bft) 97,87 %
11.08.2019 07:40 17,8 C 24,4 C 18,9 C 95 % 1018,5 hPa 0,0 l/m 3,5 km/h (1 Bft) SO 135 0 min 0,000 mm 0,0 UV-I 70 W/m 17,0 C 17,8 C 4,8 km/h (1 Bft) 100,00 %
11.08.2019 07:42 17,8 C 24,4 C 18,9 C 95 % 1018,5 hPa 0,0 l/m 3,0 km/h (1 Bft) SO 135 0 min 0,000 mm 0,0 UV-I 75 W/m 17,0 C 17,8 C 4,8 km/h (1 Bft) 100,00 %
11.08.2019 07:44 17,9 C 24,4 C 18,9 C 95 % 1018,5 hPa 0,0 l/m 2,2 km/h (1 Bft) SO 135 0 min 0,000 mm 0,0 UV-I 81 W/m 17,1 C 17,9 C 4,8 km/h (1 Bft) 100,00 %
11.08.2019 07:46 17,9 C 24,4 C 19,4 C 94 % 1018,6 hPa 0,0 l/m 0,8 km/h (0 Bft) SO 135 0 min 0,000 mm 0,0 UV-I 86 W/m 16,9 C 17,9 C 1,6 km/h (1 Bft) 100,00 %
11.08.2019 07:48 17,9 C 24,4 C 19,4 C 94 % 1018,6 hPa 0,0 l/m 0,1 km/h (0 Bft) SO 135 0 min 0,000 mm 0,0 UV-I 90 W/m 16,9 C 17,9 C 1,6 km/h (1 Bft) 95,74 %
11.08.2019 07:50 18,1 C 24,4 C 19,4 C 94 % 1018,6 hPa 0,0 l/m 2,5 km/h (1 Bft) SO 135 0 min 0,000 mm 0,0 UV-I 87 W/m 17,1 C 18,1 C 4,8 km/h (1 Bft) 100,00 %
11.08.2019 07:52 18,1 C 24,4 C 19,4 C 94 % 1018,6 hPa 0,0 l/m 3,4 km/h (1 Bft) SO 134 0 min 0,000 mm 0,0 UV-I 80 W/m 17,1 C 18,1 C 4,8 km/h (1 Bft) 100,00 %
11.08.2019 07:54 18,1 C 24,4 C 19,4 C 94 % 1018,6 hPa 0,0 l/m 2,8 km/h (1 Bft) SO 135 0 min 0,000 mm 0,0 UV-I 78 W/m 17,1 C 18,1 C 3,2 km/h (1 Bft) 100,00 %
11.08.2019 07:56 18,2 C 24,4 C 19,4 C 94 % 1018,6 hPa 0,0 l/m 2,4 km/h (1 Bft) SO 135 0 min 0,000 mm 0,0 UV-I 77 W/m 17,2 C 18,2 C 4,8 km/h (1 Bft) 100,00 %
11.08.2019 07:58 18,2 C 24,4 C 19,4 C 94 % 1018,5 hPa 0,0 l/m 2,7 km/h (1 Bft) SO 135 0 min 0,000 mm 0,0 UV-I 77 W/m 17,2 C 18,2 C 4,8 km/h (1 Bft) 97,87 %
11.08.2019 08:00 18,2 C 24,4 C 19,4 C 95 % 1018,6 hPa 0,0 l/m 0,3 km/h (0 Bft) SO 135 0 min 0,025 mm 0,0 UV-I 80 W/m 17,4 C 18,2 C 1,6 km/h (1 Bft) 97,96 %
11.08.2019 08:02 18,3 C 24,4 C 19,4 C 95 % 1018,6 hPa 0,0 l/m 0,4 km/h (0 Bft) SO 135 0 min 0,000 mm 0,0 UV-I 87 W/m 17,5 C 18,3 C 3,2 km/h (1 Bft) 95,74 %
11.08.2019 08:04 18,3 C 24,4 C 20,0 C 95 % 1018,6 hPa 0,0 l/m 2,3 km/h (1 Bft) SO 135 0 min 0,000 mm 0,0 UV-I 101 W/m 17,5 C 18,3 C 3,2 km/h (1 Bft) 98,00 %
11.08.2019 08:06 18,4 C 24,4 C 20,0 C 95 % 1018,7 hPa 0,0 l/m 1,6 km/h (1 Bft) SO 135 0 min 0,000 mm 0,0 UV-I 114 W/m 17,6 C 18,4 C 3,2 km/h (1 Bft) 94,59 %
11.08.2019 08:08 18,4 C 24,4 C 20,0 C 94 % 1018,6 hPa 0,0 l/m 1,8 km/h (1 Bft) SO 135 0 min 0,000 mm 0,0 UV-I 125 W/m 17,4 C 18,4 C 3,2 km/h (1 Bft) 94,00 %
11.08.2019 08:10 18,4 C 24,4 C 20,0 C 94 % 1018,6 hPa 0,0 l/m 3,2 km/h (1 Bft) SO 134 0 min 0,000 mm 0,0 UV-I 132 W/m 17,4 C 18,4 C 4,8 km/h (1 Bft) 95,83 %
11.08.2019 08:12 18,4 C 24,4 C 20,6 C 94 % 1018,5 hPa 0,0 l/m 3,4 km/h (1 Bft) SO 134 0 min 0,000 mm 0,0 UV-I 133 W/m 17,4 C 18,4 C 4,8 km/h (1 Bft) 95,74 %
11.08.2019 08:14 18,4 C 24,4 C 20,6 C 94 % 1018,5 hPa 0,0 l/m 4,3 km/h (1 Bft) O-NO 78 0 min 0,000 mm 0,0 UV-I 121 W/m 17,4 C 18,4 C 6,4 km/h (2 Bft) 94,00 %
11.08.2019 08:16 18,4 C 24,4 C 20,6 C 94 % 1018,5 hPa 0,0 l/m 4,1 km/h (1 Bft) O-NO 78 0 min 0,000 mm 0,0 UV-I 114 W/m 17,4 C 18,4 C 6,4 km/h (2 Bft) 91,49 %
11.08.2019 08:18 18,4 C 24,4 C 20,6 C 94 % 1018,5 hPa 0,0 l/m 4,5 km/h (1 Bft) O 97 0 min 0,000 mm 0,0 UV-I 131 W/m 17,4 C 18,4 C 6,4 km/h (2 Bft) 91,49 %
11.08.2019 08:20 18,4 C 24,4 C 20,6 C 94 % 1018,4 hPa 0,0 l/m 4,2 km/h (1 Bft) O 97 0 min 0,000 mm 0,4 UV-I 135 W/m 17,4 C 18,4 C 6,4 km/h (2 Bft) 95,74 %
11.08.2019 08:22 18,6 C 24,4 C 21,1 C 94 % 1018,4 hPa 0,0 l/m 3,1 km/h (1 Bft) S-SO 167 0 min 0,000 mm 0,6 UV-I 154 W/m 17,6 C 18,6 C 6,4 km/h (2 Bft) 96,00 %
11.08.2019 08:24 18,6 C 24,4 C 21,1 C 94 % 1018,4 hPa 0,0 l/m 2,5 km/h (1 Bft) SO 142 0 min 0,000 mm 0,6 UV-I 167 W/m 17,6 C 18,6 C 6,4 km/h (2 Bft) 95,74 %
11.08.2019 08:26 18,7 C 24,4 C 21,1 C 94 % 1018,4 hPa 0,0 l/m 2,5 km/h (1 Bft) SO 141 0 min 0,000 mm 0,6 UV-I 171 W/m 17,7 C 18,7 C 4,8 km/h (1 Bft) 94,59 %
11.08.2019 08:28 18,7 C 24,4 C 21,1 C 93 % 1018,4 hPa 0,0 l/m 4,5 km/h (1 Bft) O 94 0 min 0,000 mm 0,6 UV-I 163 W/m 17,5 C 18,7 C 6,4 km/h (2 Bft) 95,74 %
11.08.2019 08:30 18,7 C 24,4 C 21,1 C 93 % 1018,4 hPa 0,0 l/m 3,4 km/h (1 Bft) O 92 0 min 0,000 mm 0,6 UV-I 152 W/m 17,5 C 18,7 C 4,8 km/h (1 Bft) 95,74 %
11.08.2019 08:32 18,8 C 24,4 C 21,1 C 93 % 1018,4 hPa 0,0 l/m 4,5 km/h (1 Bft) O 92 0 min 0,000 mm 0,7 UV-I 154 W/m 17,6 C 18,8 C 6,4 km/h (2 Bft) 95,74 %
11.08.2019 08:34 18,8 C 24,4 C 21,1 C 93 % 1018,4 hPa 0,0 l/m 4,1 km/h (1 Bft) O 82 0 min 0,000 mm 0,7 UV-I 163 W/m 17,6 C 18,8 C 6,4 km/h (2 Bft) 95,74 %
11.08.2019 08:36 18,8 C 24,4 C 21,1 C 92 % 1018,4 hPa 0,0 l/m 4,4 km/h (1 Bft) O-NO 78 0 min 0,000 mm 0,8 UV-I 181 W/m 17,5 C 18,8 C 6,4 km/h (2 Bft) 95,74 %
11.08.2019 08:38 18,9 C 24,4 C 21,1 C 92 % 1018,4 hPa 0,0 l/m 4,1 km/h (1 Bft) O 92 0 min 0,000 mm 0,8 UV-I 193 W/m 17,6 C 18,9 C 4,8 km/h (1 Bft) 93,62 %
11.08.2019 08:40 18,9 C 24,4 C 21,7 C 92 % 1018,3 hPa 0,0 l/m 3,3 km/h (1 Bft) O 92 0 min 0,000 mm 0,9 UV-I 207 W/m 17,6 C 18,9 C 4,8 km/h (1 Bft) 92,00 %
11.08.2019 08:42 19,0 C 24,4 C 21,7 C 92 % 1018,2 hPa 0,0 l/m 3,7 km/h (1 Bft) O 91 0 min 0,000 mm 0,9 UV-I 231 W/m 17,7 C 19,0 C 6,4 km/h (2 Bft) 92,00 %
11.08.2019 08:44 19,1 C 24,4 C 22,2 C 91 % 1018,2 hPa 0,0 l/m 3,5 km/h (1 Bft) O 90 2 min 0,000 mm 1,0 UV-I 249 W/m 17,6 C 19,1 C 4,8 km/h (1 Bft) 91,49 %
11.08.2019 08:46 19,1 C 24,4 C 22,2 C 92 % 1018,2 hPa 0,0 l/m 4,4 km/h (1 Bft) O 90 2 min 0,000 mm 1,0 UV-I 265 W/m 17,8 C 19,1 C 6,4 km/h (2 Bft) 95,74 %
11.08.2019 08:48 19,2 C 24,4 C 22,2 C 92 % 1018,2 hPa 0,0 l/m 5,2 km/h (1 Bft) O-NO 78 2 min 0,000 mm 1,0 UV-I 263 W/m 17,9 C 19,2 C 9,7 km/h (2 Bft) 97,87 %
11.08.2019 08:50 19,2 C 24,4 C 22,2 C 91 % 1018,2 hPa 0,0 l/m 4,0 km/h (1 Bft) O 85 0 min 0,000 mm 1,0 UV-I 241 W/m 17,7 C 19,2 C 6,4 km/h (2 Bft) 95,74 %
11.08.2019 08:52 19,3 C 24,4 C 21,7 C 91 % 1018,1 hPa 0,0 l/m 5,3 km/h (1 Bft) O-NO 75 0 min 0,000 mm 1,0 UV-I 222 W/m 17,8 C 19,3 C 8,0 km/h (2 Bft) 94,87 %
11.08.2019 08:54 19,3 C 24,4 C 21,7 C 91 % 1018,0 hPa 0,0 l/m 3,8 km/h (1 Bft) O 88 0 min 0,000 mm 1,0 UV-I 218 W/m 17,8 C 19,3 C 6,4 km/h (2 Bft) 96,00 %
11.08.2019 08:56 19,3 C 24,4 C 22,2 C 91 % 1018,0 hPa 0,0 l/m 5,6 km/h (1 Bft) NO 38 0 min 0,000 mm 1,0 UV-I 221 W/m 17,8 C 19,3 C 8,0 km/h (2 Bft) 95,74 %
11.08.2019 08:58 19,6 C 24,4 C 22,2 C 92 % 1018,0 hPa 0,0 l/m 5,5 km/h (1 Bft) O-NO 69 0 min 0,000 mm 1,1 UV-I 221 W/m 18,3 C 19,6 C 8,0 km/h (2 Bft) 90,00 %
11.08.2019 09:00 19,6 C 24,4 C 21,7 C 91 % 1018,0 hPa 0,0 l/m 5,4 km/h (1 Bft) O 81 0 min 0,102 mm 1,1 UV-I 228 W/m 18,1 C 19,6 C 8,0 km/h (2 Bft) 93,62 %
11.08.2019 09:02 19,6 C 24,4 C 21,7 C 90 % 1018,0 hPa 0,0 l/m 5,3 km/h (1 Bft) O-NO 78 0 min 0,000 mm 1,2 UV-I 250 W/m 17,9 C 19,6 C 6,4 km/h (2 Bft) 97,87 %
11.08.2019 09:04 19,6 C 24,4 C 21,7 C 89 % 1018,0 hPa 0,0 l/m 4,6 km/h (1 Bft) O-NO 78 2 min 0,000 mm 1,3 UV-I 314 W/m 17,7 C 19,6 C 6,4 km/h (2 Bft) 95,74 %
11.08.2019 09:06 19,7 C 24,4 C 22,2 C 89 % 1018,0 hPa 0,0 l/m 4,6 km/h (1 Bft) O-NO 65 0 min 0,000 mm 1,3 UV-I 259 W/m 17,8 C 19,7 C 8,0 km/h (2 Bft) 97,87 %
11.08.2019 09:08 19,8 C 24,4 C 22,2 C 90 % 1018,0 hPa 0,0 l/m 4,1 km/h (1 Bft) O-NO 65 0 min 0,000 mm 1,3 UV-I 252 W/m 18,1 C 19,8 C 8,0 km/h (2 Bft) 95,74 %
11.08.2019 09:10 19,8 C 24,4 C 22,2 C 89 % 1018,0 hPa 0,0 l/m 4,7 km/h (1 Bft) NO 53 0 min 0,000 mm 1,3 UV-I 257 W/m 17,9 C 19,8 C 6,4 km/h (2 Bft) 95,74 %
11.08.2019 09:12 19,8 C 24,4 C 22,2 C 87 % 1018,0 hPa 0,0 l/m 4,7 km/h (1 Bft) O 99 0 min 0,000 mm 1,3 UV-I 253 W/m 17,6 C 19,8 C 8,0 km/h (2 Bft) 95,74 %
11.08.2019 09:14 19,8 C 24,4 C 22,2 C 87 % 1018,0 hPa 0,0 l/m 3,3 km/h (1 Bft) O-NO 61 0 min 0,000 mm 1,3 UV-I 260 W/m 17,6 C 19,8 C 6,4 km/h (2 Bft) 100,00 %
11.08.2019 09:16 19,9 C 24,4 C 22,2 C 88 % 1018,0 hPa 0,0 l/m 4,7 km/h (1 Bft) NO 38 0 min 0,000 mm 1,3 UV-I 258 W/m 17,8 C 19,9 C 6,4 km/h (2 Bft) 100,00 %
11.08.2019 09:18 20,0 C 24,4 C 22,2 C 88 % 1018,0 hPa 0,0 l/m 5,8 km/h (2 Bft) O-NO 63 0 min 0,000 mm 1,3 UV-I 255 W/m 17,9 C 20,0 C 8,0 km/h (2 Bft) 100,00 %
11.08.2019 09:20 20,0 C 24,4 C 22,2 C 88 % 1018,0 hPa 0,0 l/m 4,7 km/h (1 Bft) NO 49 0 min 0,000 mm 1,3 UV-I 237 W/m 17,9 C 20,0 C 6,4 km/h (2 Bft) 100,00 %
11.08.2019 09:22 20,1 C 24,4 C 22,2 C 87 % 1018,0 hPa 0,0 l/m 6,8 km/h (2 Bft) O-NO 68 0 min 0,000 mm 1,5 UV-I 269 W/m 17,9 C 19,9 C 9,7 km/h (2 Bft) 100,00 %
11.08.2019 09:24 20,1 C 24,4 C 22,8 C 88 % 1017,9 hPa 0,0 l/m 6,4 km/h (2 Bft) O-NO 60 2 min 0,000 mm 1,6 UV-I 409 W/m 18,0 C 20,1 C 8,0 km/h (2 Bft) 100,00 %
11.08.2019 09:26 20,1 C 24,4 C 22,8 C 86 % 1017,9 hPa 0,0 l/m 5,6 km/h (1 Bft) NO 38 2 min 0,000 mm 1,6 UV-I 333 W/m 17,7 C 20,1 C 8,0 km/h (2 Bft) 100,00 %
11.08.2019 09:28 20,2 C 24,4 C 22,8 C 86 % 1017,9 hPa 0,0 l/m 4,8 km/h (1 Bft) O 79 0 min 0,000 mm 1,2 UV-I 224 W/m 17,8 C 20,2 C 6,4 km/h (2 Bft) 100,00 %
11.08.2019 09:30 20,2 C 24,4 C 22,2 C 86 % 1017,9 hPa 0,0 l/m 5,7 km/h (1 Bft) NO 37 0 min 0,000 mm 1,2 UV-I 208 W/m 17,8 C 20,2 C 8,0 km/h (2 Bft) 97,87 %
11.08.2019 09:32 20,2 C 24,4 C 22,2 C 86 % 1017,9 hPa 0,0 l/m 7,1 km/h (2 Bft) O-NO 57 0 min 0,000 mm 1,2 UV-I 223 W/m 17,8 C 19,9 C 11,3 km/h (2 Bft) 97,87 %
11.08.2019 09:34 20,2 C 24,4 C 21,7 C 84 % 1017,9 hPa 0,0 l/m 8,3 km/h (2 Bft) O-NO 75 0 min 0,000 mm 1,2 UV-I 231 W/m 17,4 C 19,4 C 12,9 km/h (3 Bft) 97,87 %
11.08.2019 09:36 20,1 C 24,4 C 22,2 C 83 % 1017,8 hPa 0,0 l/m 6,5 km/h (2 Bft) O-NO 74 0 min 0,000 mm 1,3 UV-I 243 W/m 17,1 C 20,1 C 8,0 km/h (2 Bft) 97,87 %
11.08.2019 09:38 20,1 C 24,4 C 22,2 C 82 % 1017,8 hPa 0,0 l/m 4,9 km/h (1 Bft) O-NO 68 0 min 0,000 mm 1,3 UV-I 263 W/m 16,9 C 20,1 C 6,4 km/h (2 Bft) 93,62 %
11.08.2019 09:40 20,1 C 24,4 C 22,8 C 83 % 1017,7 hPa 0,0 l/m 5,6 km/h (1 Bft) O-NO 68 0 min 0,000 mm 1,4 UV-I 277 W/m 17,1 C 20,1 C 8,0 km/h (2 Bft) 97,87 %
11.08.2019 09:42 20,1 C 24,4 C 22,8 C 83 % 1017,7 hPa 0,0 l/m 6,1 km/h (2 Bft) O 100 0 min 0,000 mm 1,6 UV-I 281 W/m 17,1 C 20,1 C 9,7 km/h (2 Bft) 96,00 %
11.08.2019 09:44 20,1 C 24,4 C 23,9 C 83 % 1017,7 hPa 0,0 l/m 5,1 km/h (1 Bft) NO 55 2 min 0,000 mm 1,8 UV-I 326 W/m 17,1 C 20,1 C 8,0 km/h (2 Bft) 95,74 %
11.08.2019 09:46 20,2 C 24,4 C 25,0 C 83 % 1017,7 hPa 0,0 l/m 6,8 km/h (2 Bft) O-NO 71 2 min 0,000 mm 1,9 UV-I 355 W/m 17,2 C 20,0 C 9,7 km/h (2 Bft) 96,00 %
11.08.2019 09:48 20,3 C 24,4 C 26,1 C 83 % 1017,7 hPa 0,0 l/m 6,2 km/h (2 Bft) O-SO 113 2 min 0,000 mm 2,1 UV-I 401 W/m 17,3 C 20,3 C 11,3 km/h (2 Bft) 97,87 %
11.08.2019 09:50 20,4 C 24,4 C 27,2 C 83 % 1017,6 hPa 0,0 l/m 5,9 km/h (2 Bft) O-NO 57 2 min 0,000 mm 2,1 UV-I 426 W/m 17,4 C 20,4 C 11,3 km/h (2 Bft) 95,74 %
11.08.2019 09:52 20,5 C 24,4 C 27,8 C 82 % 1017,7 hPa 0,0 l/m 7,0 km/h (2 Bft) O-SO 105 2 min 0,000 mm 2,2 UV-I 415 W/m 17,3 C 20,3 C 12,9 km/h (3 Bft) 97,87 %
11.08.2019 09:54 20,6 C 24,4 C 27,2 C 81 % 1017,6 hPa 0,0 l/m 9,0 km/h (2 Bft) O-SO 105 2 min 0,000 mm 2,0 UV-I 339 W/m 17,2 C 19,6 C 14,5 km/h (3 Bft) 97,87 %
11.08.2019 09:56 20,6 C 24,4 C 26,7 C 82 % 1017,6 hPa 0,0 l/m 6,6 km/h (2 Bft) O-NO 61 0 min 0,000 mm 1,9 UV-I 302 W/m 17,4 C 20,5 C 11,3 km/h (2 Bft) 100,00 %
11.08.2019 09:58 20,6 C 24,4 C 26,1 C 82 % 1017,6 hPa 0,0 l/m 4,4 km/h (1 Bft) O 92 0 min 0,000 mm 1,9 UV-I 265 W/m 17,4 C 20,6 C 11,3 km/h (2 Bft) 100,00 %
11.08.2019 10:00 20,6 C 24,4 C 25,6 C 82 % 1017,6 hPa 0,0 l/m 8,0 km/h (2 Bft) O 93 0 min 0,178 mm 1,9 UV-I 283 W/m 17,4 C 20,0 C 12,9 km/h (3 Bft) 100,00 %
11.08.2019 10:02 20,6 C 24,4 C 25,0 C 82 % 1017,6 hPa 0,0 l/m 7,0 km/h (2 Bft) O-NO 69 0 min 0,000 mm 2,0 UV-I 248 W/m 17,4 C 20,4 C 9,7 km/h (2 Bft) 100,00 %
11.08.2019 10:04 20,7 C 24,4 C 25,6 C 82 % 1017,6 hPa 0,0 l/m 4,7 km/h (1 Bft) O-NO 68 0 min 0,000 mm 2,2 UV-I 248 W/m 17,5 C 20,7 C 8,0 km/h (2 Bft) 100,00 %
11.08.2019 10:06 20,7 C 24,4 C 25,6 C 82 % 1017,6 hPa 0,0 l/m 7,4 km/h (2 Bft) O 88 0 min 0,000 mm 2,1 UV-I 233 W/m 17,5 C 20,3 C 12,9 km/h (3 Bft) 100,00 %
11.08.2019 10:08 20,6 C 24,4 C 25,0 C 80 % 1017,5 hPa 0,0 l/m 9,0 km/h (2 Bft) O 86 0 min 0,000 mm 2,1 UV-I 215 W/m 17,0 C 19,6 C 12,9 km/h (3 Bft) 100,00 %
11.08.2019 10:10 20,7 C 24,4 C 27,2 C 81 % 1017,5 hPa 0,0 l/m 7,8 km/h (2 Bft) O-NO 62 0 min 0,000 mm 2,6 UV-I 225 W/m 17,3 C 20,2 C 12,9 km/h (3 Bft) 100,00 %
11.08.2019 10:12 20,8 C 24,4 C 27,2 C 81 % 1017,5 hPa 0,0 l/m 8,2 km/h (2 Bft) O 89 0 min 0,000 mm 2,4 UV-I 221 W/m 17,4 C 20,1 C 12,9 km/h (3 Bft) 97,87 %
11.08.2019 10:14 21,1 C 24,4 C 29,4 C 82 % 1017,5 hPa 0,0 l/m 7,5 km/h (2 Bft) O 85 2 min 0,000 mm 3,1 UV-I 498 W/m 17,9 C 20,7 C 12,9 km/h (3 Bft) 100,00 %
11.08.2019 10:16 21,3 C 24,4 C 31,1 C 80 % 1017,5 hPa 0,0 l/m 9,0 km/h (2 Bft) O 96 2 min 0,000 mm 3,2 UV-I 638 W/m 17,7 C 20,4 C 11,3 km/h (2 Bft) 97,87 %
11.08.2019 10:18 21,5 C 24,4 C 31,7 C 80 % 1017,4 hPa 0,0 l/m 13,0 km/h (3 Bft) O-SO 103 2 min 0,000 mm 3,2 UV-I 655 W/m 17,9 C 19,5 C 16,1 km/h (3 Bft) 100,00 %
11.08.2019 10:20 21,6 C 24,4 C 32,8 C 78 % 1017,5 hPa 0,0 l/m 11,8 km/h (2 Bft) O-SO 112 2 min 0,000 mm 3,3 UV-I 660 W/m 17,6 C 19,9 C 16,1 km/h (3 Bft) 97,87 %
11.08.2019 10:22 21,7 C 24,4 C 32,8 C 78 % 1017,5 hPa 0,0 l/m 11,7 km/h (2 Bft) O 100 2 min 0,000 mm 3,3 UV-I 620 W/m 17,7 C 20,1 C 14,5 km/h (3 Bft) 97,87 %
11.08.2019 10:24 21,7 C 24,4 C 32,8 C 77 % 1017,4 hPa 0,0 l/m 7,6 km/h (2 Bft) O 100 2 min 0,000 mm 3,4 UV-I 645 W/m 17,5 C 21,3 C 12,9 km/h (3 Bft) 100,00 %
11.08.2019 10:26 21,7 C 24,4 C 33,9 C 77 % 1017,4 hPa 0,0 l/m 10,5 km/h (2 Bft) O 87 2 min 0,000 mm 3,5 UV-I 664 W/m 17,5 C 20,4 C 16,1 km/h (3 Bft) 95,74 %
11.08.2019 10:28 21,8 C 24,4 C 33,9 C 76 % 1017,4 hPa 0,0 l/m 13,9 km/h (3 Bft) O 96 2 min 0,000 mm 3,5 UV-I 672 W/m 17,4 C 19,7 C 17,7 km/h (3 Bft) 98,00 %
11.08.2019 10:30 21,9 C 24,4 C 33,9 C 77 % 1017,3 hPa 0,0 l/m 11,1 km/h (2 Bft) O-SO 108 2 min 0,000 mm 3,6 UV-I 708 W/m 17,7 C 20,4 C 14,5 km/h (3 Bft) 97,87 %
11.08.2019 10:32 22,1 C 24,4 C 35,0 C 76 % 1017,3 hPa 0,0 l/m 11,5 km/h (2 Bft) O 83 2 min 0,000 mm 3,8 UV-I 741 W/m 17,7 C 20,6 C 16,1 km/h (3 Bft) 93,62 %
11.08.2019 10:34 22,3 C 24,4 C 34,4 C 75 % 1017,3 hPa 0,0 l/m 10,4 km/h (2 Bft) O-SO 103 2 min 0,000 mm 3,4 UV-I 745 W/m 17,6 C 21,1 C 19,3 km/h (3 Bft) 98,00 %
11.08.2019 10:36 22,3 C 24,4 C 32,8 C 73 % 1017,3 hPa 0,0 l/m 12,2 km/h (2 Bft) O-NO 67 2 min 0,000 mm 2,9 UV-I 515 W/m 17,2 C 20,6 C 16,1 km/h (3 Bft) 97,87 %
11.08.2019 10:38 22,2 C 24,4 C 33,3 C 74 % 1017,3 hPa 0,0 l/m 9,8 km/h (2 Bft) O-NO 74 2 min 0,000 mm 3,4 UV-I 604 W/m 17,3 C 21,1 C 16,1 km/h (3 Bft) 95,74 %
11.08.2019 10:40 22,2 C 24,4 C 31,1 C 75 % 1017,3 hPa 0,0 l/m 8,0 km/h (2 Bft) O-SO 111 2 min 0,000 mm 3,0 UV-I 550 W/m 17,5 C 21,7 C 12,9 km/h (3 Bft) 95,74 %
11.08.2019 10:42 22,0 C 24,4 C 30,0 C 74 % 1017,3 hPa 0,0 l/m 10,7 km/h (2 Bft) O 82 0 min 0,000 mm 2,9 UV-I 345 W/m 17,1 C 20,7 C 16,1 km/h (3 Bft) 100,00 %
11.08.2019 10:44 22,0 C 24,4 C 31,1 C 77 % 1017,3 hPa 0,0 l/m 10,5 km/h (2 Bft) O 94 2 min 0,000 mm 3,2 UV-I 397 W/m 17,8 C 20,7 C 16,1 km/h (3 Bft) 94,34 %
11.08.2019 10:46 22,1 C 24,4 C 31,7 C 75 % 1017,3 hPa 0,0 l/m 10,3 km/h (2 Bft) O-NO 68 2 min 0,000 mm 3,7 UV-I 635 W/m 17,5 C 20,9 C 17,7 km/h (3 Bft) 95,74 %
11.08.2019 10:48 22,2 C 24,4 C 32,8 C 76 % 1017,3 hPa 0,0 l/m 11,5 km/h (2 Bft) O 86 2 min 0,000 mm 3,9 UV-I 675 W/m 17,8 C 20,7 C 17,7 km/h (3 Bft) 95,74 %
11.08.2019 10:50 22,3 C 24,4 C 33,3 C 76 % 1017,3 hPa 0,0 l/m 11,9 km/h (2 Bft) O 94 2 min 0,000 mm 4,0 UV-I 709 W/m 17,9 C 20,7 C 16,1 km/h (3 Bft) 98,00 %
11.08.2019 10:52 22,4 C 24,4 C 33,9 C 77 % 1017,3 hPa 0,0 l/m 11,8 km/h (2 Bft) O-NO 67 2 min 0,000 mm 4,1 UV-I 704 W/m 18,2 C 20,8 C 16,1 km/h (3 Bft) 95,74 %
11.08.2019 10:54 22,4 C 24,4 C 33,9 C 76 % 1017,2 hPa 0,0 l/m 10,9 km/h (2 Bft) O 94 2 min 0,000 mm 4,1 UV-I 703 W/m 18,0 C 21,1 C 14,5 km/h (3 Bft) 97,37 %
11.08.2019 10:56 22,5 C 24,4 C 34,4 C 78 % 1017,2 hPa 0,0 l/m 8,9 km/h (2 Bft) O-NO 67 2 min 0,000 mm 4,1 UV-I 706 W/m 18,5 C 21,7 C 14,5 km/h (3 Bft) 97,87 %
11.08.2019 10:58 22,6 C 24,4 C 34,4 C 77 % 1017,2 hPa 0,0 l/m 9,6 km/h (2 Bft) O-NO 61 2 min 0,000 mm 4,2 UV-I 685 W/m 18,4 C 21,6 C 14,5 km/h (3 Bft) 100,00 %
11.08.2019 11:00 22,7 C 24,4 C 35,0 C 76 % 1017,1 hPa 0,0 l/m 10,3 km/h (2 Bft) O-NO 62 2 min 0,355 mm 4,2 UV-I 653 W/m 18,2 C 21,5 C 14,5 km/h (3 Bft) 95,74 %
11.08.2019 11:02 22,8 C 24,4 C 35,0 C 76 % 1017,1 hPa 0,0 l/m 11,2 km/h (2 Bft) O-NO 69 2 min 0,000 mm 4,3 UV-I 707 W/m 18,3 C 21,4 C 16,1 km/h (3 Bft) 98,00 %
11.08.2019 11:04 23,0 C 24,4 C 35,0 C 76 % 1017,2 hPa 0,0 l/m 12,0 km/h (2 Bft) O-NO 66 2 min 0,000 mm 4,3 UV-I 717 W/m 18,5 C 21,5 C 17,7 km/h (3 Bft) 96,00 %
11.08.2019 11:06 23,1 C 24,4 C 35,6 C 74 % 1017,1 hPa 0,0 l/m 9,4 km/h (2 Bft) NO 54 2 min 0,000 mm 4,4 UV-I 720 W/m 18,2 C 22,2 C 16,1 km/h (3 Bft) 97,87 %
11.08.2019 11:08 23,1 C 24,4 C 35,6 C 72 % 1017,1 hPa 0,0 l/m 11,2 km/h (2 Bft) N-NO 33 2 min 0,000 mm 4,4 UV-I 722 W/m 17,8 C 21,8 C 17,7 km/h (3 Bft) 97,87 %
11.08.2019 11:10 23,2 C 24,4 C 35,6 C 73 % 1017,1 hPa 0,0 l/m 14,2 km/h (3 Bft) O-NO 67 2 min 0,000 mm 4,5 UV-I 740 W/m 18,1 C 21,3 C 20,9 km/h (4 Bft) 87,80 %
11.08.2019 11:12 23,3 C 24,4 C 35,0 C 72 % 1017,1 hPa 0,0 l/m 14,5 km/h (3 Bft) O-SO 109 2 min 0,000 mm 4,5 UV-I 738 W/m 18,0 C 21,3 C 19,3 km/h (3 Bft) 97,87 %
11.08.2019 11:14 23,3 C 24,4 C 35,6 C 70 % 1017,0 hPa 0,0 l/m 13,7 km/h (3 Bft) O 88 2 min 0,000 mm 4,6 UV-I 737 W/m 17,5 C 21,5 C 19,3 km/h (3 Bft) 97,87 %
11.08.2019 11:16 23,3 C 24,4 C 35,0 C 70 % 1017,0 hPa 0,0 l/m 14,4 km/h (3 Bft) O 88 2 min 0,000 mm 4,5 UV-I 766 W/m 17,5 C 21,4 C 20,9 km/h (4 Bft) 98,00 %
11.08.2019 11:18 23,3 C 24,4 C 35,6 C 72 % 1017,0 hPa 0,0 l/m 13,1 km/h (3 Bft) O-NO 59 2 min 0,000 mm 4,6 UV-I 750 W/m 18,0 C 21,6 C 22,5 km/h (4 Bft) 97,87 %
11.08.2019 11:20 23,4 C 24,4 C 35,6 C 72 % 1017,0 hPa 0,0 l/m 12,3 km/h (3 Bft) NO 55 2 min 0,000 mm 4,7 UV-I 762 W/m 18,1 C 21,9 C 20,9 km/h (4 Bft) 97,92 %
11.08.2019 11:22 23,6 C 24,4 C 35,6 C 72 % 1016,9 hPa 0,0 l/m 15,2 km/h (3 Bft) N-NO 26 2 min 0,000 mm 4,7 UV-I 760 W/m 18,2 C 21,6 C 20,9 km/h (4 Bft) 97,87 %
11.08.2019 11:24 23,8 C 24,4 C 36,1 C 73 % 1016,9 hPa 0,0 l/m 13,7 km/h (3 Bft) O-NO 77 2 min 0,000 mm 4,8 UV-I 771 W/m 18,7 C 22,1 C 20,9 km/h (4 Bft) 97,56 %
11.08.2019 11:26 23,8 C 24,4 C 35,6 C 69 % 1016,9 hPa 0,0 l/m 13,4 km/h (3 Bft) O 90 2 min 0,000 mm 4,5 UV-I 746 W/m 17,8 C 22,1 C 22,5 km/h (4 Bft) 97,87 %
11.08.2019 11:28 23,9 C 24,4 C 36,1 C 70 % 1016,9 hPa 0,0 l/m 14,2 km/h (3 Bft) O-NO 72 2 min 0,000 mm 4,8 UV-I 773 W/m 18,1 C 22,1 C 20,9 km/h (4 Bft) 98,00 %
11.08.2019 11:30 23,9 C 24,4 C 36,7 C 71 % 1016,9 hPa 0,0 l/m 12,1 km/h (2 Bft) NO 40 2 min 0,000 mm 4,9 UV-I 788 W/m 18,3 C 22,5 C 19,3 km/h (3 Bft) 100,00 %
11.08.2019 11:32 23,9 C 24,4 C 36,1 C 70 % 1017,0 hPa 0,0 l/m 12,2 km/h (2 Bft) O-NO 60 2 min 0,000 mm 4,8 UV-I 795 W/m 18,1 C 22,5 C 17,7 km/h (3 Bft) 100,00 %
11.08.2019 11:34 24,0 C 24,4 C 35,6 C 71 % 1016,9 hPa 0,0 l/m 18,4 km/h (3 Bft) O-NO 60 2 min 0,000 mm 5,0 UV-I 789 W/m 18,4 C 21,6 C 24,1 km/h (4 Bft) 97,87 %
11.08.2019 11:36 24,0 C 25,0 C 36,1 C 69 % 1016,8 hPa 0,0 l/m 14,6 km/h (3 Bft) NO 52 2 min 0,000 mm 5,0 UV-I 862 W/m 18,0 C 22,2 C 19,3 km/h (3 Bft) 100,00 %
11.08.2019 11:38 23,9 C 24,4 C 33,9 C 69 % 1016,8 hPa 0,0 l/m 13,6 km/h (3 Bft) O 90 2 min 0,000 mm 4,1 UV-I 679 W/m 17,9 C 22,2 C 19,3 km/h (3 Bft) 100,00 %
11.08.2019 11:40 23,8 C 24,4 C 32,8 C 68 % 1016,8 hPa 0,0 l/m 15,8 km/h (3 Bft) O 93 0 min 0,000 mm 4,2 UV-I 355 W/m 17,5 C 21,7 C 24,1 km/h (4 Bft) 97,87 %
11.08.2019 11:42 23,6 C 24,4 C 31,7 C 66 % 1016,8 hPa 0,0 l/m 15,3 km/h (3 Bft) O-SO 108 0 min 0,000 mm 4,3 UV-I 409 W/m 16,9 C 21,6 C 20,9 km/h (4 Bft) 97,87 %
11.08.2019 11:44 23,7 C 24,4 C 33,3 C 70 % 1016,7 hPa 0,0 l/m 13,8 km/h (3 Bft) O-NO 68 0 min 0,000 mm 5,0 UV-I 424 W/m 17,9 C 21,9 C 22,5 km/h (4 Bft) 97,87 %
11.08.2019 11:46 23,7 C 24,4 C 31,1 C 66 % 1016,8 hPa 0,0 l/m 18,1 km/h (3 Bft) O-NO 69 0 min 0,000 mm 4,1 UV-I 406 W/m 17,0 C 21,2 C 25,7 km/h (4 Bft) 100,00 %
11.08.2019 11:48 23,6 C 25,0 C 32,2 C 68 % 1016,7 hPa 0,0 l/m 13,4 km/h (3 Bft) O-NO 75 2 min 0,000 mm 4,6 UV-I 494 W/m 17,3 C 21,9 C 20,9 km/h (4 Bft) 100,00 %
11.08.2019 11:50 23,7 C 25,0 C 33,9 C 69 % 1016,7 hPa 0,0 l/m 17,2 km/h (3 Bft) O-NO 65 2 min 0,000 mm 5,1 UV-I 704 W/m 17,7 C 21,4 C 24,1 km/h (4 Bft) 100,00 %
11.08.2019 11:52 23,9 C 24,4 C 34,4 C 66 % 1016,7 hPa 0,0 l/m 19,8 km/h (3 Bft) O-NO 62 2 min 0,000 mm 5,6 UV-I 937 W/m 17,1 C 21,3 C 25,7 km/h (4 Bft) 100,00 %
11.08.2019 11:54 23,9 C 25,0 C 35,0 C 65 % 1016,6 hPa 0,0 l/m 15,0 km/h (3 Bft) O 89 2 min 0,000 mm 5,4 UV-I 768 W/m 16,9 C 22,0 C 24,1 km/h (4 Bft) 97,96 %
11.08.2019 11:56 24,1 C 25,0 C 36,1 C 69 % 1016,6 hPa 0,0 l/m 14,5 km/h (3 Bft) O-NO 74 2 min 0,000 mm 5,6 UV-I 866 W/m 18,0 C 22,3 C 20,9 km/h (4 Bft) 100,00 %
11.08.2019 11:58 24,3 C 25,0 C 36,1 C 68 % 1016,5 hPa 0,0 l/m 13,6 km/h (3 Bft) NO 49 2 min 0,000 mm 5,2 UV-I 869 W/m 18,0 C 22,7 C 25,7 km/h (4 Bft) 97,87 %
11.08.2019 12:00 24,4 C 25,0 C 36,1 C 68 % 1016,6 hPa 0,0 l/m 18,8 km/h (3 Bft) NO 55 2 min 0,000 mm 5,5 UV-I 848 W/m 18,1 C 22,0 C 25,7 km/h (4 Bft) 97,87 %
11.08.2019 12:02 24,5 C 24,4 C 35,6 C 67 % 1016,5 hPa 0,0 l/m 14,7 km/h (3 Bft) O-NO 69 2 min 0,508 mm 5,0 UV-I 837 W/m 18,0 C 22,7 C 22,5 km/h (4 Bft) 97,73 %
11.08.2019 12:04 24,4 C 25,0 C 34,4 C 65 % 1016,5 hPa 0,0 l/m 16,9 km/h (3 Bft) O-NO 61 2 min 0,000 mm 4,8 UV-I 841 W/m 17,4 C 22,3 C 25,7 km/h (4 Bft) 97,87 %
11.08.2019 12:06 24,4 C 25,0 C 34,4 C 65 % 1016,5 hPa 0,0 l/m 13,8 km/h (3 Bft) O 94 2 min 0,000 mm 4,9 UV-I 865 W/m 17,4 C 22,8 C 17,7 km/h (3 Bft) 97,87 %
11.08.2019 12:08 24,3 C 24,4 C 35,0 C 65 % 1016,5 hPa 0,0 l/m 15,3 km/h (3 Bft) O 92 2 min 0,000 mm 5,6 UV-I 866 W/m 17,3 C 22,4 C 20,9 km/h (4 Bft) 97,87 %
11.08.2019 12:10 24,3 C 25,0 C 34,4 C 62 % 1016,5 hPa 0,0 l/m 15,5 km/h (3 Bft) NO 51 2 min 0,000 mm 5,0 UV-I 868 W/m 16,5 C 22,4 C 22,5 km/h (4 Bft) 100,00 %
11.08.2019 12:12 24,4 C 24,4 C 35,0 C 63 % 1016,5 hPa 0,0 l/m 16,8 km/h (3 Bft) O-NO 67 2 min 0,000 mm 5,5 UV-I 829 W/m 16,9 C 22,3 C 24,1 km/h (4 Bft) 100,00 %
11.08.2019 12:14 24,6 C 25,0 C 35,0 C 59 % 1016,4 hPa 0,0 l/m 18,7 km/h (3 Bft) O-NO 68 2 min 0,000 mm 5,5 UV-I 795 W/m 16,0 C 22,3 C 25,7 km/h (4 Bft) 100,00 %
11.08.2019 12:16 24,6 C 25,0 C 35,6 C 58 % 1016,4 hPa 0,0 l/m 18,9 km/h (3 Bft) O 82 2 min 0,000 mm 5,6 UV-I 802 W/m 15,8 C 22,3 C 27,4 km/h (4 Bft) 98,00 %
11.08.2019 12:18 24,6 C 25,0 C 35,6 C 59 % 1016,3 hPa 0,0 l/m 18,4 km/h (3 Bft) O-NO 67 2 min 0,000 mm 5,6 UV-I 805 W/m 16,0 C 22,3 C 24,1 km/h (4 Bft) 97,87 %
11.08.2019 12:20 24,6 C 25,0 C 35,6 C 59 % 1016,3 hPa 0,0 l/m 19,0 km/h (3 Bft) O-NO 69 2 min 0,000 mm 5,6 UV-I 814 W/m 16,0 C 22,3 C 29,0 km/h (5 Bft) 97,87 %
11.08.2019 12:22 24,6 C 25,0 C 36,1 C 59 % 1016,2 hPa 0,0 l/m 16,2 km/h (3 Bft) SO 124 2 min 0,000 mm 5,7 UV-I 823 W/m 16,0 C 22,6 C 24,1 km/h (4 Bft) 95,74 %
11.08.2019 12:24 24,6 C 25,0 C 36,1 C 59 % 1016,0 hPa 0,0 l/m 16,2 km/h (3 Bft) O 81 2 min 0,000 mm 5,7 UV-I 824 W/m 16,0 C 22,6 C 24,1 km/h (4 Bft) 95,74 %
11.08.2019 12:26 24,8 C 25,0 C 36,7 C 61 % 1016,0 hPa 0,0 l/m 17,2 km/h (3 Bft) O-NO 61 2 min 0,000 mm 5,8 UV-I 830 W/m 16,8 C 22,8 C 24,1 km/h (4 Bft) 92,00 %
11.08.2019 12:28 24,9 C 25,0 C 36,1 C 60 % 1015,9 hPa 0,0 l/m 21,6 km/h (4 Bft) NO 36 2 min 0,000 mm 5,8 UV-I 832 W/m 16,6 C 22,4 C 30,6 km/h (5 Bft) 94,74 %
11.08.2019 12:30 25,1 C 25,0 C 36,1 C 61 % 1015,9 hPa 0,0 l/m 17,6 km/h (3 Bft) NO 55 2 min 0,000 mm 5,8 UV-I 840 W/m 17,0 C 23,1 C 25,7 km/h (4 Bft) 95,83 %
11.08.2019 12:32 25,3 C 25,0 C 36,7 C 56 % 1015,9 hPa 0,0 l/m 18,4 km/h (3 Bft) O 88 2 min 0,000 mm 5,8 UV-I 859 W/m 15,9 C 23,2 C 22,5 km/h (4 Bft) 96,00 %
11.08.2019 12:34 25,3 C 25,0 C 36,1 C 57 % 1015,8 hPa 0,0 l/m 18,1 km/h (3 Bft) O-NO 69 2 min 0,000 mm 5,8 UV-I 879 W/m 16,2 C 23,3 C 27,4 km/h (4 Bft) 95,74 %
11.08.2019 12:36 25,3 C 25,0 C 36,7 C 57 % 1015,8 hPa 0,0 l/m 15,4 km/h (3 Bft) NO 35 2 min 0,000 mm 5,4 UV-I 891 W/m 16,2 C 23,6 C 24,1 km/h (4 Bft) 89,36 %
11.08.2019 12:38 25,3 C 25,0 C 34,4 C 59 % 1015,8 hPa 0,0 l/m 22,0 km/h (4 Bft) N-NO 19 2 min 0,000 mm 5,7 UV-I 891 W/m 16,7 C 22,8 C 29,0 km/h (5 Bft) 93,62 %
11.08.2019 12:40 25,2 C 25,0 C 33,3 C 59 % 1015,8 hPa 0,0 l/m 19,9 km/h (4 Bft) N-NO 32 2 min 0,000 mm 5,3 UV-I 891 W/m 16,6 C 22,9 C 25,7 km/h (4 Bft) 94,00 %
11.08.2019 12:42 25,2 C 25,0 C 33,3 C 59 % 1015,8 hPa 0,0 l/m 17,5 km/h (3 Bft) O-NO 57 2 min 0,000 mm 5,2 UV-I 706 W/m 16,6 C 23,2 C 25,7 km/h (4 Bft) 90,00 %
11.08.2019 12:44 25,2 C 25,0 C 32,8 C 56 % 1015,7 hPa 0,0 l/m 20,0 km/h (4 Bft) O-NO 70 2 min 0,000 mm 4,8 UV-I 712 W/m 15,8 C 22,9 C 25,7 km/h (4 Bft) 91,43 %
11.08.2019 12:46 25,0 C 25,0 C 33,3 C 55 % 1015,7 hPa 0,0 l/m 17,0 km/h (3 Bft) NO 40 2 min 0,000 mm 5,5 UV-I 568 W/m 15,3 C 23,0 C 25,7 km/h (4 Bft) 91,49 %
11.08.2019 12:48 24,9 C 25,0 C 33,9 C 57 % 1015,6 hPa 0,0 l/m 15,5 km/h (3 Bft) NO 55 2 min 0,000 mm 6,0 UV-I 568 W/m 15,8 C 23,1 C 22,5 km/h (4 Bft) 93,62 %
11.08.2019 12:50 24,9 C 25,0 C 35,0 C 57 % 1015,6 hPa 0,0 l/m 18,3 km/h (3 Bft) O-NO 69 2 min 0,000 mm 5,8 UV-I 725 W/m 15,8 C 22,7 C 24,1 km/h (4 Bft) 94,00 %
11.08.2019 12:52 24,9 C 25,0 C 35,6 C 56 % 1015,5 hPa 0,0 l/m 14,9 km/h (3 Bft) O 101 2 min 0,000 mm 6,1 UV-I 838 W/m 15,5 C 23,2 C 24,1 km/h (4 Bft) 91,49 %
11.08.2019 12:54 25,1 C 25,0 C 35,6 C 58 % 1015,6 hPa 0,0 l/m 21,6 km/h (4 Bft) O-NO 70 2 min 0,000 mm 6,0 UV-I 864 W/m 16,2 C 22,6 C 32,2 km/h (5 Bft) 94,00 %
11.08.2019 12:56 25,1 C 25,0 C 36,1 C 56 % 1015,6 hPa 0,2 l/m 20,4 km/h (4 Bft) O 79 2 min 0,000 mm 6,0 UV-I 845 W/m 15,7 C 22,7 C 32,2 km/h (5 Bft) 91,49 %
11.08.2019 12:58 25,2 C 25,0 C 36,1 C 56 % 1015,5 hPa 0,0 l/m 20,1 km/h (4 Bft) O-NO 57 2 min 0,000 mm 5,9 UV-I 827 W/m 15,8 C 22,9 C 32,2 km/h (5 Bft) 95,74 %
11.08.2019 13:00 25,2 C 25,0 C 36,1 C 56 % 1015,5 hPa 0,0 l/m 19,3 km/h (3 Bft) O 88 2 min 0,585 mm 5,9 UV-I 818 W/m 15,8 C 23,0 C 29,0 km/h (5 Bft) 93,62 %
11.08.2019 13:02 25,3 C 25,0 C 36,1 C 53 % 1015,5 hPa 0,0 l/m 21,6 km/h (4 Bft) O 101 2 min 0,000 mm 5,9 UV-I 814 W/m 15,0 C 22,9 C 29,0 km/h (5 Bft) 97,87 %
11.08.2019 13:04 25,3 C 25,0 C 36,7 C 53 % 1015,4 hPa 0,0 l/m 18,3 km/h (3 Bft) SO 125 2 min 0,000 mm 5,9 UV-I 814 W/m 15,0 C 23,2 C 27,4 km/h (4 Bft) 97,87 %
11.08.2019 13:06 25,4 C 25,0 C 36,7 C 56 % 1015,3 hPa 0,0 l/m 21,5 km/h (4 Bft) O-NO 59 2 min 0,000 mm 5,9 UV-I 814 W/m 16,0 C 23,0 C 30,6 km/h (5 Bft) 95,74 %
11.08.2019 13:08 25,5 C 25,0 C 36,7 C 55 % 1015,3 hPa 0,0 l/m 21,4 km/h (4 Bft) O-NO 65 2 min 0,000 mm 5,9 UV-I 813 W/m 15,8 C 23,2 C 32,2 km/h (5 Bft) 96,00 %
11.08.2019 13:10 25,6 C 25,0 C 36,7 C 54 % 1015,2 hPa 0,0 l/m 19,1 km/h (3 Bft) O-NO 76 2 min 0,000 mm 5,9 UV-I 810 W/m 15,6 C 23,5 C 30,6 km/h (5 Bft) 97,44 %
11.08.2019 13:12 25,6 C 25,0 C 36,1 C 48 % 1015,2 hPa 0,0 l/m 22,3 km/h (4 Bft) O-NO 69 2 min 0,000 mm 5,9 UV-I 811 W/m 13,8 C 23,2 C 33,8 km/h (5 Bft) 95,74 %
11.08.2019 13:14 25,4 C 25,0 C 35,6 C 48 % 1015,2 hPa 0,0 l/m 21,3 km/h (4 Bft) O 92 2 min 0,000 mm 5,9 UV-I 813 W/m 13,6 C 23,0 C 30,6 km/h (5 Bft) 98,00 %
11.08.2019 13:16 25,4 C 25,0 C 36,7 C 52 % 1015,2 hPa 0,0 l/m 19,6 km/h (3 Bft) O-NO 69 2 min 0,000 mm 5,9 UV-I 812 W/m 14,8 C 23,2 C 25,7 km/h (4 Bft) 96,00 %
11.08.2019 13:18 25,4 C 25,0 C 36,1 C 50 % 1015,2 hPa 0,0 l/m 21,0 km/h (4 Bft) O-NO 69 2 min 0,000 mm 5,9 UV-I 811 W/m 14,2 C 23,1 C 27,4 km/h (4 Bft) 95,74 %
11.08.2019 13:20 25,4 C 25,0 C 36,1 C 47 % 1015,1 hPa 0,0 l/m 19,0 km/h (3 Bft) O 81 2 min 0,000 mm 5,9 UV-I 813 W/m 13,3 C 23,3 C 25,7 km/h (4 Bft) 95,74 %
11.08.2019 13:22 25,4 C 25,0 C 36,7 C 54 % 1015,1 hPa 0,0 l/m 18,3 km/h (3 Bft) O 81 2 min 0,000 mm 5,9 UV-I 811 W/m 15,4 C 23,4 C 25,7 km/h (4 Bft) 97,14 %
11.08.2019 13:24 25,6 C 25,0 C 36,7 C 58 % 1015,0 hPa 0,0 l/m 18,1 km/h (3 Bft) O 92 2 min 0,000 mm 5,9 UV-I 806 W/m 16,7 C 23,6 C 24,1 km/h (4 Bft) 98,00 %
11.08.2019 13:26 25,6 C 25,0 C 37,2 C 55 % 1015,1 hPa 0,0 l/m 15,2 km/h (3 Bft) O-NO 70 2 min 0,000 mm 5,9 UV-I 808 W/m 15,9 C 24,0 C 25,7 km/h (4 Bft) 97,87 %
11.08.2019 13:28 25,7 C 25,0 C 37,2 C 56 % 1015,0 hPa 0,0 l/m 19,0 km/h (3 Bft) O-NO 66 2 min 0,000 mm 5,8 UV-I 803 W/m 16,2 C 23,7 C 25,7 km/h (4 Bft) 94,00 %
11.08.2019 13:30 25,8 C 25,0 C 37,2 C 56 % 1015,0 hPa 0,0 l/m 16,1 km/h (3 Bft) NO 34 2 min 0,000 mm 5,8 UV-I 800 W/m 16,3 C 24,1 C 22,5 km/h (4 Bft) 100,00 %
11.08.2019 13:32 25,9 C 25,0 C 37,2 C 56 % 1015,0 hPa 0,0 l/m 17,6 km/h (3 Bft) O-NO 59 2 min 0,000 mm 5,8 UV-I 803 W/m 16,4 C 24,1 C 27,4 km/h (4 Bft) 100,00 %
11.08.2019 13:34 26,1 C 25,0 C 37,2 C 56 % 1014,9 hPa 0,0 l/m 14,7 km/h (3 Bft) N-NO 28 2 min 0,000 mm 5,8 UV-I 801 W/m 16,6 C 24,7 C 20,9 km/h (4 Bft) 100,00 %
11.08.2019 13:36 26,1 C 25,0 C 36,1 C 56 % 1014,8 hPa 0,0 l/m 20,3 km/h (4 Bft) O-NO 76 2 min 0,000 mm 5,8 UV-I 798 W/m 16,6 C 24,1 C 33,8 km/h (5 Bft) 97,87 %
11.08.2019 13:38 25,9 C 25,0 C 36,1 C 55 % 1014,9 hPa 0,0 l/m 19,1 km/h (3 Bft) NO 56 2 min 0,000 mm 5,8 UV-I 797 W/m 16,2 C 23,9 C 24,1 km/h (4 Bft) 100,00 %
11.08.2019 13:40 25,8 C 25,0 C 36,7 C 55 % 1014,8 hPa 0,0 l/m 21,7 km/h (4 Bft) O-NO 67 2 min 0,000 mm 5,8 UV-I 796 W/m 16,1 C 23,5 C 30,6 km/h (5 Bft) 100,00 %
11.08.2019 13:42 25,8 C 25,0 C 36,1 C 57 % 1014,8 hPa 0,0 l/m 22,3 km/h (4 Bft) NO 56 2 min 0,000 mm 5,8 UV-I 798 W/m 16,6 C 23,5 C 30,6 km/h (5 Bft) 100,00 %
11.08.2019 13:44 25,7 C 25,0 C 35,0 C 56 % 1014,7 hPa 0,0 l/m 19,6 km/h (3 Bft) O-SO 105 2 min 0,000 mm 5,7 UV-I 796 W/m 16,2 C 23,6 C 30,6 km/h (5 Bft) 100,00 %
11.08.2019 13:46 25,8 C 25,0 C 36,7 C 56 % 1014,6 hPa 0,0 l/m 13,9 km/h (3 Bft) O 101 2 min 0,000 mm 5,7 UV-I 794 W/m 16,3 C 24,4 C 20,9 km/h (4 Bft) 100,00 %
11.08.2019 13:48 25,8 C 25,0 C 36,1 C 55 % 1014,7 hPa 0,0 l/m 23,5 km/h (4 Bft) N-NO 31 2 min 0,000 mm 5,7 UV-I 792 W/m 16,1 C 23,4 C 30,6 km/h (5 Bft) 100,00 %
11.08.2019 13:50 25,9 C 25,0 C 36,1 C 50 % 1014,7 hPa 0,0 l/m 22,1 km/h (4 Bft) O 83 2 min 0,000 mm 5,7 UV-I 792 W/m 14,7 C 23,6 C 33,8 km/h (5 Bft) 97,87 %
11.08.2019 13:52 25,9 C 25,0 C 36,1 C 49 % 1014,7 hPa 0,0 l/m 21,4 km/h (4 Bft) O-SO 109 2 min 0,000 mm 5,7 UV-I 792 W/m 14,4 C 23,7 C 27,4 km/h (4 Bft) 100,00 %
11.08.2019 13:54 26,0 C 25,0 C 37,2 C 50 % 1014,6 hPa 0,0 l/m 18,0 km/h (3 Bft) NO 44 2 min 0,000 mm 5,6 UV-I 788 W/m 14,8 C 24,2 C 24,1 km/h (4 Bft) 95,74 %
11.08.2019 13:56 26,1 C 25,0 C 37,8 C 53 % 1014,6 hPa 0,0 l/m 14,4 km/h (3 Bft) O 82 2 min 0,000 mm 5,6 UV-I 788 W/m 15,8 C 24,7 C 22,5 km/h (4 Bft) 100,00 %
11.08.2019 13:58 26,2 C 25,0 C 37,8 C 48 % 1014,5 hPa 0,0 l/m 16,9 km/h (3 Bft) O 82 2 min 0,000 mm 5,6 UV-I 787 W/m 14,3 C 24,5 C 24,1 km/h (4 Bft) 97,87 %
11.08.2019 14:00 26,3 C 25,0 C 37,8 C 50 % 1014,5 hPa 0,0 l/m 17,0 km/h (3 Bft) O-SO 106 2 min 0,000 mm 5,6 UV-I 784 W/m 15,0 C 24,7 C 25,7 km/h (4 Bft) 100,00 %
11.08.2019 14:02 26,4 C 25,0 C 37,8 C 49 % 1014,5 hPa 0,0 l/m 22,1 km/h (4 Bft) O-SO 110 2 min 0,635 mm 5,6 UV-I 782 W/m 14,8 C 24,3 C 29,0 km/h (5 Bft) 100,00 %
11.08.2019 14:04 26,3 C 25,0 C 37,2 C 48 % 1014,4 hPa 0,0 l/m 19,4 km/h (3 Bft) O 97 2 min 0,000 mm 5,5 UV-I 778 W/m 14,4 C 24,4 C 27,4 km/h (4 Bft) 100,00 %
11.08.2019 14:06 26,3 C 25,0 C 37,2 C 51 % 1014,4 hPa 0,0 l/m 17,5 km/h (3 Bft) NO 47 2 min 0,000 mm 5,5 UV-I 776 W/m 15,3 C 24,6 C 24,1 km/h (4 Bft) 98,00 %
11.08.2019 14:08 26,4 C 25,0 C 37,2 C 50 % 1014,4 hPa 0,0 l/m 19,1 km/h (3 Bft) O 95 2 min 0,000 mm 5,5 UV-I 774 W/m 15,1 C 24,6 C 29,0 km/h (5 Bft) 97,37 %
11.08.2019 14:10 26,4 C 25,0 C 37,2 C 48 % 1014,4 hPa 0,0 l/m 19,7 km/h (3 Bft) O 82 2 min 0,000 mm 5,5 UV-I 772 W/m 14,5 C 24,5 C 27,4 km/h (4 Bft) 100,00 %
11.08.2019 14:12 26,3 C 25,0 C 36,7 C 47 % 1014,3 hPa 0,0 l/m 21,4 km/h (4 Bft) O 92 2 min 0,000 mm 5,4 UV-I 772 W/m 14,1 C 24,2 C 27,4 km/h (4 Bft) 97,87 %
11.08.2019 14:14 26,2 C 25,0 C 36,1 C 49 % 1014,2 hPa 0,0 l/m 20,9 km/h (4 Bft) O 92 2 min 0,000 mm 5,4 UV-I 771 W/m 14,6 C 24,1 C 29,0 km/h (5 Bft) 97,87 %
11.08.2019 14:16 26,2 C 25,0 C 36,7 C 51 % 1014,2 hPa 0,0 l/m 18,1 km/h (3 Bft) O-NO 66 2 min 0,000 mm 5,4 UV-I 767 W/m 15,2 C 24,4 C 27,4 km/h (4 Bft) 92,00 %
11.08.2019 14:18 26,2 C 25,0 C 36,7 C 50 % 1014,2 hPa 0,0 l/m 18,0 km/h (3 Bft) O 100 2 min 0,000 mm 5,3 UV-I 764 W/m 14,9 C 24,4 C 24,1 km/h (4 Bft) 96,00 %
11.08.2019 14:20 26,3 C 25,0 C 36,7 C 49 % 1014,2 hPa 0,0 l/m 18,9 km/h (3 Bft) NO 38 2 min 0,000 mm 5,3 UV-I 762 W/m 14,7 C 24,5 C 27,4 km/h (4 Bft) 91,49 %
11.08.2019 14:22 26,3 C 25,0 C 36,7 C 50 % 1014,2 hPa 0,0 l/m 19,8 km/h (3 Bft) O-NO 67 2 min 0,000 mm 5,3 UV-I 761 W/m 15,0 C 24,4 C 27,4 km/h (4 Bft) 95,12 %
11.08.2019 14:24 26,3 C 25,0 C 36,7 C 51 % 1014,1 hPa 0,0 l/m 16,5 km/h (3 Bft) O-NO 74 2 min 0,000 mm 5,2 UV-I 759 W/m 15,3 C 24,7 C 22,5 km/h (4 Bft) 95,74 %
11.08.2019 14:26 26,4 C 25,0 C 37,2 C 50 % 1014,1 hPa 0,0 l/m 16,0 km/h (3 Bft) O 88 2 min 0,000 mm 5,2 UV-I 757 W/m 15,1 C 24,9 C 20,9 km/h (4 Bft) 93,75 %
11.08.2019 14:28 26,4 C 25,0 C 36,7 C 49 % 1014,0 hPa 0,0 l/m 23,4 km/h (4 Bft) O-NO 67 2 min 0,000 mm 5,2 UV-I 754 W/m 14,8 C 24,2 C 33,8 km/h (5 Bft) 93,62 %
11.08.2019 14:30 26,6 C 25,0 C 36,7 C 50 % 1014,0 hPa 0,0 l/m 23,2 km/h (4 Bft) O-NO 63 2 min 0,000 mm 5,2 UV-I 752 W/m 15,3 C 24,5 C 32,2 km/h (5 Bft) 95,74 %
11.08.2019 14:32 26,6 C 25,0 C 36,7 C 49 % 1014,0 hPa 0,0 l/m 21,5 km/h (4 Bft) NO 39 2 min 0,000 mm 5,1 UV-I 751 W/m 15,0 C 24,6 C 30,6 km/h (5 Bft) 96,00 %
11.08.2019 14:34 26,6 C 25,0 C 36,7 C 49 % 1014,0 hPa 0,0 l/m 19,6 km/h (3 Bft) O-NO 78 2 min 0,000 mm 5,1 UV-I 748 W/m 15,0 C 24,8 C 30,6 km/h (5 Bft) 94,29 %
11.08.2019 14:36 26,6 C 25,0 C 37,2 C 51 % 1013,9 hPa 0,0 l/m 15,4 km/h (3 Bft) N-NO 32 2 min 0,000 mm 5,0 UV-I 744 W/m 15,6 C 25,2 C 25,7 km/h (4 Bft) 96,00 %
11.08.2019 14:38 26,7 C 25,6 C 36,7 C 50 % 1013,9 hPa 0,0 l/m 19,6 km/h (3 Bft) O 81 2 min 0,000 mm 5,0 UV-I 740 W/m 15,4 C 24,9 C 25,7 km/h (4 Bft) 97,87 %
11.08.2019 14:40 26,8 C 25,0 C 36,7 C 50 % 1013,9 hPa 0,0 l/m 20,5 km/h (4 Bft) O-NO 65 2 min 0,000 mm 5,0 UV-I 738 W/m 15,5 C 24,9 C 29,0 km/h (5 Bft) 95,74 %
11.08.2019 14:42 26,8 C 25,0 C 37,2 C 49 % 1013,9 hPa 0,0 l/m 15,8 km/h (3 Bft) O 100 2 min 0,000 mm 4,9 UV-I 735 W/m 15,2 C 25,4 C 20,9 km/h (4 Bft) 97,87 %
11.08.2019 14:44 26,7 C 25,0 C 37,2 C 49 % 1013,8 hPa 0,0 l/m 18,2 km/h (3 Bft) O 81 2 min 0,000 mm 4,9 UV-I 731 W/m 15,1 C 25,0 C 24,1 km/h (4 Bft) 98,00 %
11.08.2019 14:46 26,8 C 25,6 C 37,2 C 50 % 1013,9 hPa 0,0 l/m 17,1 km/h (3 Bft) N-NO 30 2 min 0,000 mm 4,9 UV-I 729 W/m 15,5 C 25,3 C 24,1 km/h (4 Bft) 93,62 %
11.08.2019 14:48 26,8 C 25,6 C 36,7 C 48 % 1013,8 hPa 0,0 l/m 22,3 km/h (4 Bft) O-NO 57 2 min 0,000 mm 4,8 UV-I 728 W/m 14,9 C 24,8 C 32,2 km/h (5 Bft) 97,87 %
11.08.2019 14:50 26,8 C 25,6 C 37,2 C 49 % 1013,7 hPa 0,0 l/m 19,0 km/h (3 Bft) O-NO 62 2 min 0,000 mm 4,8 UV-I 727 W/m 15,2 C 25,1 C 27,4 km/h (4 Bft) 93,62 %
11.08.2019 14:52 26,9 C 25,6 C 36,7 C 49 % 1013,7 hPa 0,0 l/m 20,9 km/h (4 Bft) O-NO 71 2 min 0,000 mm 4,8 UV-I 723 W/m 15,3 C 25,0 C 30,6 km/h (5 Bft) 97,87 %
11.08.2019 14:54 26,9 C 25,6 C 36,7 C 49 % 1013,7 hPa 0,0 l/m 21,3 km/h (4 Bft) NO 54 2 min 0,000 mm 4,7 UV-I 721 W/m 15,3 C 25,0 C 25,7 km/h (4 Bft) 100,00 %
11.08.2019 14:56 26,8 C 25,6 C 36,1 C 49 % 1013,7 hPa 0,0 l/m 18,4 km/h (3 Bft) O-NO 57 2 min 0,000 mm 4,7 UV-I 718 W/m 15,2 C 25,1 C 25,7 km/h (4 Bft) 100,00 %
11.08.2019 14:58 26,9 C 25,6 C 36,7 C 51 % 1013,6 hPa 0,0 l/m 21,1 km/h (4 Bft) O-NO 69 2 min 0,000 mm 4,6 UV-I 715 W/m 15,9 C 25,0 C 30,6 km/h (5 Bft) 98,00 %
11.08.2019 15:00 26,9 C 25,6 C 36,7 C 48 % 1013,6 hPa 0,0 l/m 20,4 km/h (4 Bft) O-NO 70 2 min 0,000 mm 4,6 UV-I 711 W/m 14,9 C 25,1 C 30,6 km/h (5 Bft) 100,00 %
11.08.2019 15:02 26,8 C 25,6 C 37,2 C 50 % 1013,5 hPa 0,0 l/m 15,6 km/h (3 Bft) O 84 2 min 0,635 mm 4,6 UV-I 709 W/m 15,5 C 25,4 C 20,9 km/h (4 Bft) 100,00 %
11.08.2019 15:04 26,8 C 25,6 C 36,7 C 49 % 1013,5 hPa 0,0 l/m 19,4 km/h (3 Bft) O-NO 67 2 min 0,000 mm 4,5 UV-I 707 W/m 15,2 C 25,0 C 29,0 km/h (5 Bft) 100,00 %
11.08.2019 15:06 26,8 C 25,6 C 37,2 C 50 % 1013,4 hPa 0,0 l/m 18,2 km/h (3 Bft) O-NO 69 2 min 0,000 mm 4,5 UV-I 703 W/m 15,5 C 25,2 C 27,4 km/h (4 Bft) 100,00 %
11.08.2019 15:08 27,0 C 25,6 C 37,2 C 51 % 1013,4 hPa 0,0 l/m 18,8 km/h (3 Bft) O-NO 66 2 min 0,000 mm 4,4 UV-I 699 W/m 16,0 C 25,4 C 29,0 km/h (5 Bft) 97,87 %
11.08.2019 15:10 27,1 C 25,6 C 37,2 C 51 % 1013,4 hPa 0,0 l/m 19,1 km/h (3 Bft) O-NO 71 2 min 0,000 mm 4,4 UV-I 695 W/m 16,1 C 25,5 C 24,1 km/h (4 Bft) 100,00 %
11.08.2019 15:12 27,1 C 25,6 C 36,7 C 49 % 1013,4 hPa 0,0 l/m 20,1 km/h (4 Bft) O-NO 78 2 min 0,000 mm 4,3 UV-I 693 W/m 15,4 C 25,4 C 29,0 km/h (5 Bft) 97,87 %
11.08.2019 15:14 27,1 C 25,6 C 36,7 C 49 % 1013,3 hPa 0,0 l/m 21,6 km/h (4 Bft) N-NO 33 2 min 0,000 mm 4,3 UV-I 690 W/m 15,4 C 25,2 C 27,4 km/h (4 Bft) 95,74 %
11.08.2019 15:16 27,1 C 25,6 C 36,1 C 51 % 1013,2 hPa 0,0 l/m 17,2 km/h (3 Bft) O-NO 78 2 min 0,000 mm 4,3 UV-I 687 W/m 16,1 C 25,6 C 20,9 km/h (4 Bft) 100,00 %
11.08.2019 15:18 27,2 C 25,6 C 36,7 C 49 % 1013,3 hPa 0,0 l/m 21,1 km/h (4 Bft) NO 51 2 min 0,000 mm 4,2 UV-I 682 W/m 15,5 C 25,4 C 32,2 km/h (5 Bft) 100,00 %
11.08.2019 15:20 27,2 C 25,6 C 36,7 C 49 % 1013,1 hPa 0,0 l/m 22,7 km/h (4 Bft) O-NO 58 2 min 0,000 mm 4,2 UV-I 680 W/m 15,5 C 25,3 C 32,2 km/h (5 Bft) 100,00 %
11.08.2019 15:22 27,1 C 25,6 C 36,7 C 50 % 1013,2 hPa 0,0 l/m 18,5 km/h (3 Bft) O 84 2 min 0,000 mm 4,1 UV-I 676 W/m 15,8 C 25,5 C 27,4 km/h (4 Bft) 97,87 %
11.08.2019 15:24 27,1 C 25,6 C 37,2 C 50 % 1013,1 hPa 0,0 l/m 16,7 km/h (3 Bft) O 82 2 min 0,000 mm 4,1 UV-I 671 W/m 15,8 C 25,7 C 22,5 km/h (4 Bft) 97,87 %
11.08.2019 15:26 27,1 C 25,6 C 36,7 C 51 % 1013,1 hPa 0,0 l/m 19,1 km/h (3 Bft) NO 53 2 min 0,000 mm 4,0 UV-I 666 W/m 16,1 C 25,5 C 27,4 km/h (4 Bft) 100,00 %
11.08.2019 15:28 27,0 C 25,6 C 36,7 C 51 % 1013,1 hPa 0,0 l/m 19,8 km/h (3 Bft) O-SO 114 2 min 0,000 mm 4,0 UV-I 663 W/m 16,0 C 25,3 C 32,2 km/h (5 Bft) 100,00 %
11.08.2019 15:30 26,9 C 25,6 C 36,7 C 50 % 1013,0 hPa 0,0 l/m 18,7 km/h (3 Bft) O-NO 63 2 min 0,000 mm 4,0 UV-I 659 W/m 15,6 C 25,2 C 25,7 km/h (4 Bft) 100,00 %
11.08.2019 15:32 26,9 C 25,6 C 36,7 C 52 % 1013,0 hPa 0,0 l/m 16,5 km/h (3 Bft) O-NO 61 2 min 0,000 mm 3,9 UV-I 656 W/m 16,2 C 25,4 C 24,1 km/h (4 Bft) 100,00 %
11.08.2019 15:34 27,0 C 25,6 C 37,2 C 52 % 1013,0 hPa 0,0 l/m 19,3 km/h (3 Bft) NO 51 2 min 0,000 mm 3,9 UV-I 651 W/m 16,3 C 25,3 C 29,0 km/h (5 Bft) 97,87 %
11.08.2019 15:36 27,1 C 25,6 C 35,6 C 51 % 1012,8 hPa 0,0 l/m 21,9 km/h (4 Bft) O-NO 60 2 min 0,000 mm 3,8 UV-I 650 W/m 16,1 C 25,2 C 29,0 km/h (5 Bft) 100,00 %
11.08.2019 15:38 27,1 C 25,6 C 35,6 C 53 % 1012,8 hPa 0,0 l/m 19,4 km/h (3 Bft) O 84 2 min 0,000 mm 3,8 UV-I 646 W/m 16,7 C 25,4 C 29,0 km/h (5 Bft) 97,87 %
11.08.2019 15:40 27,2 C 25,6 C 36,7 C 53 % 1012,8 hPa 0,0 l/m 15,0 km/h (3 Bft) O 82 2 min 0,000 mm 3,7 UV-I 641 W/m 16,8 C 26,0 C 20,9 km/h (4 Bft) 100,00 %
11.08.2019 15:42 27,2 C 25,6 C 36,1 C 52 % 1012,8 hPa 0,0 l/m 19,0 km/h (3 Bft) O-NO 74 2 min 0,000 mm 3,7 UV-I 638 W/m 16,5 C 25,6 C 29,0 km/h (5 Bft) 100,00 %
11.08.2019 15:44 27,2 C 25,6 C 36,1 C 53 % 1012,7 hPa 0,0 l/m 22,1 km/h (4 Bft) O-NO 57 2 min 0,000 mm 3,6 UV-I 634 W/m 16,8 C 25,3 C 30,6 km/h (5 Bft) 97,87 %
11.08.2019 15:46 27,2 C 25,6 C 36,7 C 53 % 1012,7 hPa 0,0 l/m 15,4 km/h (3 Bft) NO 46 2 min 0,000 mm 3,6 UV-I 630 W/m 16,8 C 25,9 C 22,5 km/h (4 Bft) 96,00 %
11.08.2019 15:48 27,3 C 25,6 C 36,7 C 52 % 1012,7 hPa 0,0 l/m 16,8 km/h (3 Bft) NO 45 2 min 0,000 mm 3,5 UV-I 625 W/m 16,6 C 25,9 C 24,1 km/h (4 Bft) 97,37 %
11.08.2019 15:50 27,3 C 25,6 C 36,7 C 52 % 1012,6 hPa 0,0 l/m 18,8 km/h (3 Bft) O 93 2 min 0,000 mm 3,5 UV-I 620 W/m 16,6 C 25,7 C 29,0 km/h (5 Bft) 97,87 %
11.08.2019 15:52 27,3 C 25,6 C 37,2 C 52 % 1012,6 hPa 0,0 l/m 16,7 km/h (3 Bft) O-SO 107 2 min 0,000 mm 3,5 UV-I 616 W/m 16,6 C 25,9 C 24,1 km/h (4 Bft) 97,87 %
11.08.2019 15:54 27,3 C 25,6 C 37,2 C 52 % 1012,5 hPa 0,0 l/m 18,6 km/h (3 Bft) O 93 2 min 0,000 mm 3,4 UV-I 612 W/m 16,6 C 25,8 C 25,7 km/h (4 Bft) 97,87 %
11.08.2019 15:56 27,2 C 25,6 C 36,7 C 50 % 1012,5 hPa 0,0 l/m 20,1 km/h (4 Bft) O 94 2 min 0,000 mm 3,4 UV-I 610 W/m 15,9 C 25,5 C 24,1 km/h (4 Bft) 97,87 %
11.08.2019 15:58 27,2 C 25,6 C 36,7 C 52 % 1012,4 hPa 0,0 l/m 18,4 km/h (3 Bft) O 83 2 min 0,000 mm 3,3 UV-I 605 W/m 16,5 C 25,6 C 29,0 km/h (5 Bft) 98,00 %
11.08.2019 16:00 27,2 C 25,6 C 36,1 C 52 % 1012,4 hPa 0,0 l/m 23,4 km/h (4 Bft) NO 55 2 min 0,000 mm 3,3 UV-I 600 W/m 16,5 C 25,2 C 32,2 km/h (5 Bft) 97,87 %
11.08.2019 16:02 27,1 C 25,6 C 36,1 C 51 % 1012,4 hPa 0,0 l/m 19,9 km/h (4 Bft) O 90 2 min 0,584 mm 3,2 UV-I 597 W/m 16,1 C 25,4 C 27,4 km/h (4 Bft) 95,74 %
11.08.2019 16:04 27,0 C 25,6 C 36,7 C 51 % 1012,4 hPa 0,0 l/m 19,2 km/h (3 Bft) O-NO 71 2 min 0,000 mm 3,2 UV-I 593 W/m 16,0 C 25,3 C 25,7 km/h (4 Bft) 96,00 %
11.08.2019 16:06 27,0 C 25,6 C 36,7 C 51 % 1012,3 hPa 0,0 l/m 18,3 km/h (3 Bft) O 86 2 min 0,000 mm 3,1 UV-I 589 W/m 16,0 C 25,4 C 29,0 km/h (5 Bft) 94,74 %
11.08.2019 16:08 27,1 C 25,6 C 36,7 C 52 % 1012,3 hPa 0,0 l/m 19,9 km/h (4 Bft) NO 53 2 min 0,000 mm 3,1 UV-I 585 W/m 16,4 C 25,4 C 27,4 km/h (4 Bft) 95,74 %
11.08.2019 16:10 27,2 C 25,6 C 36,7 C 52 % 1012,2 hPa 0,0 l/m 17,7 km/h (3 Bft) O 92 2 min 0,000 mm 3,1 UV-I 579 W/m 16,5 C 25,7 C 29,0 km/h (5 Bft) 94,34 %
11.08.2019 16:12 27,2 C 25,6 C 36,7 C 53 % 1012,2 hPa 0,0 l/m 17,7 km/h (3 Bft) O-NO 67 2 min 0,000 mm 3,0 UV-I 575 W/m 16,8 C 25,7 C 24,1 km/h (4 Bft) 93,62 %
11.08.2019 16:14 27,3 C 25,6 C 36,7 C 52 % 1012,2 hPa 0,0 l/m 16,3 km/h (3 Bft) N 355 2 min 0,000 mm 3,0 UV-I 570 W/m 16,6 C 26,0 C 25,7 km/h (4 Bft) 95,74 %
11.08.2019 16:16 27,4 C 25,6 C 35,0 C 52 % 1012,1 hPa 0,0 l/m 19,6 km/h (3 Bft) NO 55 2 min 0,000 mm 2,9 UV-I 565 W/m 16,7 C 25,8 C 27,4 km/h (4 Bft) 94,44 %
11.08.2019 16:18 27,4 C 25,6 C 36,1 C 53 % 1012,0 hPa 0,0 l/m 16,4 km/h (3 Bft) O-NO 64 2 min 0,000 mm 2,9 UV-I 561 W/m 17,0 C 26,1 C 24,1 km/h (4 Bft) 96,00 %
11.08.2019 16:20 27,5 C 25,6 C 36,1 C 53 % 1012,0 hPa 0,0 l/m 16,7 km/h (3 Bft) NO 48 2 min 0,000 mm 2,8 UV-I 556 W/m 17,0 C 26,2 C 22,5 km/h (4 Bft) 95,74 %
11.08.2019 16:22 27,6 C 25,6 C 36,7 C 52 % 1012,0 hPa 0,0 l/m 21,4 km/h (4 Bft) O 80 2 min 0,000 mm 2,8 UV-I 552 W/m 16,8 C 25,9 C 27,4 km/h (4 Bft) 98,00 %
11.08.2019 16:24 27,6 C 25,6 C 36,7 C 50 % 1012,0 hPa 0,0 l/m 20,4 km/h (4 Bft) O-NO 78 2 min 0,000 mm 2,7 UV-I 547 W/m 16,2 C 26,0 C 25,7 km/h (4 Bft) 91,49 %
11.08.2019 16:26 27,4 C 25,6 C 36,7 C 51 % 1012,0 hPa 0,0 l/m 16,8 km/h (3 Bft) NO 44 2 min 0,000 mm 2,7 UV-I 543 W/m 16,3 C 26,0 C 24,1 km/h (4 Bft) 93,62 %
11.08.2019 16:28 27,4 C 25,6 C 36,1 C 52 % 1012,0 hPa 0,0 l/m 18,5 km/h (3 Bft) O-NO 74 2 min 0,000 mm 2,6 UV-I 538 W/m 16,7 C 25,9 C 27,4 km/h (4 Bft) 95,74 %
11.08.2019 16:30 27,4 C 25,6 C 35,6 C 52 % 1011,9 hPa 0,0 l/m 22,2 km/h (4 Bft) O-NO 62 2 min 0,000 mm 2,6 UV-I 533 W/m 16,7 C 25,6 C 27,4 km/h (4 Bft) 93,62 %
11.08.2019 16:32 27,4 C 25,6 C 36,1 C 53 % 1011,9 hPa 0,0 l/m 19,5 km/h (3 Bft) NO 53 2 min 0,000 mm 2,6 UV-I 529 W/m 17,0 C 25,8 C 27,4 km/h (4 Bft) 91,49 %
11.08.2019 16:34 27,4 C 25,6 C 36,7 C 52 % 1011,8 hPa 0,0 l/m 17,4 km/h (3 Bft) O 84 2 min 0,000 mm 2,5 UV-I 524 W/m 16,7 C 26,0 C 24,1 km/h (4 Bft) 96,00 %
11.08.2019 16:36 27,5 C 25,6 C 36,7 C 52 % 1011,8 hPa 0,0 l/m 17,0 km/h (3 Bft) NO 44 2 min 0,000 mm 2,5 UV-I 519 W/m 16,7 C 26,1 C 24,1 km/h (4 Bft) 93,62 %
11.08.2019 16:38 27,6 C 25,6 C 36,7 C 53 % 1011,7 hPa 0,0 l/m 18,5 km/h (3 Bft) O-NO 57 2 min 0,000 mm 2,4 UV-I 514 W/m 17,1 C 26,1 C 24,1 km/h (4 Bft) 96,00 %
11.08.2019 16:40 27,6 C 25,6 C 36,1 C 53 % 1011,7 hPa 0,0 l/m 18,1 km/h (3 Bft) NO 43 2 min 0,000 mm 2,4 UV-I 510 W/m 17,1 C 26,2 C 32,2 km/h (5 Bft) 95,74 %
11.08.2019 16:42 27,6 C 25,6 C 36,1 C 53 % 1011,7 hPa 0,0 l/m 15,7 km/h (3 Bft) O-NO 61 2 min 0,000 mm 2,3 UV-I 505 W/m 17,1 C 26,4 C 20,9 km/h (4 Bft) 94,29 %
11.08.2019 16:44 27,7 C 25,6 C 36,1 C 53 % 1011,6 hPa 0,0 l/m 17,0 km/h (3 Bft) O 81 2 min 0,000 mm 2,3 UV-I 500 W/m 17,2 C 26,4 C 25,7 km/h (4 Bft) 98,00 %
11.08.2019 16:46 27,7 C 25,6 C 36,1 C 53 % 1011,6 hPa 0,0 l/m 19,5 km/h (3 Bft) O-NO 65 2 min 0,000 mm 2,2 UV-I 495 W/m 17,2 C 26,2 C 25,7 km/h (4 Bft) 95,74 %
11.08.2019 16:48 27,7 C 25,6 C 35,6 C 52 % 1011,6 hPa 0,0 l/m 19,6 km/h (3 Bft) O-SO 114 2 min 0,000 mm 2,2 UV-I 489 W/m 16,9 C 26,2 C 27,4 km/h (4 Bft) 95,74 %
11.08.2019 16:50 27,6 C 25,6 C 35,6 C 51 % 1011,6 hPa 0,0 l/m 19,0 km/h (3 Bft) O-NO 63 2 min 0,000 mm 2,2 UV-I 483 W/m 16,5 C 26,1 C 29,0 km/h (5 Bft) 95,74 %
11.08.2019 16:52 27,6 C 25,6 C 36,1 C 52 % 1011,5 hPa 0,0 l/m 17,2 km/h (3 Bft) O-NO 77 2 min 0,000 mm 2,1 UV-I 479 W/m 16,8 C 26,3 C 27,4 km/h (4 Bft) 98,00 %
11.08.2019 16:54 27,6 C 25,6 C 36,1 C 53 % 1011,5 hPa 0,0 l/m 17,3 km/h (3 Bft) O 90 2 min 0,000 mm 2,1 UV-I 475 W/m 17,1 C 26,2 C 22,5 km/h (4 Bft) 95,74 %
11.08.2019 16:56 27,6 C 25,6 C 36,1 C 52 % 1011,5 hPa 0,0 l/m 20,4 km/h (4 Bft) O 98 2 min 0,000 mm 2,0 UV-I 469 W/m 16,8 C 26,0 C 27,4 km/h (4 Bft) 96,00 %
11.08.2019 16:58 27,6 C 25,6 C 35,6 C 51 % 1011,5 hPa 0,0 l/m 20,8 km/h (4 Bft) O-NO 75 2 min 0,000 mm 2,0 UV-I 463 W/m 16,5 C 26,0 C 30,6 km/h (5 Bft) 95,83 %
11.08.2019 17:00 27,6 C 25,6 C 35,6 C 51 % 1011,4 hPa 0,0 l/m 19,8 km/h (3 Bft) O-NO 65 2 min 0,482 mm 2,0 UV-I 459 W/m 16,5 C 26,0 C 25,7 km/h (4 Bft) 95,74 %
11.08.2019 17:02 27,6 C 25,6 C 36,1 C 52 % 1011,4 hPa 0,0 l/m 16,3 km/h (3 Bft) O 84 2 min 0,000 mm 1,9 UV-I 454 W/m 16,8 C 26,3 C 22,5 km/h (4 Bft) 97,87 %
11.08.2019 17:04 27,6 C 25,6 C 35,6 C 52 % 1011,3 hPa 0,0 l/m 19,8 km/h (3 Bft) O 88 2 min 0,000 mm 1,9 UV-I 448 W/m 16,8 C 26,0 C 29,0 km/h (5 Bft) 95,74 %
11.08.2019 17:06 27,6 C 25,6 C 35,6 C 52 % 1011,3 hPa 0,0 l/m 19,1 km/h (3 Bft) O 84 2 min 0,000 mm 1,8 UV-I 444 W/m 16,8 C 26,1 C 25,7 km/h (4 Bft) 97,14 %
11.08.2019 17:08 27,6 C 25,6 C 35,0 C 53 % 1011,3 hPa 0,0 l/m 19,2 km/h (3 Bft) O-NO 60 2 min 0,000 mm 1,8 UV-I 438 W/m 17,1 C 26,1 C 25,7 km/h (4 Bft) 98,08 %
11.08.2019 17:10 27,6 C 25,6 C 35,6 C 53 % 1011,2 hPa 0,0 l/m 17,7 km/h (3 Bft) NO 51 2 min 0,000 mm 1,7 UV-I 434 W/m 17,1 C 26,2 C 27,4 km/h (4 Bft) 97,87 %
11.08.2019 17:12 27,6 C 25,6 C 35,6 C 52 % 1011,2 hPa 0,0 l/m 17,9 km/h (3 Bft) O-NO 66 2 min 0,000 mm 1,7 UV-I 429 W/m 16,8 C 26,2 C 24,1 km/h (4 Bft) 96,23 %
11.08.2019 17:14 27,6 C 25,6 C 35,6 C 53 % 1011,2 hPa 0,0 l/m 16,1 km/h (3 Bft) O-NO 67 2 min 0,000 mm 1,7 UV-I 424 W/m 17,1 C 26,4 C 27,4 km/h (4 Bft) 95,74 %
11.08.2019 17:16 27,6 C 25,6 C 35,6 C 53 % 1011,2 hPa 0,0 l/m 18,9 km/h (3 Bft) O 86 2 min 0,000 mm 1,6 UV-I 420 W/m 17,1 C 26,1 C 27,4 km/h (4 Bft) 97,87 %
11.08.2019 17:18 27,6 C 25,6 C 35,6 C 53 % 1011,1 hPa 0,0 l/m 18,3 km/h (3 Bft) NO 53 2 min 0,000 mm 1,6 UV-I 414 W/m 17,1 C 26,2 C 27,4 km/h (4 Bft) 94,74 %
11.08.2019 17:20 27,6 C 25,6 C 35,6 C 52 % 1011,1 hPa 0,0 l/m 21,0 km/h (4 Bft) O-NO 63 2 min 0,000 mm 1,6 UV-I 409 W/m 16,8 C 25,9 C 29,0 km/h (5 Bft) 100,00 %
11.08.2019 17:22 27,6 C 25,6 C 35,0 C 52 % 1011,0 hPa 0,0 l/m 20,6 km/h (4 Bft) O 82 2 min 0,000 mm 1,5 UV-I 404 W/m 16,8 C 26,0 C 27,4 km/h (4 Bft) 100,00 %
11.08.2019 17:24 27,6 C 25,6 C 35,6 C 53 % 1011,0 hPa 0,0 l/m 17,1 km/h (3 Bft) O-NO 64 2 min 0,000 mm 1,5 UV-I 398 W/m 17,1 C 26,3 C 24,1 km/h (4 Bft) 95,74 %
11.08.2019 17:26 27,6 C 25,6 C 35,0 C 52 % 1010,9 hPa 0,0 l/m 18,4 km/h (3 Bft) NO 53 2 min 0,000 mm 1,4 UV-I 393 W/m 16,8 C 26,2 C 27,4 km/h (4 Bft) 96,00 %
11.08.2019 17:28 27,6 C 25,6 C 35,0 C 52 % 1010,8 hPa 0,0 l/m 20,9 km/h (4 Bft) O-SO 123 2 min 0,000 mm 1,4 UV-I 388 W/m 16,8 C 26,0 C 27,4 km/h (4 Bft) 95,74 %
11.08.2019 17:30 27,6 C 25,6 C 35,6 C 52 % 1010,8 hPa 0,0 l/m 18,0 km/h (3 Bft) O-SO 112 2 min 0,000 mm 1,4 UV-I 383 W/m 16,8 C 26,2 C 25,7 km/h (4 Bft) 96,00 %
11.08.2019 17:32 27,7 C 25,6 C 35,0 C 52 % 1010,8 hPa 0,0 l/m 16,5 km/h (3 Bft) O-NO 61 2 min 0,000 mm 1,4 UV-I 378 W/m 16,9 C 26,4 C 24,1 km/h (4 Bft) 100,00 %
11.08.2019 17:34 27,7 C 25,6 C 34,4 C 51 % 1010,7 hPa 0,0 l/m 21,0 km/h (4 Bft) O-NO 65 2 min 0,000 mm 1,3 UV-I 372 W/m 16,6 C 26,1 C 27,4 km/h (4 Bft) 96,00 %
11.08.2019 17:36 27,6 C 25,6 C 35,0 C 52 % 1010,8 hPa 0,0 l/m 18,6 km/h (3 Bft) O-NO 74 2 min 0,000 mm 1,3 UV-I 366 W/m 16,8 C 26,1 C 27,4 km/h (4 Bft) 98,00 %
11.08.2019 17:38 27,6 C 25,6 C 35,0 C 51 % 1010,7 hPa 0,0 l/m 18,7 km/h (3 Bft) O-NO 74 2 min 0,000 mm 1,3 UV-I 360 W/m 16,5 C 26,1 C 27,4 km/h (4 Bft) 95,74 %
11.08.2019 17:40 27,6 C 25,6 C 34,4 C 51 % 1010,7 hPa 0,0 l/m 24,3 km/h (4 Bft) O 86 2 min 0,000 mm 1,2 UV-I 355 W/m 16,5 C 25,7 C 32,2 km/h (5 Bft) 98,00 %
11.08.2019 17:42 27,6 C 25,6 C 34,4 C 51 % 1010,7 hPa 0,0 l/m 19,5 km/h (3 Bft) O-NO 78 2 min 0,000 mm 1,2 UV-I 351 W/m 16,5 C 26,1 C 29,0 km/h (5 Bft) 93,62 %
11.08.2019 17:44 27,6 C 25,6 C 35,0 C 52 % 1010,7 hPa 0,0 l/m 17,6 km/h (3 Bft) O 92 2 min 0,000 mm 1,2 UV-I 346 W/m 16,8 C 26,2 C 22,5 km/h (4 Bft) 97,87 %
11.08.2019 17:46 27,5 C 25,6 C 34,4 C 52 % 1010,7 hPa 0,0 l/m 18,0 km/h (3 Bft) O-NO 63 2 min 0,000 mm 1,1 UV-I 340 W/m 16,7 C 26,1 C 27,4 km/h (4 Bft) 97,87 %
11.08.2019 17:48 27,5 C 25,6 C 34,4 C 52 % 1010,6 hPa 0,0 l/m 19,3 km/h (3 Bft) O-NO 71 2 min 0,000 mm 1,1 UV-I 333 W/m 16,7 C 26,0 C 30,6 km/h (5 Bft) 97,37 %
11.08.2019 17:50 27,5 C 25,6 C 34,4 C 53 % 1010,6 hPa 0,0 l/m 20,9 km/h (4 Bft) O-NO 74 2 min 0,000 mm 1,1 UV-I 328 W/m 17,0 C 25,8 C 33,8 km/h (5 Bft) 100,00 %
11.08.2019 17:52 27,5 C 25,6 C 34,4 C 53 % 1010,6 hPa 0,0 l/m 18,1 km/h (3 Bft) NO 49 2 min 0,000 mm 1,0 UV-I 322 W/m 17,0 C 26,0 C 24,1 km/h (4 Bft) 97,87 %
11.08.2019 17:54 27,5 C 25,6 C 33,9 C 52 % 1010,5 hPa 0,0 l/m 15,2 km/h (3 Bft) O 87 2 min 0,000 mm 1,0 UV-I 317 W/m 16,7 C 26,3 C 20,9 km/h (4 Bft) 96,00 %
11.08.2019 17:56 27,5 C 25,6 C 33,9 C 53 % 1010,4 hPa 0,0 l/m 17,0 km/h (3 Bft) NO 51 2 min 0,000 mm 1,0 UV-I 311 W/m 17,0 C 26,1 C 22,5 km/h (4 Bft) 100,00 %
11.08.2019 17:58 27,6 C 25,6 C 33,9 C 53 % 1010,4 hPa 0,0 l/m 19,3 km/h (3 Bft) O-NO 61 2 min 0,000 mm 0,9 UV-I 306 W/m 17,1 C 26,1 C 25,7 km/h (4 Bft) 97,87 %
11.08.2019 18:00 27,6 C 25,6 C 34,4 C 53 % 1010,3 hPa 0,0 l/m 16,2 km/h (3 Bft) N-NO 26 2 min 0,000 mm 0,9 UV-I 302 W/m 17,1 C 26,3 C 20,9 km/h (4 Bft) 98,00 %
11.08.2019 18:02 27,6 C 25,6 C 33,9 C 52 % 1010,3 hPa 0,0 l/m 18,3 km/h (3 Bft) O 82 2 min 0,381 mm 0,9 UV-I 296 W/m 16,8 C 26,2 C 29,0 km/h (5 Bft) 100,00 %
11.08.2019 18:04 27,6 C 25,6 C 33,3 C 52 % 1010,3 hPa 0,0 l/m 19,6 km/h (3 Bft) O-NO 67 2 min 0,000 mm 0,9 UV-I 290 W/m 16,8 C 26,1 C 29,0 km/h (5 Bft) 97,87 %
11.08.2019 18:06 27,5 C 25,6 C 33,3 C 52 % 1010,2 hPa 0,0 l/m 21,3 km/h (4 Bft) O-NO 67 2 min 0,000 mm 0,8 UV-I 285 W/m 16,7 C 25,8 C 30,6 km/h (5 Bft) 97,92 %
11.08.2019 18:08 27,5 C 25,6 C 33,3 C 52 % 1010,1 hPa 0,0 l/m 19,2 km/h (3 Bft) O-NO 77 2 min 0,000 mm 0,8 UV-I 279 W/m 16,7 C 26,0 C 25,7 km/h (4 Bft) 97,87 %
11.08.2019 18:10 27,5 C 25,6 C 33,3 C 52 % 1010,1 hPa 0,0 l/m 18,9 km/h (3 Bft) O 90 2 min 0,000 mm 0,8 UV-I 274 W/m 16,7 C 26,0 C 27,4 km/h (4 Bft) 97,87 %
11.08.2019 18:12 27,4 C 25,6 C 33,3 C 51 % 1010,1 hPa 0,0 l/m 20,6 km/h (4 Bft) O-SO 112 2 min 0,000 mm 0,8 UV-I 268 W/m 16,3 C 25,7 C 27,4 km/h (4 Bft) 97,87 %
11.08.2019 18:14 27,4 C 25,6 C 33,3 C 52 % 1010,1 hPa 0,0 l/m 21,2 km/h (4 Bft) O-SO 116 2 min 0,000 mm 0,7 UV-I 263 W/m 16,7 C 25,7 C 30,6 km/h (5 Bft) 96,00 %
11.08.2019 18:16 27,4 C 25,6 C 33,3 C 53 % 1010,1 hPa 0,0 l/m 18,4 km/h (3 Bft) O 93 2 min 0,000 mm 0,7 UV-I 258 W/m 17,0 C 25,9 C 29,0 km/h (5 Bft) 97,87 %
11.08.2019 18:18 27,4 C 25,6 C 33,3 C 52 % 1010,0 hPa 0,0 l/m 17,2 km/h (3 Bft) O-NO 76 2 min 0,000 mm 0,7 UV-I 252 W/m 16,7 C 26,0 C 25,7 km/h (4 Bft) 97,87 %
11.08.2019 18:20 27,4 C 25,6 C 32,8 C 53 % 1010,0 hPa 0,0 l/m 15,2 km/h (3 Bft) O-NO 78 2 min 0,000 mm 0,7 UV-I 247 W/m 17,0 C 26,2 C 25,7 km/h (4 Bft) 96,00 %
11.08.2019 18:22 27,4 C 25,6 C 32,2 C 52 % 1010,0 hPa 0,0 l/m 18,1 km/h (3 Bft) O 80 2 min 0,000 mm 0,6 UV-I 241 W/m 16,7 C 25,9 C 25,7 km/h (4 Bft) 94,74 %
11.08.2019 18:24 27,3 C 25,6 C 32,2 C 53 % 1009,9 hPa 0,0 l/m 20,6 km/h (4 Bft) O-NO 64 2 min 0,000 mm 0,6 UV-I 235 W/m 16,9 C 25,6 C 29,0 km/h (5 Bft) 95,74 %
11.08.2019 18:26 27,3 C 25,6 C 31,7 C 53 % 1010,0 hPa 0,0 l/m 18,1 km/h (3 Bft) O 92 2 min 0,000 mm 0,6 UV-I 230 W/m 16,9 C 25,8 C 24,1 km/h (4 Bft) 98,00 %
11.08.2019 18:28 27,2 C 25,6 C 32,2 C 53 % 1009,9 hPa 0,0 l/m 14,4 km/h (3 Bft) NO 56 2 min 0,000 mm 0,6 UV-I 226 W/m 16,8 C 26,0 C 22,5 km/h (4 Bft) 97,87 %
11.08.2019 18:30 27,2 C 25,6 C 31,7 C 54 % 1009,9 hPa 0,0 l/m 18,2 km/h (3 Bft) O-NO 59 2 min 0,000 mm 0,6 UV-I 220 W/m 17,1 C 25,7 C 24,1 km/h (4 Bft) 95,74 %
11.08.2019 18:32 27,2 C 25,6 C 31,7 C 54 % 1009,9 hPa 0,0 l/m 17,3 km/h (3 Bft) O 87 2 min 0,000 mm 0,5 UV-I 216 W/m 17,1 C 25,7 C 24,1 km/h (4 Bft) 98,11 %
11.08.2019 18:34 27,2 C 25,6 C 31,7 C 54 % 1009,9 hPa 0,0 l/m 18,8 km/h (3 Bft) O 95 2 min 0,000 mm 0,5 UV-I 211 W/m 17,1 C 25,6 C 30,6 km/h (5 Bft) 97,87 %
11.08.2019 18:36 27,2 C 25,6 C 31,1 C 53 % 1009,9 hPa 0,0 l/m 19,9 km/h (4 Bft) O 91 2 min 0,000 mm 0,5 UV-I 206 W/m 16,8 C 25,5 C 27,4 km/h (4 Bft) 97,87 %
11.08.2019 18:38 27,2 C 25,6 C 31,1 C 54 % 1009,8 hPa 0,0 l/m 13,5 km/h (3 Bft) O 86 2 min 0,000 mm 0,5 UV-I 200 W/m 17,1 C 26,1 C 19,3 km/h (3 Bft) 100,00 %
11.08.2019 18:40 27,1 C 25,6 C 31,1 C 54 % 1009,8 hPa 0,0 l/m 15,8 km/h (3 Bft) O 80 2 min 0,000 mm 0,3 UV-I 195 W/m 17,0 C 25,8 C 25,7 km/h (4 Bft) 97,92 %
11.08.2019 18:42 27,1 C 25,6 C 31,1 C 54 % 1009,8 hPa 0,0 l/m 17,6 km/h (3 Bft) O 96 2 min 0,000 mm 0,0 UV-I 189 W/m 17,0 C 25,6 C 24,1 km/h (4 Bft) 98,04 %
11.08.2019 18:44 27,1 C 25,6 C 31,7 C 54 % 1009,7 hPa 0,0 l/m 14,5 km/h (3 Bft) O 80 2 min 0,000 mm 0,0 UV-I 183 W/m 17,0 C 25,9 C 17,7 km/h (3 Bft) 95,83 %
11.08.2019 18:46 27,0 C 25,6 C 31,7 C 55 % 1009,7 hPa 0,0 l/m 11,2 km/h (2 Bft) NO 53 2 min 0,000 mm 0,0 UV-I 179 W/m 17,2 C 26,2 C 16,1 km/h (3 Bft) 100,00 %
11.08.2019 18:48 27,0 C 25,6 C 31,7 C 56 % 1009,7 hPa 0,0 l/m 11,0 km/h (2 Bft) O-NO 77 2 min 0,000 mm 0,0 UV-I 173 W/m 17,5 C 26,2 C 22,5 km/h (4 Bft) 95,74 %
11.08.2019 18:50 26,9 C 25,6 C 31,7 C 54 % 1009,7 hPa 0,0 l/m 12,8 km/h (3 Bft) NO 49 2 min 0,000 mm 0,0 UV-I 169 W/m 16,8 C 25,9 C 19,3 km/h (3 Bft) 100,00 %
11.08.2019 18:52 26,9 C 25,6 C 31,7 C 56 % 1009,7 hPa 0,0 l/m 11,3 km/h (2 Bft) NO 38 2 min 0,000 mm 0,0 UV-I 164 W/m 17,4 C 26,1 C 17,7 km/h (3 Bft) 95,74 %
11.08.2019 18:54 26,8 C 25,6 C 31,1 C 55 % 1009,7 hPa 0,0 l/m 13,2 km/h (3 Bft) O-NO 63 2 min 0,000 mm 0,0 UV-I 159 W/m 17,0 C 25,7 C 19,3 km/h (3 Bft) 100,00 %
11.08.2019 18:56 26,8 C 25,6 C 30,6 C 55 % 1009,7 hPa 0,0 l/m 13,6 km/h (3 Bft) O 94 2 min 0,000 mm 0,0 UV-I 155 W/m 17,0 C 25,7 C 19,3 km/h (3 Bft) 100,00 %
11.08.2019 18:58 26,7 C 25,6 C 30,0 C 54 % 1009,7 hPa 0,0 l/m 14,6 km/h (3 Bft) O-NO 69 2 min 0,000 mm 0,0 UV-I 149 W/m 16,6 C 25,4 C 20,9 km/h (4 Bft) 97,37 %
11.08.2019 19:00 26,7 C 25,6 C 30,0 C 55 % 1009,7 hPa 0,0 l/m 15,0 km/h (3 Bft) NO 49 2 min 0,000 mm 0,0 UV-I 144 W/m 16,9 C 25,4 C 24,1 km/h (4 Bft) 98,00 %
11.08.2019 19:02 26,6 C 25,6 C 30,0 C 55 % 1009,6 hPa 0,0 l/m 12,6 km/h (3 Bft) O-NO 57 2 min 0,280 mm 0,0 UV-I 141 W/m 16,8 C 25,5 C 17,7 km/h (3 Bft) 96,23 %
11.08.2019 19:04 26,6 C 25,6 C 30,0 C 56 % 1009,6 hPa 0,0 l/m 12,6 km/h (3 Bft) O-NO 58 2 min 0,000 mm 0,0 UV-I 136 W/m 17,1 C 25,5 C 20,9 km/h (4 Bft) 97,37 %
11.08.2019 19:06 26,5 C 25,6 C 29,4 C 56 % 1009,5 hPa 0,0 l/m 11,7 km/h (2 Bft) O-NO 57 2 min 0,000 mm 0,0 UV-I 132 W/m 17,0 C 25,6 C 16,1 km/h (3 Bft) 97,87 %
11.08.2019 19:08 26,4 C 25,6 C 28,9 C 55 % 1009,5 hPa 0,0 l/m 16,7 km/h (3 Bft) O-NO 57 2 min 0,000 mm 0,0 UV-I 127 W/m 16,6 C 24,8 C 25,7 km/h (4 Bft) 97,87 %
11.08.2019 19:10 26,4 C 25,6 C 28,9 C 55 % 1009,4 hPa 0,0 l/m 17,5 km/h (3 Bft) O-NO 71 2 min 0,000 mm 0,0 UV-I 122 W/m 16,6 C 24,7 C 22,5 km/h (4 Bft) 95,74 %
11.08.2019 19:12 26,3 C 25,6 C 27,8 C 56 % 1009,4 hPa 0,0 l/m 13,5 km/h (3 Bft) O 80 2 min 0,000 mm 0,0 UV-I 119 W/m 16,8 C 25,1 C 20,9 km/h (4 Bft) 93,62 %
11.08.2019 19:14 26,3 C 25,6 C 27,2 C 55 % 1009,4 hPa 0,0 l/m 14,8 km/h (3 Bft) O 99 2 min 0,000 mm 0,0 UV-I 114 W/m 16,5 C 24,9 C 22,5 km/h (4 Bft) 98,00 %
11.08.2019 19:16 26,3 C 25,6 C 26,7 C 56 % 1009,3 hPa 0,0 l/m 14,0 km/h (3 Bft) O 80 2 min 0,000 mm 0,0 UV-I 110 W/m 16,8 C 25,0 C 19,3 km/h (3 Bft) 96,00 %
11.08.2019 19:18 26,2 C 25,6 C 26,7 C 57 % 1009,3 hPa 0,0 l/m 14,0 km/h (3 Bft) O-NO 74 2 min 0,000 mm 0,0 UV-I 104 W/m 17,0 C 24,9 C 19,3 km/h (3 Bft) 97,22 %
11.08.2019 19:20 26,2 C 25,6 C 26,1 C 56 % 1009,3 hPa 0,0 l/m 15,8 km/h (3 Bft) O 80 2 min 0,000 mm 0,0 UV-I 100 W/m 16,7 C 24,7 C 22,5 km/h (4 Bft) 98,00 %
11.08.2019 19:22 26,1 C 25,6 C 26,1 C 57 % 1009,3 hPa 0,0 l/m 10,4 km/h (2 Bft) O-NO 67 2 min 0,000 mm 0,0 UV-I 96 W/m 16,9 C 25,3 C 16,1 km/h (3 Bft) 93,62 %
11.08.2019 19:24 26,1 C 25,6 C 25,6 C 57 % 1009,3 hPa 0,0 l/m 10,5 km/h (2 Bft) O 80 2 min 0,000 mm 0,0 UV-I 93 W/m 16,9 C 25,3 C 19,3 km/h (3 Bft) 97,87 %
11.08.2019 19:26 26,0 C 25,6 C 25,6 C 57 % 1009,3 hPa 0,0 l/m 14,9 km/h (3 Bft) O 97 2 min 0,000 mm 0,0 UV-I 89 W/m 16,8 C 24,5 C 24,1 km/h (4 Bft) 100,00 %
11.08.2019 19:28 25,9 C 25,6 C 25,6 C 58 % 1009,3 hPa 0,0 l/m 15,7 km/h (3 Bft) O-NO 69 2 min 0,000 mm 0,0 UV-I 85 W/m 17,0 C 24,3 C 22,5 km/h (4 Bft) 100,00 %
11.08.2019 19:30 25,9 C 25,6 C 25,6 C 58 % 1009,3 hPa 0,0 l/m 14,9 km/h (3 Bft) O 93 2 min 0,000 mm 0,0 UV-I 81 W/m 17,0 C 24,4 C 22,5 km/h (4 Bft) 100,00 %
11.08.2019 19:32 25,8 C 25,6 C 25,0 C 58 % 1009,3 hPa 0,0 l/m 10,3 km/h (2 Bft) O-NO 69 2 min 0,000 mm 0,0 UV-I 77 W/m 16,9 C 25,0 C 17,7 km/h (3 Bft) 95,74 %
11.08.2019 19:34 25,7 C 25,6 C 25,0 C 58 % 1009,2 hPa 0,0 l/m 14,3 km/h (3 Bft) O-NO 70 2 min 0,000 mm 0,0 UV-I 73 W/m 16,8 C 24,3 C 24,1 km/h (4 Bft) 97,87 %
11.08.2019 19:36 25,7 C 25,6 C 25,0 C 58 % 1009,2 hPa 0,0 l/m 15,5 km/h (3 Bft) NO 51 2 min 0,000 mm 0,0 UV-I 69 W/m 16,8 C 24,1 C 22,5 km/h (4 Bft) 100,00 %
11.08.2019 19:38 25,7 C 25,6 C 25,0 C 58 % 1009,1 hPa 0,0 l/m 13,1 km/h (3 Bft) O 80 2 min 0,000 mm 0,0 UV-I 68 W/m 16,8 C 24,4 C 19,3 km/h (3 Bft) 95,74 %
11.08.2019 19:40 25,6 C 25,6 C 25,0 C 58 % 1009,2 hPa 0,0 l/m 17,3 km/h (3 Bft) O-NO 71 2 min 0,000 mm 0,0 UV-I 63 W/m 16,7 C 23,7 C 22,5 km/h (4 Bft) 97,87 %
11.08.2019 19:42 25,6 C 25,6 C 25,0 C 58 % 1009,2 hPa 0,0 l/m 16,3 km/h (3 Bft) O-NO 62 2 min 0,000 mm 0,0 UV-I 60 W/m 16,7 C 23,9 C 22,5 km/h (4 Bft) 97,87 %
11.08.2019 19:44 25,5 C 25,6 C 25,0 C 59 % 1009,2 hPa 0,0 l/m 14,2 km/h (3 Bft) O 86 2 min 0,000 mm 0,0 UV-I 56 W/m 16,9 C 24,0 C 17,7 km/h (3 Bft) 96,00 %
11.08.2019 19:46 25,4 C 25,6 C 25,0 C 59 % 1009,1 hPa 0,0 l/m 15,4 km/h (3 Bft) O-NO 68 2 min 0,000 mm 0,0 UV-I 53 W/m 16,8 C 23,7 C 20,9 km/h (4 Bft) 100,00 %
11.08.2019 19:48 25,4 C 25,6 C 24,4 C 59 % 1009,2 hPa 0,0 l/m 14,2 km/h (3 Bft) O-NO 71 2 min 0,000 mm 0,0 UV-I 49 W/m 16,8 C 23,9 C 20,9 km/h (4 Bft) 97,87 %
11.08.2019 19:50 25,3 C 25,6 C 24,4 C 59 % 1009,2 hPa 0,0 l/m 12,7 km/h (3 Bft) O 80 2 min 0,000 mm 0,0 UV-I 47 W/m 16,7 C 24,0 C 19,3 km/h (3 Bft) 100,00 %
11.08.2019 19:52 25,2 C 25,6 C 24,4 C 59 % 1009,3 hPa 0,0 l/m 11,4 km/h (2 Bft) NO 45 2 min 0,000 mm 0,0 UV-I 44 W/m 16,6 C 24,1 C 16,1 km/h (3 Bft) 100,00 %
11.08.2019 19:54 25,2 C 25,6 C 23,9 C 60 % 1009,3 hPa 0,0 l/m 13,3 km/h (3 Bft) O 82 2 min 0,000 mm 0,0 UV-I 41 W/m 16,9 C 23,8 C 19,3 km/h (3 Bft) 100,00 %
11.08.2019 19:56 25,1 C 25,6 C 23,9 C 60 % 1009,3 hPa 0,0 l/m 12,8 km/h (3 Bft) O 81 2 min 0,000 mm 0,0 UV-I 38 W/m 16,8 C 23,8 C 17,7 km/h (3 Bft) 97,87 %
11.08.2019 19:58 25,0 C 25,6 C 23,9 C 60 % 1009,3 hPa 0,0 l/m 14,1 km/h (3 Bft) O-NO 68 2 min 0,000 mm 0,0 UV-I 36 W/m 16,7 C 23,4 C 19,3 km/h (3 Bft) 95,83 %
11.08.2019 20:00 24,9 C 25,6 C 23,9 C 60 % 1009,3 hPa 0,0 l/m 15,7 km/h (3 Bft) O-NO 74 2 min 0,000 mm 0,0 UV-I 30 W/m 16,6 C 23,1 C 22,5 km/h (4 Bft) 93,62 %
11.08.2019 20:02 24,9 C 25,6 C 23,9 C 60 % 1009,3 hPa 0,0 l/m 17,0 km/h (3 Bft) O 86 0 min 0,152 mm 0,0 UV-I 24 W/m 16,6 C 22,9 C 22,5 km/h (4 Bft) 97,87 %
11.08.2019 20:04 24,9 C 25,6 C 23,3 C 60 % 1009,4 hPa 0,0 l/m 12,6 km/h (3 Bft) O-NO 66 0 min 0,000 mm 0,0 UV-I 21 W/m 16,6 C 23,6 C 17,7 km/h (3 Bft) 95,74 %
11.08.2019 20:06 24,8 C 25,6 C 23,3 C 61 % 1009,3 hPa 0,0 l/m 12,0 km/h (2 Bft) O-NO 71 2 min 0,000 mm 0,0 UV-I 21 W/m 16,8 C 23,6 C 17,7 km/h (3 Bft) 97,87 %
11.08.2019 20:08 24,8 C 25,6 C 23,3 C 61 % 1009,3 hPa 0,0 l/m 9,9 km/h (2 Bft) O-NO 67 2 min 0,000 mm 0,0 UV-I 20 W/m 16,8 C 24,0 C 14,5 km/h (3 Bft) 98,00 %
11.08.2019 20:10 24,8 C 25,6 C 23,3 C 61 % 1009,3 hPa 0,0 l/m 13,2 km/h (3 Bft) O-NO 78 2 min 0,000 mm 0,0 UV-I 19 W/m 16,8 C 23,3 C 19,3 km/h (3 Bft) 97,87 %
11.08.2019 20:12 24,7 C 25,6 C 23,3 C 61 % 1009,3 hPa 0,0 l/m 11,7 km/h (2 Bft) O 88 2 min 0,000 mm 0,0 UV-I 16 W/m 16,7 C 23,5 C 16,1 km/h (3 Bft) 97,87 %
11.08.2019 20:14 24,6 C 25,6 C 23,3 C 61 % 1009,3 hPa 0,0 l/m 12,3 km/h (3 Bft) O-NO 73 0 min 0,000 mm 0,0 UV-I 14 W/m 16,6 C 23,3 C 19,3 km/h (3 Bft) 95,74 %
11.08.2019 20:16 24,6 C 25,6 C 23,3 C 61 % 1009,4 hPa 0,0 l/m 12,7 km/h (3 Bft) O 98 0 min 0,000 mm 0,0 UV-I 12 W/m 16,6 C 23,2 C 17,7 km/h (3 Bft) 95,74 %
11.08.2019 20:19 24,5 C 25,6 C 23,3 C 62 % 1009,3 hPa 0,0 l/m 11,6 km/h (2 Bft) O-NO 71 0 min 0,000 mm 0,0 UV-I 11 W/m 16,7 C 23,3 C 19,3 km/h (3 Bft) 96,05 %
11.08.2019 20:20 24,5 C 25,6 C 23,3 C 62 % 1009,3 hPa 0,0 l/m 13,9 km/h (3 Bft) O 89 0 min 0,000 mm 0,0 UV-I 9 W/m 16,7 C 22,9 C 17,7 km/h (3 Bft) 91,67 %
11.08.2019 20:22 24,4 C 25,6 C 23,3 C 62 % 1009,3 hPa 0,0 l/m 14,5 km/h (3 Bft) O-NO 72 0 min 0,000 mm 0,0 UV-I 9 W/m 16,6 C 22,7 C 19,3 km/h (3 Bft) 96,00 %
11.08.2019 20:24 24,4 C 25,6 C 23,3 C 62 % 1009,3 hPa 0,0 l/m 11,0 km/h (2 Bft) O 100 0 min 0,000 mm 0,0 UV-I 8 W/m 16,6 C 23,3 C 16,1 km/h (3 Bft) 95,74 %
11.08.2019 20:26 24,4 C 25,6 C 22,8 C 62 % 1009,3 hPa 0,0 l/m 11,5 km/h (2 Bft) O 83 0 min 0,000 mm 0,0 UV-I 7 W/m 16,6 C 23,2 C 19,3 km/h (3 Bft) 93,62 %
11.08.2019 20:29 24,3 C 25,6 C 22,8 C 61 % 1009,3 hPa 0,0 l/m 16,8 km/h (3 Bft) O 93 0 min 0,000 mm 0,0 UV-I 6 W/m 16,3 C 22,2 C 22,5 km/h (4 Bft) 95,77 %
11.08.2019 20:30 24,4 C 25,6 C 22,8 C 61 % 1009,3 hPa 0,0 l/m 16,6 km/h (3 Bft) O-NO 73 0 min 0,000 mm 0,0 UV-I 5 W/m 16,4 C 22,3 C 20,9 km/h (4 Bft) 95,65 %
11.08.2019 20:32 24,4 C 25,6 C 22,8 C 62 % 1009,3 hPa 0,0 l/m 13,2 km/h (3 Bft) O-NO 73 0 min 0,000 mm 0,0 UV-I 5 W/m 16,6 C 22,9 C 20,9 km/h (4 Bft) 95,74 %
11.08.2019 20:34 24,3 C 25,6 C 22,8 C 61 % 1009,4 hPa 0,0 l/m 15,3 km/h (3 Bft) O-SO 123 0 min 0,000 mm 0,0 UV-I 5 W/m 16,3 C 22,4 C 20,9 km/h (4 Bft) 95,74 %
11.08.2019 20:36 24,4 C 25,0 C 22,8 C 61 % 1009,4 hPa 0,0 l/m 14,6 km/h (3 Bft) O-NO 69 0 min 0,000 mm 0,0 UV-I 5 W/m 16,4 C 22,6 C 20,9 km/h (4 Bft) 95,74 %
11.08.2019 20:38 24,3 C 25,0 C 22,8 C 61 % 1009,3 hPa 0,0 l/m 17,5 km/h (3 Bft) O-NO 62 0 min 0,000 mm 0,0 UV-I 1 W/m 16,3 C 22,1 C 24,1 km/h (4 Bft) 93,62 %
11.08.2019 20:40 24,3 C 25,0 C 22,8 C 61 % 1009,3 hPa 0,0 l/m 15,2 km/h (3 Bft) O-NO 67 0 min 0,000 mm 0,0 UV-I 0 W/m 16,3 C 22,4 C 24,1 km/h (4 Bft) 94,00 %
11.08.2019 20:42 24,3 C 25,0 C 22,8 C 61 % 1009,2 hPa 0,0 l/m 19,0 km/h (3 Bft) O 82 0 min 0,000 mm 0,0 UV-I 0 W/m 16,3 C 21,9 C 24,1 km/h (4 Bft) 95,74 %
11.08.2019 20:44 24,3 C 25,0 C 22,8 C 61 % 1009,1 hPa 0,0 l/m 17,9 km/h (3 Bft) O 85 0 min 0,000 mm 0,0 UV-I 0 W/m 16,3 C 22,0 C 27,4 km/h (4 Bft) 91,67 %
11.08.2019 20:46 24,3 C 25,0 C 22,8 C 61 % 1009,1 hPa 0,0 l/m 18,1 km/h (3 Bft) O 98 0 min 0,000 mm 0,0 UV-I 0 W/m 16,3 C 22,0 C 25,7 km/h (4 Bft) 97,37 %
11.08.2019 20:49 24,2 C 25,0 C 22,8 C 61 % 1009,1 hPa 0,0 l/m 18,6 km/h (3 Bft) O 92 0 min 0,000 mm 0,0 UV-I 0 W/m 16,2 C 21,8 C 27,4 km/h (4 Bft) 92,86 %
11.08.2019 20:50 24,2 C 25,0 C 22,8 C 61 % 1009,1 hPa 0,0 l/m 17,0 km/h (3 Bft) O 84 0 min 0,000 mm 0,0 UV-I 0 W/m 16,2 C 22,0 C 20,9 km/h (4 Bft) 92,59 %
11.08.2019 20:52 24,1 C 25,0 C 22,8 C 61 % 1008,9 hPa 0,0 l/m 19,5 km/h (3 Bft) O-NO 73 0 min 0,000 mm 0,0 UV-I 0 W/m 16,1 C 21,6 C 30,6 km/h (5 Bft) 95,74 %
11.08.2019 20:54 24,1 C 25,0 C 22,8 C 61 % 1008,9 hPa 0,0 l/m 17,6 km/h (3 Bft) O 101 0 min 0,000 mm 0,0 UV-I 0 W/m 16,1 C 21,8 C 27,4 km/h (4 Bft) 97,87 %
11.08.2019 20:56 24,1 C 25,0 C 22,8 C 61 % 1008,8 hPa 0,0 l/m 23,1 km/h (4 Bft) O-NO 67 0 min 0,000 mm 0,0 UV-I 0 W/m 16,1 C 21,1 C 30,6 km/h (5 Bft) 93,62 %
11.08.2019 20:59 24,1 C 25,0 C 22,8 C 61 % 1008,8 hPa 0,0 l/m 19,6 km/h (3 Bft) O 81 0 min 0,000 mm 0,0 UV-I 0 W/m 16,1 C 21,6 C 27,4 km/h (4 Bft) 97,18 %
11.08.2019 21:00 24,1 C 25,0 C 22,8 C 61 % 1008,8 hPa 0,0 l/m 18,2 km/h (3 Bft) O 88 0 min 0,000 mm 0,0 UV-I 0 W/m 16,1 C 21,7 C 22,5 km/h (4 Bft) 95,65 %
11.08.2019 21:02 23,9 C 25,0 C 22,2 C 61 % 1008,8 hPa 0,0 l/m 16,6 km/h (3 Bft) O-NO 64 0 min 0,102 mm 0,0 UV-I 0 W/m 15,9 C 21,7 C 27,4 km/h (4 Bft) 95,74 %
11.08.2019 21:04 23,9 C 25,0 C 22,8 C 61 % 1008,8 hPa 0,0 l/m 21,7 km/h (4 Bft) O 80 0 min 0,000 mm 0,0 UV-I 0 W/m 15,9 C 21,0 C 29,0 km/h (5 Bft) 97,87 %
11.08.2019 21:06 23,9 C 25,0 C 22,2 C 61 % 1008,8 hPa 0,0 l/m 16,6 km/h (3 Bft) O-NO 66 0 min 0,000 mm 0,0 UV-I 0 W/m 15,9 C 21,7 C 25,7 km/h (4 Bft) 95,74 %
11.08.2019 21:09 23,9 C 25,0 C 22,2 C 61 % 1008,8 hPa 0,0 l/m 17,8 km/h (3 Bft) O 90 0 min 0,000 mm 0,0 UV-I 0 W/m 15,9 C 21,5 C 25,7 km/h (4 Bft) 97,30 %
11.08.2019 21:10 23,8 C 25,0 C 22,2 C 62 % 1008,8 hPa 0,0 l/m 17,6 km/h (3 Bft) O-SO 102 0 min 0,000 mm 0,0 UV-I 0 W/m 16,1 C 21,4 C 25,7 km/h (4 Bft) 100,00 %
11.08.2019 21:12 23,8 C 25,0 C 22,8 C 61 % 1008,7 hPa 0,0 l/m 22,3 km/h (4 Bft) O 80 0 min 0,000 mm 0,0 UV-I 0 W/m 15,8 C 20,8 C 32,2 km/h (5 Bft) 97,92 %
11.08.2019 21:14 23,9 C 25,0 C 22,8 C 61 % 1008,6 hPa 0,0 l/m 18,3 km/h (3 Bft) O-NO 60 0 min 0,000 mm 0,0 UV-I 0 W/m 15,9 C 21,5 C 29,0 km/h (5 Bft) 95,74 %
11.08.2019 21:16 23,8 C 25,0 C 22,8 C 62 % 1008,6 hPa 0,0 l/m 19,3 km/h (3 Bft) O 96 0 min 0,000 mm 0,0 UV-I 0 W/m 16,1 C 21,2 C 25,7 km/h (4 Bft) 97,87 %
11.08.2019 21:18 23,8 C 25,0 C 22,8 C 62 % 1008,5 hPa 0,0 l/m 19,3 km/h (3 Bft) O 95 0 min 0,000 mm 0,0 UV-I 0 W/m 16,1 C 21,2 C 29,0 km/h (5 Bft) 98,00 %
11.08.2019 21:20 23,8 C 25,0 C 22,2 C 62 % 1008,5 hPa 0,0 l/m 17,9 km/h (3 Bft) O-NO 73 0 min 0,000 mm 0,0 UV-I 0 W/m 16,1 C 21,4 C 25,7 km/h (4 Bft) 96,23 %
11.08.2019 21:22 23,7 C 25,0 C 22,2 C 62 % 1008,5 hPa 0,0 l/m 18,5 km/h (3 Bft) O-NO 78 0 min 0,000 mm 0,0 UV-I 0 W/m 16,0 C 21,2 C 29,0 km/h (5 Bft) 97,37 %
11.08.2019 21:24 23,7 C 25,0 C 22,2 C 62 % 1008,5 hPa 0,0 l/m 17,5 km/h (3 Bft) O 101 0 min 0,000 mm 0,0 UV-I 0 W/m 16,0 C 21,3 C 24,1 km/h (4 Bft) 100,00 %
11.08.2019 21:26 23,7 C 25,0 C 22,2 C 62 % 1008,6 hPa 0,0 l/m 15,3 km/h (3 Bft) O-NO 78 0 min 0,000 mm 0,0 UV-I 0 W/m 16,0 C 21,7 C 22,5 km/h (4 Bft) 98,00 %
11.08.2019 21:28 23,7 C 25,0 C 22,2 C 62 % 1008,6 hPa 0,0 l/m 18,4 km/h (3 Bft) NO 49 0 min 0,000 mm 0,0 UV-I 0 W/m 16,0 C 21,2 C 29,0 km/h (5 Bft) 95,74 %
11.08.2019 21:30 23,7 C 25,0 C 22,2 C 62 % 1008,5 hPa 0,0 l/m 18,7 km/h (3 Bft) O 84 0 min 0,000 mm 0,0 UV-I 0 W/m 16,0 C 21,2 C 25,7 km/h (4 Bft) 95,74 %
11.08.2019 21:32 23,6 C 25,0 C 22,2 C 62 % 1008,4 hPa 0,0 l/m 17,9 km/h (3 Bft) O 90 0 min 0,000 mm 0,0 UV-I 0 W/m 15,9 C 21,2 C 24,1 km/h (4 Bft) 100,00 %
11.08.2019 21:34 23,5 C 25,0 C 22,2 C 62 % 1008,4 hPa 0,0 l/m 17,8 km/h (3 Bft) O 82 0 min 0,000 mm 0,0 UV-I 0 W/m 15,8 C 21,0 C 24,1 km/h (4 Bft) 100,00 %
11.08.2019 21:36 23,5 C 25,0 C 22,2 C 62 % 1008,3 hPa 0,0 l/m 19,6 km/h (3 Bft) O-NO 78 0 min 0,000 mm 0,0 UV-I 0 W/m 15,8 C 20,8 C 30,6 km/h (5 Bft) 100,00 %
11.08.2019 21:39 23,6 C 25,0 C 22,2 C 62 % 1008,4 hPa 0,0 l/m 18,3 km/h (3 Bft) O 89 0 min 0,000 mm 0,0 UV-I 0 W/m 15,9 C 21,1 C 29,0 km/h (5 Bft) 98,63 %
11.08.2019 21:40 23,6 C 25,0 C 22,2 C 62 % 1008,4 hPa 0,0 l/m 13,5 km/h (3 Bft) O-SO 109 0 min 0,000 mm 0,0 UV-I 0 W/m 15,9 C 21,9 C 22,5 km/h (4 Bft) 100,00 %
11.08.2019 21:42 23,5 C 25,0 C 22,2 C 62 % 1008,4 hPa 0,0 l/m 16,8 km/h (3 Bft) O 88 0 min 0,000 mm 0,0 UV-I 0 W/m 15,8 C 21,2 C 24,1 km/h (4 Bft) 100,00 %
11.08.2019 21:44 23,5 C 25,0 C 22,2 C 62 % 1008,4 hPa 0,0 l/m 14,3 km/h (3 Bft) O-SO 113 0 min 0,000 mm 0,0 UV-I 0 W/m 15,8 C 21,6 C 22,5 km/h (4 Bft) 95,74 %
11.08.2019 21:46 23,5 C 25,0 C 22,2 C 62 % 1008,4 hPa 0,0 l/m 16,0 km/h (3 Bft) O 98 0 min 0,000 mm 0,0 UV-I 0 W/m 15,8 C 21,3 C 22,5 km/h (4 Bft) 100,00 %
11.08.2019 21:49 23,5 C 25,0 C 22,2 C 62 % 1008,4 hPa 0,0 l/m 18,2 km/h (3 Bft) O 94 0 min 0,000 mm 0,0 UV-I 0 W/m 15,8 C 21,0 C 27,4 km/h (4 Bft) 100,00 %
11.08.2019 21:50 23,5 C 25,0 C 22,2 C 62 % 1008,4 hPa 0,0 l/m 14,7 km/h (3 Bft) O-NO 60 0 min 0,000 mm 0,0 UV-I 0 W/m 15,8 C 21,5 C 20,9 km/h (4 Bft) 100,00 %
11.08.2019 21:52 23,4 C 25,0 C 21,7 C 63 % 1008,3 hPa 0,0 l/m 15,3 km/h (3 Bft) O 101 0 min 0,000 mm 0,0 UV-I 0 W/m 15,9 C 21,3 C 20,9 km/h (4 Bft) 98,00 %
11.08.2019 21:54 23,4 C 25,0 C 21,7 C 63 % 1008,3 hPa 0,0 l/m 14,8 km/h (3 Bft) O-SO 108 0 min 0,000 mm 0,0 UV-I 0 W/m 15,9 C 21,4 C 22,5 km/h (4 Bft) 95,74 %
11.08.2019 21:56 23,3 C 25,0 C 21,7 C 63 % 1008,3 hPa 0,0 l/m 15,7 km/h (3 Bft) O-SO 103 0 min 0,000 mm 0,0 UV-I 0 W/m 15,9 C 21,1 C 24,1 km/h (4 Bft) 97,87 %
11.08.2019 21:58 23,3 C 25,0 C 21,7 C 63 % 1008,2 hPa 0,0 l/m 16,2 km/h (3 Bft) O 97 0 min 0,000 mm 0,0 UV-I 0 W/m 15,9 C 21,0 C 22,5 km/h (4 Bft) 95,83 %
11.08.2019 22:00 23,2 C 25,0 C 21,7 C 63 % 1008,2 hPa 0,0 l/m 18,5 km/h (3 Bft) O-SO 111 0 min 0,000 mm 0,0 UV-I 0 W/m 15,8 C 20,6 C 22,5 km/h (4 Bft) 97,87 %
11.08.2019 22:02 23,2 C 25,0 C 21,7 C 64 % 1008,2 hPa 0,0 l/m 15,9 km/h (3 Bft) O-SO 110 0 min 0,101 mm 0,0 UV-I 0 W/m 16,0 C 21,0 C 24,1 km/h (4 Bft) 97,87 %
11.08.2019 22:04 23,2 C 25,0 C 21,7 C 64 % 1008,2 hPa 0,0 l/m 15,4 km/h (3 Bft) O 94 0 min 0,000 mm 0,0 UV-I 0 W/m 16,0 C 21,1 C 24,1 km/h (4 Bft) 97,87 %
11.08.2019 22:06 23,1 C 25,0 C 21,7 C 64 % 1008,2 hPa 0,0 l/m 16,6 km/h (3 Bft) O 96 0 min 0,000 mm 0,0 UV-I 0 W/m 15,9 C 20,7 C 22,5 km/h (4 Bft) 91,43 %
11.08.2019 22:08 23,1 C 25,0 C 21,7 C 64 % 1008,1 hPa 0,0 l/m 13,5 km/h (3 Bft) O 86 0 min 0,000 mm 0,0 UV-I 0 W/m 15,9 C 21,3 C 19,3 km/h (3 Bft) 94,34 %
11.08.2019 22:10 23,1 C 25,0 C 21,7 C 64 % 1008,1 hPa 0,0 l/m 17,5 km/h (3 Bft) O 98 0 min 0,000 mm 0,0 UV-I 0 W/m 15,9 C 20,6 C 24,1 km/h (4 Bft) 95,74 %
11.08.2019 22:12 23,1 C 25,0 C 21,7 C 64 % 1008,0 hPa 0,0 l/m 16,7 km/h (3 Bft) O-NO 77 0 min 0,000 mm 0,0 UV-I 0 W/m 15,9 C 20,7 C 22,5 km/h (4 Bft) 93,62 %
11.08.2019 22:14 23,1 C 25,0 C 21,7 C 64 % 1007,9 hPa 0,0 l/m 15,9 km/h (3 Bft) O 101 0 min 0,000 mm 0,0 UV-I 0 W/m 15,9 C 20,8 C 22,5 km/h (4 Bft) 95,74 %
11.08.2019 22:16 22,9 C 25,0 C 21,7 C 64 % 1008,0 hPa 0,0 l/m 12,5 km/h (3 Bft) O 85 0 min 0,000 mm 0,0 UV-I 0 W/m 15,7 C 21,3 C 20,9 km/h (4 Bft) 94,00 %
11.08.2019 22:19 22,9 C 25,0 C 21,1 C 65 % 1008,0 hPa 0,0 l/m 13,8 km/h (3 Bft) O 90 0 min 0,000 mm 0,0 UV-I 0 W/m 16,0 C 21,0 C 20,9 km/h (4 Bft) 98,59 %
11.08.2019 22:20 22,9 C 25,0 C 21,1 C 65 % 1008,0 hPa 0,0 l/m 14,7 km/h (3 Bft) O 101 0 min 0,000 mm 0,0 UV-I 0 W/m 16,0 C 20,8 C 19,3 km/h (3 Bft) 86,96 %
11.08.2019 22:22 22,8 C 25,0 C 21,1 C 65 % 1008,0 hPa 0,0 l/m 13,6 km/h (3 Bft) O-SO 111 0 min 0,000 mm 0,0 UV-I 0 W/m 15,9 C 20,9 C 22,5 km/h (4 Bft) 97,87 %
11.08.2019 22:24 22,8 C 25,0 C 21,1 C 65 % 1008,0 hPa 0,0 l/m 12,1 km/h (2 Bft) O 98 0 min 0,000 mm 0,0 UV-I 0 W/m 15,9 C 21,2 C 17,7 km/h (3 Bft) 91,49 %
11.08.2019 22:26 22,8 C 25,0 C 21,1 C 65 % 1007,9 hPa 0,0 l/m 10,8 km/h (2 Bft) O-NO 68 0 min 0,000 mm 0,0 UV-I 0 W/m 15,9 C 21,5 C 16,1 km/h (3 Bft) 95,74 %
11.08.2019 22:28 22,7 C 25,0 C 21,1 C 65 % 1008,0 hPa 0,0 l/m 12,2 km/h (2 Bft) O-NO 76 0 min 0,000 mm 0,0 UV-I 0 W/m 15,8 C 21,1 C 17,7 km/h (3 Bft) 97,87 %
11.08.2019 22:30 22,7 C 25,0 C 21,1 C 66 % 1008,0 hPa 0,0 l/m 8,6 km/h (2 Bft) O-NO 72 0 min 0,000 mm 0,0 UV-I 0 W/m 16,0 C 22,0 C 12,9 km/h (3 Bft) 97,87 %
11.08.2019 22:32 22,6 C 25,0 C 21,1 C 66 % 1008,1 hPa 0,0 l/m 10,0 km/h (2 Bft) O 101 0 min 0,000 mm 0,0 UV-I 0 W/m 15,9 C 21,5 C 14,5 km/h (3 Bft) 100,00 %
11.08.2019 22:34 22,6 C 25,0 C 21,1 C 66 % 1008,1 hPa 0,0 l/m 10,5 km/h (2 Bft) O-SO 121 0 min 0,000 mm 0,0 UV-I 0 W/m 15,9 C 21,4 C 14,5 km/h (3 Bft) 97,87 %
11.08.2019 22:36 22,5 C 25,0 C 20,6 C 67 % 1008,2 hPa 0,0 l/m 8,9 km/h (2 Bft) SO 129 0 min 0,000 mm 0,0 UV-I 0 W/m 16,1 C 21,7 C 14,5 km/h (3 Bft) 97,87 %
11.08.2019 22:38 22,5 C 25,0 C 20,6 C 66 % 1008,1 hPa 0,0 l/m 11,9 km/h (2 Bft) O-SO 109 0 min 0,000 mm 0,0 UV-I 0 W/m 15,8 C 20,9 C 19,3 km/h (3 Bft) 100,00 %
11.08.2019 22:40 22,6 C 25,0 C 20,6 C 66 % 1008,1 hPa 0,0 l/m 11,2 km/h (2 Bft) O 86 0 min 0,000 mm 0,0 UV-I 0 W/m 15,9 C 21,2 C 14,5 km/h (3 Bft) 100,00 %
11.08.2019 22:42 22,6 C 25,0 C 20,6 C 66 % 1008,1 hPa 0,0 l/m 13,7 km/h (3 Bft) O 92 0 min 0,000 mm 0,0 UV-I 0 W/m 15,9 C 20,7 C 17,7 km/h (3 Bft) 100,00 %
11.08.2019 22:44 22,6 C 25,0 C 21,1 C 66 % 1008,0 hPa 0,0 l/m 12,0 km/h (2 Bft) O 92 0 min 0,000 mm 0,0 UV-I 0 W/m 15,9 C 21,0 C 16,1 km/h (3 Bft) 100,00 %
11.08.2019 22:46 22,5 C 25,0 C 20,6 C 66 % 1008,1 hPa 0,0 l/m 10,9 km/h (2 Bft) O 101 0 min 0,000 mm 0,0 UV-I 0 W/m 15,8 C 21,2 C 14,5 km/h (3 Bft) 97,87 %
11.08.2019 22:49 22,5 C 25,0 C 20,6 C 67 % 1008,1 hPa 0,0 l/m 11,8 km/h (2 Bft) O 85 0 min 0,000 mm 0,0 UV-I 0 W/m 16,1 C 21,0 C 16,1 km/h (3 Bft) 97,14 %
11.08.2019 22:50 22,5 C 25,0 C 20,6 C 67 % 1008,1 hPa 0,0 l/m 12,9 km/h (3 Bft) O 96 0 min 0,000 mm 0,0 UV-I 0 W/m 16,1 C 20,7 C 16,1 km/h (3 Bft) 100,00 %
11.08.2019 22:52 22,5 C 25,0 C 20,6 C 67 % 1008,1 hPa 0,0 l/m 12,0 km/h (2 Bft) O 101 0 min 0,000 mm 0,0 UV-I 0 W/m 16,1 C 20,9 C 16,1 km/h (3 Bft) 100,00 %
11.08.2019 22:54 22,4 C 25,0 C 20,6 C 67 % 1008,1 hPa 0,0 l/m 12,6 km/h (3 Bft) O-SO 109 0 min 0,000 mm 0,0 UV-I 0 W/m 16,0 C 20,7 C 19,3 km/h (3 Bft) 97,87 %
11.08.2019 22:56 22,4 C 25,0 C 20,6 C 67 % 1008,2 hPa 0,0 l/m 10,1 km/h (2 Bft) O 97 0 min 0,000 mm 0,0 UV-I 0 W/m 16,0 C 21,3 C 16,1 km/h (3 Bft) 97,87 %
11.08.2019 22:58 22,4 C 25,0 C 20,6 C 67 % 1008,3 hPa 0,0 l/m 9,0 km/h (2 Bft) O 89 0 min 0,000 mm 0,0 UV-I 0 W/m 16,0 C 21,6 C 16,1 km/h (3 Bft) 100,00 %
11.08.2019 23:00 22,4 C 25,0 C 20,6 C 67 % 1008,4 hPa 0,0 l/m 6,7 km/h (2 Bft) O 80 0 min 0,077 mm 0,0 UV-I 0 W/m 16,0 C 22,3 C 11,3 km/h (2 Bft) 100,00 %
11.08.2019 23:02 22,3 C 25,0 C 20,6 C 68 % 1008,4 hPa 0,0 l/m 5,4 km/h (1 Bft) O 87 0 min 0,000 mm 0,0 UV-I 0 W/m 16,1 C 22,3 C 8,0 km/h (2 Bft) 100,00 %
11.08.2019 23:04 22,1 C 25,0 C 20,0 C 68 % 1008,5 hPa 0,0 l/m 4,7 km/h (1 Bft) O-NO 69 0 min 0,000 mm 0,0 UV-I 0 W/m 15,9 C 22,1 C 11,3 km/h (2 Bft) 100,00 %
11.08.2019 23:06 21,9 C 25,0 C 20,0 C 69 % 1008,5 hPa 0,0 l/m 6,4 km/h (2 Bft) O-NO 65 0 min 0,000 mm 0,0 UV-I 0 W/m 15,9 C 21,9 C 9,7 km/h (2 Bft) 100,00 %
11.08.2019 23:08 21,8 C 25,0 C 20,0 C 70 % 1008,6 hPa 0,0 l/m 6,3 km/h (2 Bft) O-NO 65 0 min 0,000 mm 0,0 UV-I 0 W/m 16,1 C 21,8 C 8,0 km/h (2 Bft) 100,00 %
11.08.2019 23:10 21,6 C 25,0 C 20,0 C 70 % 1008,6 hPa 0,0 l/m 5,5 km/h (1 Bft) O-NO 57 0 min 0,000 mm 0,0 UV-I 0 W/m 15,9 C 21,6 C 8,0 km/h (2 Bft) 100,00 %
11.08.2019 23:12 21,4 C 25,0 C 20,0 C 71 % 1008,7 hPa 0,0 l/m 4,9 km/h (1 Bft) O-NO 61 0 min 0,000 mm 0,0 UV-I 0 W/m 15,9 C 21,4 C 6,4 km/h (2 Bft) 97,87 %
11.08.2019 23:14 21,4 C 25,0 C 19,4 C 71 % 1008,7 hPa 0,0 l/m 4,2 km/h (1 Bft) O 79 0 min 0,000 mm 0,0 UV-I 0 W/m 15,9 C 21,4 C 6,4 km/h (2 Bft) 100,00 %
11.08.2019 23:16 21,3 C 25,0 C 19,4 C 72 % 1008,7 hPa 0,0 l/m 5,9 km/h (2 Bft) O-SO 104 0 min 0,000 mm 0,0 UV-I 0 W/m 16,0 C 21,3 C 11,3 km/h (2 Bft) 97,87 %
11.08.2019 23:18 21,2 C 25,0 C 19,4 C 72 % 1008,6 hPa 0,0 l/m 7,5 km/h (2 Bft) O-SO 106 0 min 0,000 mm 0,0 UV-I 0 W/m 15,9 C 20,8 C 12,9 km/h (3 Bft) 97,87 %
11.08.2019 23:20 21,1 C 25,0 C 19,4 C 73 % 1008,6 hPa 0,0 l/m 6,5 km/h (2 Bft) O-SO 118 0 min 0,000 mm 0,0 UV-I 0 W/m 16,1 C 21,1 C 9,7 km/h (2 Bft) 97,37 %
11.08.2019 23:22 21,2 C 25,0 C 19,4 C 73 % 1008,6 hPa 0,0 l/m 5,0 km/h (1 Bft) O-SO 104 0 min 0,000 mm 0,0 UV-I 0 W/m 16,2 C 21,2 C 9,7 km/h (2 Bft) 97,87 %
11.08.2019 23:24 21,2 C 25,0 C 19,4 C 72 % 1008,6 hPa 0,0 l/m 7,7 km/h (2 Bft) O 94 0 min 0,000 mm 0,0 UV-I 0 W/m 15,9 C 20,7 C 14,5 km/h (3 Bft) 98,00 %
11.08.2019 23:26 21,3 C 25,0 C 19,4 C 72 % 1008,7 hPa 0,0 l/m 8,4 km/h (2 Bft) O-SO 103 0 min 0,000 mm 0,0 UV-I 0 W/m 16,0 C 20,6 C 14,5 km/h (3 Bft) 100,00 %
11.08.2019 23:28 21,6 C 25,0 C 19,4 C 71 % 1008,7 hPa 0,0 l/m 5,7 km/h (1 Bft) O 90 0 min 0,000 mm 0,0 UV-I 0 W/m 16,1 C 21,6 C 12,9 km/h (3 Bft) 97,87 %
11.08.2019 23:30 21,7 C 25,0 C 19,4 C 70 % 1008,8 hPa 0,0 l/m 4,2 km/h (1 Bft) O 82 0 min 0,000 mm 0,0 UV-I 0 W/m 16,0 C 21,7 C 6,4 km/h (2 Bft) 100,00 %
11.08.2019 23:32 21,7 C 25,0 C 19,4 C 70 % 1008,8 hPa 0,0 l/m 4,0 km/h (1 Bft) O 88 0 min 0,000 mm 0,0 UV-I 0 W/m 16,0 C 21,7 C 6,4 km/h (2 Bft) 100,00 %
11.08.2019 23:34 21,5 C 25,0 C 19,4 C 71 % 1008,8 hPa 0,0 l/m 4,2 km/h (1 Bft) O 88 0 min 0,000 mm 0,0 UV-I 0 W/m 16,0 C 21,5 C 6,4 km/h (2 Bft) 100,00 %
11.08.2019 23:36 21,2 C 25,0 C 19,4 C 72 % 1008,8 hPa 0,0 l/m 5,1 km/h (1 Bft) O-SO 115 0 min 0,000 mm 0,0 UV-I 0 W/m 15,9 C 21,2 C 9,7 km/h (2 Bft) 97,87 %
11.08.2019 23:39 21,1 C 25,0 C 19,4 C 73 % 1008,8 hPa 0,0 l/m 3,1 km/h (1 Bft) O-SO 111 0 min 0,000 mm 0,0 UV-I 0 W/m 16,1 C 21,1 C 6,4 km/h (2 Bft) 98,59 %
11.08.2019 23:40 21,1 C 25,0 C 18,9 C 73 % 1008,8 hPa 0,0 l/m 4,7 km/h (1 Bft) O-SO 110 0 min 0,000 mm 0,0 UV-I 0 W/m 16,1 C 21,1 C 4,8 km/h (1 Bft) 95,65 %
11.08.2019 23:42 21,1 C 25,0 C 19,4 C 73 % 1008,8 hPa 0,0 l/m 4,0 km/h (1 Bft) O-SO 110 0 min 0,000 mm 0,0 UV-I 0 W/m 16,1 C 21,1 C 4,8 km/h (1 Bft) 98,00 %
11.08.2019 23:44 21,1 C 25,0 C 18,9 C 73 % 1008,7 hPa 0,0 l/m 2,9 km/h (1 Bft) O-SO 110 0 min 0,000 mm 0,0 UV-I 0 W/m 16,1 C 21,1 C 4,8 km/h (1 Bft) 95,74 %
11.08.2019 23:46 21,1 C 25,0 C 18,9 C 73 % 1008,8 hPa 0,0 l/m 3,6 km/h (1 Bft) O-SO 110 0 min 0,000 mm 0,0 UV-I 0 W/m 16,1 C 21,1 C 6,4 km/h (2 Bft) 97,87 %
11.08.2019 23:48 21,1 C 25,0 C 18,9 C 73 % 1008,8 hPa 0,0 l/m 3,3 km/h (1 Bft) O-SO 110 0 min 0,000 mm 0,0 UV-I 0 W/m 16,1 C 21,1 C 4,8 km/h (1 Bft) 97,22 %
11.08.2019 23:50 21,2 C 25,0 C 18,9 C 72 % 1008,8 hPa 0,0 l/m 2,9 km/h (1 Bft) O-SO 110 0 min 0,000 mm 0,0 UV-I 0 W/m 15,9 C 21,2 C 4,8 km/h (1 Bft) 96,23 %
11.08.2019 23:52 21,1 C 25,0 C 18,9 C 73 % 1008,8 hPa 0,0 l/m 2,1 km/h (1 Bft) O-SO 110 0 min 0,000 mm 0,0 UV-I 0 W/m 16,1 C 21,1 C 3,2 km/h (1 Bft) 93,62 %
11.08.2019 23:54 21,1 C 25,0 C 18,9 C 73 % 1008,9 hPa 0,0 l/m 2,3 km/h (1 Bft) O-SO 110 0 min 0,000 mm 0,0 UV-I 0 W/m 16,1 C 21,1 C 3,2 km/h (1 Bft) 96,00 %
11.08.2019 23:56 21,0 C 25,0 C 18,9 C 73 % 1008,9 hPa 0,0 l/m 1,3 km/h (1 Bft) O-SO 110 0 min 0,000 mm 0,0 UV-I 0 W/m 16,0 C 21,0 C 1,6 km/h (1 Bft) 96,00 %
11.08.2019 23:58 21,0 C 25,0 C 18,9 C 73 % 1009,0 hPa 0,0 l/m 0,4 km/h (0 Bft) O-SO 110 0 min 0,000 mm 0,0 UV-I 0 W/m 16,0 C 21,0 C 1,6 km/h (1 Bft) 89,36 %
_ Min-Zeit 05:24 01:42 05:02 13:20 22:14 - 00:00 - - - - - - 13:20 05:16 00:00 00:02
Minimum _ 17,1 C 24,4 C 16,1 C 47 % 1007,9 hPa - 0,0 km/h (0 Bft) - - - - - - 13,3 C 17,2 C 0,0 km/h (0 Bft) 9,09 %
_ Max-Zeit 16:24 14:38 13:56 04:00 06:14 03:26 17:40 - - 08:44 14:02 12:52 11:52 11:24 17:32 13:12 00:00
Maximum _ 27,7 C 25,6 C 37,8 C 97 % 1018,7 hPa 0,2 l/m 24,3 km/h
O (4 Bft)
- - 2 min 0,635 mm 6,1 UV-I 937 W/m 18,7 C 26,4 C 33,8 km/h
O (5 Bft)
100,00 %
Durchschnitt _ 22,1 C 24,9 C 25,6 C 74 % 1014,6 hPa #0,4 l/m 9,8 km/h (2 Bft) O-NO - #10:10 h #5,182 mm 3,4 UV-I 409 W/m 16,8 C 21,2 C 14,5 km/h (3 Bft) 97,02 %